GFSSW_sfc_thetae_000.txt.gz
Theta_e
315 315 315 315 315 315 316 316 316 317 317 318 318 318 319 320 319 317 311 316 320 337 337 329 328 328 328 324 324 323 310 307 309 309 311 316 315 319 321 316 317 317 315 319 324
315 315 315 315 315 315 315 315 316 316 316 317 317 317 318 319 314 311 322 332 338 339 324 325 324 326 321 319 319 315 309 309 315 315 312 314 314 316 315 315 315 315 318 320 321
315 315 315 315 315 315 315 315 315 315 315 315 316 317 318 318 311 310 338 337 337 337 321 324 326 323 318 318 317 315 310 314 315 317 315 313 313 316 313 311 315 313 316 318 318
315 315 315 315 315 315 315 314 314 315 314 314 315 317 319 315 299 319 339 340 340 325 318 317 318 317 315 313 317 311 315 316 316 317 314 311 314 314 314 315 318 317 317 318 318
315 315 315 315 314 315 315 314 315 314 314 314 315 316 315 307 306 318 339 337 326 317 314 313 314 317 312 314 315 314 315 316 317 315 314 314 313 314 314 318 319 318 317 317 319
316 316 316 315 315 315 315 315 315 315 315 314 315 316 312 300 313 316 318 324 319 315 313 314 313 316 313 313 313 316 316 314 315 314 314 312 313 314 315 318 316 316 316 317 318
314 315 316 315 315 315 315 314 314 315 314 314 315 314 308 304 315 318 317 318 322 318 312 314 316 314 315 312 317 315 310 312 313 314 312 315 310 310 316 317 316 316 317 318 319
313 313 314 315 316 315 315 314 314 314 315 315 316 312 303 314 316 313 315 314 315 318 319 320 319 314 313 316 313 310 310 304 311 313 314 313 305 313 316 316 316 316 316 317 319
312 312 312 312 313 315 315 314 315 314 316 316 311 307 300 316 311 314 316 311 317 318 318 318 315 313 311 306 305 307 302 304 307 313 312 311 307 313 316 316 316 317 317 317 319
309 312 312 312 312 314 313 314 314 315 314 315 311 305 311 308 310 314 315 314 310 312 310 311 310 307 307 304 297 301 302 304 305 310 311 309 309 313 315 315 316 317 318 318 319
308 310 311 312 312 312 311 311 308 308 307 305 305 303 308 315 316 311 315 311 310 308 302 307 303 301 305 307 306 306 305 305 309 312 310 309 311 312 315 314 315 316 318 320 320
310 308 309 311 311 312 310 304 308 309 301 308 309 307 309 312 306 309 314 307 305 300 304 303 301 306 308 308 306 305 304 304 308 311 309 308 308 312 313 314 315 315 316 319 320
311 309 308 309 311 308 305 306 313 313 300 303 309 310 309 310 306 307 309 307 304 300 301 299 303 308 307 306 304 305 304 305 305 308 310 308 306 309 312 315 315 317 318 319 320
312 311 308 309 305 309 308 312 315 311 293 296 301 305 310 311 304 312 312 308 305 300 301 301 306 306 306 304 307 302 308 308 306 304 299 308 298 307 309 311 313 313 316 317 320
311 311 309 307 305 304 309 312 311 307 284 303 303 313 309 307 307 307 312 309 303 302 302 300 303 303 305 306 308 305 310 308 307 304 303 303 300 303 310 308 310 312 314 318 321
311 311 310 305 305 307 309 313 307 291 283 299 307 304 303 305 306 309 307 310 309 304 304 302 308 308 308 310 310 310 308 307 306 303 297 302 300 300 305 307 309 311 313 318 320
311 311 309 307 300 309 310 305 289 284 298 298 302 304 302 301 302 304 302 302 300 297 298 302 302 307 310 306 310 308 305 297 295 294 294 303 300 303 310 310 310 310 314 319 321
310 310 309 309 307 307 304 295 283 290 292 304 305 304 300 303 302 302 301 299 304 302 299 297 295 303 309 307 305 306 305 297 292 292 295 305 299 303 310 312 312 313 316 321 320
308 308 306 308 307 305 296 284 286 291 297 296 299 297 300 303 303 302 302 301 303 305 299 298 298 307 308 310 310 305 301 306 300 301 297 300 305 310 312 310 311 313 318 320 321
306 303 302 309 308 303 291 285 291 296 296 296 292 298 295 301 301 301 301 305 303 306 309 305 299 306 307 311 311 309 308 299 300 292 292 297 300 301 306 308 312 315 318 321 321
305 294 303 309 309 295 285 287 292 297 297 294 293 294 296 295 300 301 301 304 306 306 308 308 307 304 308 306 304 305 303 304 304 300 294 293 298 311 310 313 316 316 320 321 319
299 289 307 307 291 290 287 292 294 294 297 295 296 295 295 297 297 298 302 305 309 308 304 308 307 302 304 309 311 308 305 306 299 299 301 299 300 314 315 314 317 317 319 319 319
295 297 307 303 285 286 293 291 293 292 293 293 293 295 298 296 294 301 304 309 310 308 307 309 304 300 302 306 309 305 307 308 309 308 302 296 299 314 314 314 316 319 318 318 319
297 289 298 300 298 292 289 289 289 296 294 293 293 295 295 294 299 298 302 308 309 310 311 312 307 303 299 303 307 304 305 306 305 301 300 301 303 309 310 311 314 319 319 318 319
298 292 295 289 291 291 290 290 287 287 295 295 293 293 293 291 294 298 299 300 305 310 311 312 302 307 306 307 306 305 304 304 303 305 300 303 304 308 312 313 315 320 320 318 317
293 293 296 292 293 290 289 289 288 289 291 291 291 293 294 292 293 293 296 298 299 302 308 314 303 307 302 306 306 303 305 305 305 304 304 305 306 313 316 316 316 319 319 317 318
300 301 296 291 291 289 290 290 290 292 293 295 294 293 291 294 298 300 301 302 302 301 303 310 306 303 300 304 304 300 304 305 306 307 307 303 309 313 312 313 316 320 320 320 320

GFSSW_sfc_thetae_003.txt.gz
Theta_e
315 315 315 316 315 316 316 316 316 316 316 317 317 317 318 319 319 313 309 313 316 333 336 327 327 324 322 319 321 320 304 301 303 304 307 310 307 313 316 312 313 314 312 318 321
316 316 315 315 315 316 315 315 316 316 316 316 316 316 317 319 311 306 317 330 330 337 321 321 318 320 315 316 317 312 305 305 311 311 309 309 307 309 311 311 311 314 316 320 320
316 316 317 317 315 316 315 315 315 316 315 315 315 316 317 318 308 306 338 335 334 337 317 317 321 319 313 316 315 312 305 310 311 314 314 311 307 310 309 308 311 310 312 315 316
316 316 317 317 316 316 316 315 315 315 315 315 315 316 317 313 293 312 339 338 339 329 316 312 312 312 312 310 315 308 311 312 312 314 313 309 310 308 309 311 315 315 315 313 313
313 314 315 317 316 316 316 316 315 314 314 315 315 316 312 303 302 315 340 339 332 323 313 309 306 307 306 312 313 310 311 313 314 314 310 311 309 309 309 314 316 315 314 313 312
312 313 313 315 316 316 315 315 315 315 315 315 315 316 309 296 308 312 312 320 319 314 311 310 307 309 306 310 310 312 311 312 314 313 310 309 309 310 311 315 314 312 311 311 312
312 312 313 313 314 315 316 315 314 315 315 315 316 312 304 300 311 313 311 308 316 314 309 311 312 309 308 305 310 310 305 308 310 311 307 311 306 307 312 313 312 311 311 311 312
310 311 312 312 312 313 314 315 315 316 316 316 317 309 298 308 311 309 310 308 312 320 314 314 312 308 306 308 308 304 306 301 306 309 310 308 301 308 312 311 310 312 312 312 312
311 310 310 311 312 312 313 313 314 314 316 317 310 304 295 310 306 310 312 307 310 314 316 319 311 305 305 301 298 301 296 299 303 310 309 306 303 309 312 311 309 311 312 312 311
312 311 310 309 310 312 312 312 312 313 313 313 310 299 302 302 306 310 311 312 308 309 307 306 304 300 300 299 292 295 297 301 301 306 307 305 305 308 310 310 309 309 311 312 312
312 312 311 310 309 311 309 304 302 303 305 301 300 298 304 310 315 309 312 309 308 304 301 304 295 295 299 301 303 301 300 300 304 308 306 305 306 307 309 309 307 308 309 311 311
311 312 311 311 309 310 306 298 302 302 296 304 304 302 305 308 302 309 311 304 301 297 299 297 293 300 304 304 303 302 299 299 303 307 306 305 304 307 309 308 308 308 308 308 311
311 312 312 310 309 305 301 300 306 305 295 300 304 304 304 307 301 304 308 305 300 296 297 294 298 303 303 301 301 301 299 299 299 305 306 302 299 304 308 309 310 310 309 311 311
311 311 311 310 301 303 303 308 310 307 288 291 297 301 306 307 302 308 310 305 300 296 297 295 301 301 301 300 302 297 305 303 302 301 294 303 289 299 303 305 307 307 308 310 311
311 311 311 309 298 296 303 307 309 303 276 295 296 308 305 303 305 305 310 305 299 298 298 295 297 298 298 301 304 300 306 304 304 300 296 297 291 295 303 302 305 304 308 310 311
311 311 311 306 302 299 305 308 303 285 276 292 301 299 298 303 304 307 304 307 304 300 300 298 303 301 299 303 306 307 304 303 302 297 288 295 294 294 299 302 303 305 308 312 311
311 310 309 307 298 305 305 301 286 279 292 292 296 298 298 297 301 303 299 297 295 292 293 297 297 301 303 300 303 304 297 290 286 285 285 298 295 296 303 306 305 306 309 311 313
310 309 308 307 307 304 302 291 279 286 287 294 294 296 295 299 298 300 298 294 298 297 293 291 289 298 302 299 298 299 298 290 283 285 289 299 292 298 307 307 308 311 311 312 311
308 304 303 305 307 304 294 282 282 287 291 291 292 290 292 298 299 298 297 295 297 299 292 291 292 302 302 303 302 299 296 300 293 293 289 294 299 304 305 304 306 311 312 310 310
302 301 300 306 307 300 289 284 286 293 293 292 286 290 286 291 292 296 296 300 298 301 301 296 290 300 302 303 303 301 304 294 291 284 282 292 294 295 299 302 304 310 309 310 311
300 295 301 305 305 293 283 285 289 294 293 290 288 288 289 289 292 293 296 301 303 301 301 300 296 297 300 298 296 299 297 295 294 291 285 284 291 302 301 305 308 310 311 311 311
298 288 305 305 290 288 286 287 293 292 295 292 292 291 289 291 291 291 294 300 305 303 297 300 296 293 297 303 304 302 299 296 292 289 293 292 292 306 308 309 310 313 313 311 311
293 293 303 301 284 285 288 289 291 290 291 291 290 292 292 290 288 293 297 303 304 302 299 300 295 291 293 298 302 301 302 300 297 296 293 290 292 306 308 311 314 312 313 312 311
293 286 293 297 294 288 287 286 286 292 291 292 292 293 290 290 293 291 294 300 300 304 310 306 296 294 292 295 300 298 301 301 297 293 294 296 297 302 305 307 311 312 312 312 311
294 288 294 285 287 288 289 287 285 285 290 291 290 291 290 287 289 290 293 294 298 305 299 302 294 298 299 302 303 302 301 301 298 298 295 297 298 303 304 305 311 313 312 312 311
290 289 292 288 290 288 288 286 286 288 288 287 288 291 291 289 289 287 290 290 291 295 293 299 295 298 298 302 302 301 302 302 302 300 300 300 300 306 308 308 312 312 312 311 312
298 299 293 289 287 286 286 288 289 290 291 292 291 290 290 292 295 296 295 295 294 292 291 294 297 296 292 300 300 296 301 302 302 302 301 297 300 306 306 308 312 312 313 312 313

GFSSW_sfc_thetae_006.txt.gz
Theta_e
317 316 317 316 317 316 316 316 316 316 316 317 317 317 317 318 318 311 302 310 314 334 336 330 328 323 319 315 317 315 302 299 301 302 305 311 304 311 313 310 311 311 312 316 319
317 317 317 317 317 317 316 315 315 316 316 316 316 316 316 318 311 305 315 327 329 336 322 321 317 320 312 313 314 309 302 305 310 308 306 310 307 309 307 307 308 312 317 318 318
314 315 316 317 317 317 317 316 315 315 316 315 316 316 316 316 305 304 330 327 330 335 315 318 321 316 309 311 311 309 305 311 312 312 312 310 310 312 307 304 307 308 313 316 315
313 313 313 314 315 316 317 316 315 316 315 315 315 315 317 312 289 305 338 339 336 327 316 310 308 308 307 307 313 305 312 313 313 314 311 309 312 310 308 308 311 313 316 315 313
311 313 312 312 313 314 316 316 315 315 315 315 315 316 310 303 298 308 334 336 332 321 314 308 304 304 303 309 310 308 311 313 314 312 312 313 310 309 308 312 313 313 314 314 313
309 309 311 312 312 312 314 315 315 315 315 315 315 316 306 291 305 309 310 309 314 316 312 308 305 306 301 305 305 311 312 312 313 312 312 310 310 308 310 313 312 310 311 311 311
312 310 309 309 311 313 313 313 313 315 315 315 316 312 303 297 306 308 305 304 312 314 309 311 310 305 303 300 305 307 305 309 310 308 307 310 305 306 311 311 309 308 308 310 311
313 312 311 310 309 311 312 313 313 313 313 314 316 310 298 307 308 304 304 303 307 308 311 311 311 305 301 303 303 300 298 295 303 306 308 305 300 308 310 309 308 309 308 309 309
313 313 312 311 310 309 311 312 312 312 313 313 309 305 294 308 303 304 307 303 305 308 310 314 307 302 301 298 294 296 293 295 299 306 307 304 302 308 311 309 308 308 309 310 309
312 312 312 312 311 310 310 310 310 310 309 310 310 299 300 297 303 306 304 307 304 305 304 307 304 297 295 293 289 293 293 296 298 303 304 303 302 307 309 309 308 308 309 309 309
311 311 312 312 312 311 306 301 299 301 302 299 298 296 303 306 308 306 307 304 305 302 296 303 297 293 296 299 300 299 296 296 301 305 302 302 303 306 308 307 307 306 306 308 308
311 310 311 312 312 311 302 295 297 300 291 301 303 302 303 304 298 303 309 300 298 294 298 297 293 298 302 301 299 297 297 296 300 304 301 301 301 306 307 306 305 306 306 306 308
311 311 311 311 311 303 298 299 304 304 292 297 301 301 302 304 299 300 306 303 297 295 295 293 299 302 300 298 297 297 296 298 298 302 303 300 298 301 306 307 308 307 307 309 309
310 311 311 311 301 298 295 303 303 306 285 290 296 300 303 303 299 306 307 304 299 294 296 294 300 300 297 295 298 294 301 301 301 298 292 300 289 296 301 302 304 305 305 307 309
310 310 311 310 297 295 297 300 303 300 272 291 293 305 303 299 303 302 307 303 297 296 297 293 296 295 294 296 300 297 302 300 300 298 294 296 290 294 299 300 303 304 305 307 309
310 310 310 305 303 302 303 301 299 283 274 287 297 295 296 298 301 304 302 304 303 298 297 296 300 298 297 300 301 303 300 299 299 296 289 295 293 295 296 300 302 304 307 307 308
310 309 308 306 296 301 302 299 284 278 290 288 289 291 292 295 297 300 297 295 292 289 290 295 295 299 300 296 300 300 294 287 283 285 287 295 292 295 300 303 304 303 305 307 309
309 308 305 305 303 303 297 291 279 284 285 291 291 291 290 294 295 297 295 292 296 294 291 289 287 295 300 297 294 294 293 289 282 283 287 296 290 295 303 305 306 307 308 308 308
307 299 298 301 305 299 293 281 279 285 289 288 289 287 287 290 291 295 295 293 296 296 289 289 289 300 300 300 298 294 292 297 290 291 287 290 295 302 303 303 306 307 308 307 308
300 295 295 302 303 299 288 283 285 291 291 290 284 287 283 286 288 289 292 298 296 299 297 293 288 298 299 300 299 296 298 291 289 284 282 288 291 293 297 300 306 306 306 306 308
294 290 296 303 303 293 282 282 287 292 293 289 286 285 286 286 288 288 290 297 299 298 299 295 291 293 298 294 293 293 292 293 293 290 285 282 288 298 300 300 306 306 307 308 309
291 284 299 304 289 289 284 286 291 290 293 290 290 289 287 288 286 287 289 294 299 296 294 297 290 288 292 297 300 297 294 295 291 287 289 288 290 301 302 303 308 307 309 309 311
287 287 299 301 280 284 287 288 290 289 289 289 288 291 292 289 284 290 293 298 299 295 294 296 291 286 290 292 298 294 297 296 293 292 289 287 289 304 305 307 309 308 308 309 309
287 282 291 292 293 287 286 286 286 291 289 290 289 291 290 288 290 288 290 295 297 296 302 297 292 290 287 291 295 292 296 299 294 288 289 292 294 299 304 308 308 309 309 309 311
287 284 290 280 283 286 285 286 284 284 289 289 287 289 288 286 288 287 290 292 294 298 294 291 291 293 294 297 298 297 297 299 297 295 293 294 296 299 303 309 310 310 309 309 310
289 287 290 288 286 284 285 284 285 287 288 287 285 289 289 286 288 287 289 289 289 293 290 291 287 294 292 296 296 295 299 300 300 297 297 298 297 303 308 310 309 310 309 309 310
294 293 292 288 284 282 283 287 287 290 291 291 291 288 286 290 294 295 295 294 293 290 288 287 289 290 289 295 295 291 297 300 300 301 299 295 298 302 303 308 310 309 310 310 311

GFSSW_sfc_thetae_009.txt.gz
Theta_e
316 316 316 317 317 317 316 316 316 316 316 317 317 317 317 317 317 307 300 309 313 330 336 332 325 321 317 313 315 312 300 298 300 300 303 307 304 310 312 308 309 310 312 315 317
314 314 314 315 316 317 316 316 316 316 316 316 316 316 316 317 310 305 314 326 329 334 322 322 318 317 311 311 311 308 300 301 306 306 304 307 308 311 308 309 306 309 314 318 316
312 313 313 313 314 314 314 315 316 316 316 316 315 316 316 315 301 299 327 327 326 334 315 321 319 316 308 309 310 307 303 308 309 310 309 308 309 313 309 307 310 307 309 313 313
311 311 311 312 313 313 312 313 315 316 316 316 315 315 317 310 288 301 335 339 337 325 312 310 313 308 305 305 311 303 309 311 311 312 310 309 313 310 311 310 314 312 313 313 311
312 312 311 310 310 312 312 312 313 314 315 315 315 315 309 302 296 305 332 331 328 318 309 305 303 306 303 306 307 305 308 310 312 311 312 312 309 309 310 314 315 311 313 313 313
313 313 312 312 311 310 311 313 313 313 313 314 315 316 305 291 303 308 307 306 306 314 312 306 304 305 300 302 302 308 308 310 311 311 312 309 310 311 312 315 313 310 310 312 313
313 313 313 313 312 312 311 311 312 313 312 313 314 310 303 299 305 306 304 302 304 308 309 311 309 305 302 298 302 302 299 303 306 308 308 310 305 305 311 311 309 309 308 310 313
312 312 312 312 313 312 312 311 310 310 312 313 314 308 298 309 311 308 307 302 303 304 308 310 312 305 300 300 300 296 295 293 301 305 308 304 299 306 310 308 308 309 308 308 310
312 312 311 311 311 313 313 312 311 310 311 312 305 303 295 309 304 307 304 299 301 301 303 309 306 300 299 296 292 292 291 292 297 303 303 301 299 306 309 307 306 307 308 306 307
311 311 311 311 311 312 312 311 309 309 307 308 306 298 300 297 301 304 303 303 301 300 300 300 300 295 292 291 286 289 289 294 295 299 301 300 300 305 308 307 306 307 309 307 308
311 311 311 311 311 311 309 298 293 298 301 296 296 295 300 305 307 304 303 299 302 299 292 299 294 292 295 296 296 295 293 293 297 301 300 298 299 303 306 304 305 307 307 306 307
311 310 310 311 311 311 303 294 298 300 292 299 299 301 304 306 298 301 304 296 296 291 295 295 291 299 301 299 296 295 293 294 298 302 299 298 298 302 304 304 306 307 306 305 306
311 310 310 310 311 302 296 298 305 304 292 295 299 298 298 302 298 298 302 300 293 291 292 290 294 302 301 297 296 295 293 294 295 299 300 298 296 299 304 304 306 305 305 306 307
310 310 310 310 301 296 296 301 302 301 284 287 294 297 300 300 295 304 305 301 296 290 293 292 298 298 298 295 296 292 299 298 296 294 290 297 287 295 299 301 302 304 303 305 307
310 309 310 309 301 298 299 302 305 300 270 289 293 304 302 296 298 297 304 301 295 292 292 291 294 294 294 295 298 295 300 298 297 294 291 294 289 293 297 298 300 302 302 303 306
310 309 309 303 301 301 303 302 299 286 274 286 294 291 292 297 297 301 299 301 301 295 294 293 299 297 296 300 300 300 296 295 294 291 286 293 290 292 295 298 300 302 304 305 305
309 309 306 305 295 299 301 296 281 278 288 286 287 290 290 290 294 295 295 292 291 287 288 292 293 297 298 295 297 296 290 283 280 283 284 293 290 294 299 301 303 303 303 304 306
309 308 305 304 301 302 296 288 276 284 284 291 289 290 287 290 289 293 293 290 294 293 289 287 285 293 298 295 292 293 293 285 280 281 285 293 289 295 301 304 305 305 303 306 306
306 298 297 299 303 300 292 280 279 284 288 287 288 285 285 288 289 289 291 291 293 295 288 287 288 297 298 298 297 292 290 295 287 289 286 289 294 299 301 302 304 304 305 304 306
300 297 293 300 302 300 288 279 284 290 289 288 282 287 282 285 286 286 289 294 295 296 294 291 285 295 297 298 297 292 295 286 284 280 279 287 289 291 296 299 303 303 303 304 306
292 290 295 305 301 293 281 282 286 290 290 287 285 283 285 285 286 286 288 293 295 294 296 290 289 290 295 292 291 289 290 288 290 288 282 281 287 296 298 300 303 303 304 305 307
289 282 298 303 289 286 283 286 291 289 292 289 289 287 286 287 286 284 286 291 297 295 290 293 288 286 290 294 298 295 292 292 287 285 287 287 290 300 299 300 304 304 305 305 308
288 285 296 300 283 282 286 287 289 288 288 288 288 289 290 287 284 287 289 295 296 293 290 292 287 282 285 290 293 291 293 293 291 289 287 286 290 301 301 300 306 304 305 307 308
290 281 288 291 290 286 284 284 285 291 288 289 287 289 288 287 289 287 287 291 294 293 300 293 288 287 284 287 292 290 292 293 292 288 289 290 291 297 301 301 304 304 305 307 309
286 282 289 282 282 284 283 285 283 284 288 288 285 287 286 283 286 287 290 291 293 296 293 288 283 290 293 293 294 294 293 293 292 293 290 293 293 296 302 303 306 306 305 307 308
285 288 291 287 288 284 283 283 285 287 288 285 285 288 288 285 287 285 289 290 288 291 289 288 282 289 291 293 293 291 294 295 295 295 295 295 294 299 304 307 307 307 307 307 308
296 295 290 287 286 279 280 285 285 288 291 291 289 287 286 289 292 293 294 294 293 289 288 285 285 284 285 293 291 287 292 294 295 298 297 292 296 300 301 307 308 307 308 308 310

GFSSW_sfc_thetae_012.txt.gz
Theta_e
313 312 313 313 314 314 315 316 316 317 317 317 317 316 316 317 316 307 300 308 313 331 336 329 323 321 318 312 313 310 300 296 298 299 301 303 303 308 311 308 307 309 308 312 316
312 311 312 313 312 312 313 314 314 315 316 317 316 316 316 317 308 303 312 325 329 336 324 320 316 317 309 309 310 306 299 300 305 304 303 304 305 308 307 309 307 308 311 314 315
312 312 312 311 311 311 312 313 313 313 315 316 316 316 316 315 299 297 323 322 327 331 316 320 319 315 307 307 308 306 303 308 307 308 307 307 308 310 308 307 311 308 312 311 312
313 313 313 312 312 311 310 311 313 313 313 314 315 315 316 308 286 301 336 337 336 323 310 316 315 308 304 304 309 302 307 310 310 310 307 308 310 310 311 311 315 314 313 311 311
312 313 313 313 313 312 312 311 311 312 312 312 313 315 310 299 295 302 325 318 320 317 307 308 310 308 302 304 307 303 307 309 310 309 310 311 309 310 310 315 316 315 312 309 311
312 312 312 312 312 313 313 312 311 310 310 312 312 313 304 293 306 304 309 304 305 313 310 304 305 310 303 303 303 305 306 307 307 308 310 308 308 310 312 316 314 313 311 309 311
312 312 311 311 311 312 313 313 312 311 311 310 312 309 301 297 309 311 309 302 302 306 307 309 307 303 301 296 300 299 296 299 301 303 303 307 302 304 311 312 308 308 309 308 310
312 312 311 311 311 311 312 312 312 312 312 311 311 305 294 307 309 307 308 306 308 302 303 311 312 303 298 298 298 295 294 290 298 302 303 304 296 305 309 308 307 307 308 308 307
311 312 311 311 311 311 312 312 312 312 311 310 304 300 292 309 303 308 308 302 303 301 300 306 307 300 298 295 292 291 289 290 294 301 300 301 296 305 305 305 305 306 307 308 307
311 311 311 310 311 311 311 310 309 308 306 307 304 295 298 294 304 304 307 305 300 296 296 296 298 294 292 291 286 287 288 291 291 297 299 297 297 302 305 304 304 305 306 306 307
310 311 311 310 310 310 307 297 294 294 298 293 294 294 297 304 307 303 302 301 299 295 289 294 291 290 292 295 294 293 291 290 293 299 297 296 296 300 304 302 302 303 305 305 307
310 310 310 310 310 310 304 292 297 298 290 298 297 298 302 303 296 300 302 294 293 289 293 293 289 294 297 297 295 294 291 290 295 301 298 296 296 300 302 302 302 304 305 305 304
310 310 310 310 310 299 294 296 304 301 290 294 297 296 297 299 295 296 302 296 292 288 291 289 292 297 297 296 293 293 292 292 292 299 298 296 293 297 302 302 303 304 305 304 304
310 310 309 310 299 296 296 299 304 304 285 287 292 295 298 297 292 300 303 298 292 288 290 290 294 294 295 294 296 290 297 296 295 293 287 295 285 294 297 300 301 302 301 303 304
309 309 309 308 300 297 298 301 301 298 272 286 292 302 299 293 295 295 301 299 293 289 290 287 291 292 292 295 299 294 300 297 296 292 288 290 286 292 295 296 300 302 303 302 302
310 309 309 303 301 300 301 300 297 282 273 285 292 290 290 295 295 298 297 299 299 291 291 291 295 295 294 299 300 300 296 293 292 288 283 289 289 288 293 297 299 301 302 305 304
309 308 306 304 294 298 299 294 280 274 288 285 286 290 290 289 291 294 292 290 289 286 286 289 289 293 297 292 296 294 288 281 278 279 281 292 288 291 297 299 301 302 302 304 305
308 305 303 303 299 301 294 286 275 281 283 290 288 288 286 289 288 290 291 288 291 290 288 284 282 290 296 293 292 293 290 282 277 279 285 291 286 292 300 302 303 304 303 304 306
305 296 295 297 301 301 290 278 277 283 286 285 286 284 284 287 287 287 287 289 292 292 285 285 286 294 296 297 297 291 288 292 286 288 284 286 292 297 300 301 302 302 303 303 305
299 296 292 299 301 299 285 279 282 288 288 287 280 285 281 283 284 284 286 292 290 294 292 289 284 292 294 295 297 292 294 286 286 279 278 285 288 290 295 298 302 302 301 302 306
290 286 295 304 303 293 278 281 285 289 290 286 284 283 283 283 285 283 285 291 291 291 294 290 287 288 292 290 289 288 287 286 288 284 280 280 286 295 297 299 301 301 302 303 306
291 280 297 304 287 285 280 286 290 289 291 288 288 286 284 286 285 284 284 287 292 292 287 290 286 284 288 292 296 293 289 289 285 283 286 286 287 298 299 298 301 302 303 304 306
289 287 294 299 281 283 285 286 289 287 288 287 285 287 287 286 282 286 287 293 292 290 288 291 285 281 283 288 291 290 292 292 288 287 286 284 286 299 301 300 301 301 303 305 307
289 281 285 290 289 286 284 282 284 290 288 288 286 286 285 285 288 286 287 290 293 293 297 292 285 284 283 285 289 287 291 292 288 282 285 289 289 295 301 300 300 302 303 305 307
285 281 286 283 283 285 286 283 282 283 289 288 285 285 285 282 284 285 288 290 292 294 293 287 281 286 287 290 292 291 291 291 289 290 287 289 291 294 298 301 301 303 304 306 307
284 288 289 286 288 286 282 280 283 285 286 287 285 287 286 284 285 284 287 288 288 291 289 290 281 285 284 292 292 290 291 291 292 292 291 291 292 297 299 304 304 304 305 306 307
295 294 291 287 285 283 283 284 284 286 288 290 288 286 285 287 291 291 291 291 292 289 288 287 283 281 279 286 289 286 291 291 292 293 293 290 296 298 301 304 304 304 306 307 309

GFSSW_sfc_thetae_015.txt.gz
Theta_e
313 313 312 312 312 312 312 312 313 314 315 317 317 317 317 317 317 309 300 308 313 328 335 329 324 322 318 315 320 317 308 303 304 304 307 312 311 314 317 316 317 317 319 321 323
313 313 313 312 312 312 311 311 311 313 313 315 317 316 316 317 310 305 313 321 327 332 325 317 313 318 315 315 316 314 308 306 310 311 309 311 312 313 313 314 315 317 321 320 322
312 313 314 314 313 312 313 312 311 311 312 313 314 315 315 316 299 299 331 326 324 332 316 317 315 315 311 314 314 313 307 312 312 313 313 312 312 315 312 310 314 314 318 321 323
312 312 312 312 313 313 313 313 313 312 311 312 312 313 315 310 293 308 325 325 335 319 312 310 312 311 307 308 314 307 312 313 313 315 313 311 314 311 314 315 319 319 321 321 321
312 312 312 312 312 311 312 312 313 313 312 311 311 313 309 301 299 305 317 315 313 320 309 306 309 308 304 308 309 309 311 313 315 315 314 315 312 312 313 316 319 320 320 321 321
311 311 312 312 311 311 311 312 312 312 312 311 311 312 303 291 309 311 311 309 305 315 309 307 309 311 307 306 306 309 310 310 313 313 313 311 310 312 313 318 317 318 318 319 320
310 311 311 311 311 310 311 312 312 312 312 312 312 307 300 297 308 310 309 308 306 306 303 310 309 307 308 305 310 309 305 309 309 310 310 309 304 305 312 314 313 314 317 318 319
311 311 311 311 311 311 312 312 312 312 312 312 313 305 295 307 310 308 309 308 309 309 305 308 311 306 304 306 302 301 301 297 303 305 306 305 299 307 312 312 312 314 315 315 318
311 311 311 311 311 311 311 312 311 311 312 310 304 300 293 308 303 308 310 304 306 308 307 305 308 305 303 299 297 298 294 295 298 304 304 305 301 307 311 310 310 312 313 314 316
310 311 311 310 311 311 311 310 309 308 308 307 305 295 297 296 304 306 309 308 303 302 300 299 302 299 299 296 290 293 293 296 296 301 302 301 301 306 308 308 309 311 313 314 315
310 311 311 311 310 310 308 303 300 298 300 296 295 295 297 302 305 302 306 304 303 298 294 297 294 293 296 297 298 298 298 297 300 302 300 300 300 304 308 309 309 310 312 315 317
310 310 310 310 310 309 304 298 298 298 291 298 298 298 301 302 295 299 304 297 296 292 296 293 291 297 300 298 296 296 295 296 299 301 300 300 300 305 307 307 309 310 312 314 316
310 310 310 309 309 303 300 299 305 304 291 294 298 297 298 300 295 296 302 297 294 292 293 292 295 297 296 296 294 295 293 294 295 299 301 300 298 301 305 309 310 311 313 315 315
310 310 310 309 302 301 298 304 306 305 286 288 292 297 299 299 293 302 301 298 295 291 293 293 298 295 295 294 296 292 298 297 296 295 291 300 291 299 303 304 307 310 312 314 316
310 309 309 308 301 297 301 305 306 301 274 289 294 304 300 295 297 299 303 298 293 293 294 291 293 294 293 294 298 295 299 298 297 295 295 296 293 297 302 301 304 308 312 315 314
309 309 308 304 302 302 305 305 301 284 273 286 293 291 291 295 295 298 298 299 299 295 294 295 299 297 296 298 299 301 299 299 299 297 289 294 293 293 298 301 305 310 313 312 313
309 307 304 305 297 304 304 299 283 276 287 285 287 290 289 289 290 292 292 291 289 287 289 292 293 296 298 296 300 300 296 289 287 287 287 296 293 294 303 305 306 309 313 313 315
307 306 302 303 305 305 300 290 275 281 284 290 288 288 285 289 287 288 289 290 291 293 291 288 285 293 298 296 295 297 296 289 283 285 289 295 290 294 305 308 309 311 313 313 315
305 302 301 303 303 304 293 280 279 283 287 286 287 283 284 287 287 286 287 290 293 293 288 289 289 296 297 299 301 297 294 299 293 294 292 294 297 303 307 307 309 310 310 313 315
299 297 299 305 305 301 288 281 284 289 289 288 281 284 281 284 283 285 284 289 289 293 295 292 289 295 296 299 300 298 301 291 293 285 284 291 293 296 302 305 309 310 311 313 315
297 293 302 306 303 293 283 284 286 291 291 286 284 283 284 283 285 284 284 288 290 291 295 294 292 293 295 294 293 294 295 296 296 293 287 286 291 306 307 309 310 312 312 314 315
296 288 300 305 289 287 285 287 291 289 292 289 289 287 286 286 285 285 284 287 293 292 288 293 292 289 292 297 300 298 296 296 290 288 293 291 292 306 309 310 311 311 312 314 316
290 289 300 301 283 284 288 287 289 288 288 288 287 288 289 285 283 287 287 292 292 292 289 292 291 288 289 294 297 295 297 298 298 297 291 287 293 305 309 308 309 311 312 313 316
293 286 292 295 292 286 283 284 285 291 289 290 289 290 288 286 288 285 287 291 294 293 296 295 289 288 287 290 295 292 294 296 296 291 292 292 295 301 305 309 310 311 313 314 316
292 287 290 284 287 287 285 284 283 284 290 291 288 287 286 284 286 285 288 290 292 294 293 292 285 288 290 291 292 294 293 294 293 295 292 294 295 300 304 307 309 313 313 314 315
290 289 292 288 289 286 286 284 284 286 286 286 286 288 287 284 286 284 287 288 288 292 292 292 286 288 288 292 293 292 295 295 295 295 295 296 297 304 307 309 310 312 312 313 315
297 296 291 288 287 285 285 285 286 288 289 290 289 287 286 288 291 292 292 292 291 289 289 289 288 286 286 290 291 289 294 295 295 297 296 293 299 304 304 308 311 313 314 314 316

GFSSW_sfc_thetae_018.txt.gz
Theta_e
315 315 315 313 313 313 313 313 312 312 313 314 315 317 317 318 317 315 306 312 316 332 334 326 325 324 319 317 321 322 311 308 310 310 312 317 315 319 321 319 320 322 321 325 327
313 313 313 314 314 314 313 314 313 313 312 312 313 314 315 316 313 310 321 321 328 331 314 319 317 319 318 318 320 317 311 311 315 316 315 316 316 317 316 317 317 320 324 326 327
313 313 313 313 313 313 313 314 314 314 313 312 312 314 314 316 306 306 326 330 325 327 311 317 316 315 313 317 318 317 311 316 316 318 318 316 316 319 316 314 317 318 321 324 325
312 312 313 313 312 312 312 312 313 313 313 313 312 312 314 312 296 317 320 324 330 324 313 312 314 309 309 309 316 312 316 317 317 318 317 316 319 316 317 317 321 322 323 323 323
311 311 312 312 312 312 311 311 312 312 312 313 312 311 311 304 303 314 323 322 314 319 311 311 311 311 308 311 312 312 315 317 318 318 318 318 316 316 316 320 322 322 322 322 323
310 311 311 312 312 311 312 312 313 312 312 312 312 312 307 296 310 313 313 313 311 315 315 313 310 313 313 312 311 313 313 314 316 316 317 314 314 315 316 318 320 320 319 320 320
311 311 311 311 312 312 312 312 312 312 312 313 313 310 304 300 310 312 311 310 312 309 310 314 313 312 314 310 315 312 308 311 312 314 312 315 310 311 316 317 317 317 318 319 321
311 311 311 311 311 312 312 312 312 312 313 313 313 309 299 308 312 309 311 310 312 312 309 311 313 311 311 313 310 307 308 303 311 312 313 312 305 312 316 315 315 315 316 317 320
310 311 311 311 311 311 312 311 311 311 312 313 309 305 297 310 304 308 310 306 309 311 311 309 308 307 307 303 301 305 299 303 305 312 310 307 304 311 316 315 314 315 316 317 319
311 311 311 311 311 311 311 311 311 310 310 311 308 299 301 297 304 308 310 310 306 306 306 304 303 301 302 301 295 299 301 302 303 309 307 306 305 311 314 313 313 314 315 316 318
311 311 311 311 310 310 309 308 303 302 304 299 298 299 299 303 306 303 306 307 306 304 298 302 297 296 300 302 303 303 303 302 306 309 307 306 306 310 314 312 312 314 315 316 318
310 310 310 311 311 310 308 301 301 302 294 301 300 300 302 303 296 301 306 300 301 296 300 299 294 301 303 304 302 301 300 301 305 308 307 306 305 309 311 312 313 314 315 316 319
310 310 310 310 310 309 304 303 308 308 294 296 300 299 301 303 297 299 301 300 298 296 297 296 298 302 301 300 299 300 299 300 300 304 307 304 301 305 310 313 314 315 316 318 318
310 310 310 309 305 306 302 307 309 308 289 290 295 300 302 302 297 305 306 300 298 295 297 297 302 300 299 298 300 297 302 301 300 299 295 304 295 303 308 309 311 313 315 316 318
310 309 309 307 305 300 304 309 309 305 277 291 297 306 301 298 299 300 307 301 294 296 297 295 297 298 298 299 302 299 302 300 300 298 298 299 296 301 306 305 308 312 315 317 319
310 309 308 307 306 305 308 308 305 286 277 288 295 293 294 296 296 300 299 304 301 294 297 297 303 300 300 302 302 303 300 300 301 299 292 298 297 298 302 306 309 313 314 316 320
309 307 307 307 302 308 308 302 286 279 289 286 289 292 291 291 292 294 294 295 293 288 288 296 296 300 302 299 302 301 298 292 291 292 291 300 298 300 307 310 311 311 314 319 322
308 306 304 309 308 308 303 293 277 284 284 291 290 290 287 290 290 291 291 291 297 294 291 288 288 297 301 299 298 298 299 294 287 290 293 301 295 301 308 311 313 313 315 318 321
305 310 308 308 310 308 297 284 283 286 289 288 289 285 286 288 289 289 289 287 294 297 290 290 291 300 300 301 303 299 297 303 297 298 295 299 302 307 309 309 313 314 314 318 322
304 304 304 310 309 302 292 284 287 291 291 290 284 286 284 286 286 287 287 289 288 294 299 296 291 299 299 302 303 302 304 296 297 291 289 295 298 301 305 307 310 314 316 320 323
304 298 305 311 309 297 286 287 290 293 293 289 287 286 287 286 287 287 286 290 290 293 297 297 295 296 298 297 297 299 299 300 301 298 292 292 296 306 307 311 312 315 319 320 322
301 294 305 309 294 293 289 289 292 292 294 292 292 289 287 288 287 287 286 290 294 293 290 297 296 292 296 300 304 303 301 301 295 294 297 296 296 310 311 314 315 315 318 321 323
296 296 306 305 287 286 289 289 292 290 291 291 289 291 292 289 285 288 289 294 294 293 290 294 293 291 293 297 301 299 300 303 302 302 296 292 294 309 312 313 314 317 319 321 322
297 292 297 300 296 288 286 288 288 292 291 292 291 293 290 289 291 288 289 292 293 294 295 296 294 294 290 294 298 296 298 301 301 296 297 296 299 305 310 312 315 317 319 321 322
298 293 293 289 290 290 289 287 286 286 292 293 290 289 288 285 288 287 289 290 292 294 295 295 292 294 295 295 296 298 297 299 298 300 296 298 299 304 310 311 312 316 319 320 321
293 290 292 291 291 289 289 288 287 288 288 289 288 291 291 288 289 287 289 289 290 294 293 296 292 295 292 296 296 295 298 299 299 300 300 300 300 308 310 310 311 314 316 319 321
299 302 293 290 289 287 288 288 288 290 291 292 291 290 290 291 295 296 296 296 294 292 292 292 291 292 289 296 294 292 297 298 299 301 301 297 303 307 307 308 311 314 317 319 321

GFSSW_sfc_thetae_021.txt.gz
Theta_e
314 314 314 314 314 313 314 315 315 315 314 314 314 314 315 316 316 315 312 317 321 330 333 327 329 326 324 319 319 320 311 308 311 311 312 318 317 321 322 320 321 323 323 325 329
313 313 314 314 313 313 313 313 314 315 314 314 314 314 314 315 313 310 321 330 333 332 314 317 319 320 319 319 318 314 311 311 317 317 315 318 318 319 319 318 319 320 324 327 328
312 312 313 313 313 313 312 313 313 313 314 314 314 314 313 315 308 309 325 329 332 331 313 316 321 319 315 319 317 315 311 317 318 319 320 318 318 321 318 316 319 318 322 325 325
311 312 312 312 313 313 313 312 312 313 313 313 313 314 313 313 298 318 321 323 325 320 312 310 312 314 312 311 318 313 317 318 319 320 318 318 320 318 319 320 323 323 324 324 324
311 312 312 312 313 313 313 313 313 313 313 313 313 313 311 305 305 316 326 324 318 321 317 310 309 311 311 312 314 313 315 317 319 319 318 319 317 317 318 322 324 324 324 323 324
311 311 312 312 312 312 313 313 313 313 313 313 313 313 308 297 312 314 314 314 315 315 318 314 312 315 314 314 312 315 315 315 316 316 317 315 316 318 319 323 322 321 321 323 323
310 311 311 312 312 312 313 313 312 313 313 313 313 312 305 302 311 313 313 312 313 313 310 317 317 313 315 312 317 315 311 314 315 315 314 316 312 313 319 320 319 320 320 321 322
311 312 312 312 312 312 312 312 313 312 313 314 314 311 300 310 312 309 311 309 312 313 313 314 317 314 313 315 313 309 311 306 312 314 315 314 306 314 319 318 318 319 319 320 321
312 312 311 311 312 312 312 312 312 313 313 313 311 307 299 313 307 310 309 306 308 311 313 312 311 309 310 305 305 308 302 305 307 314 313 312 308 315 318 317 317 318 319 319 320
312 311 311 311 311 312 311 311 313 311 312 314 311 302 305 300 304 308 311 310 307 307 307 307 305 302 304 303 296 300 302 304 304 310 311 310 309 314 316 315 315 317 318 319 319
311 311 311 311 311 311 310 310 305 304 308 302 300 301 302 305 307 304 307 306 308 305 299 304 299 296 300 303 305 305 304 304 307 312 309 308 309 312 314 314 314 316 318 318 319
311 310 310 311 311 311 310 303 303 304 296 303 302 302 303 304 298 301 306 300 301 298 301 301 296 302 303 304 303 303 302 303 307 311 309 309 308 312 314 314 315 315 317 318 319
311 311 310 310 310 309 306 305 310 309 295 298 301 300 301 304 299 299 303 300 297 298 299 296 300 303 302 301 301 302 301 302 303 307 310 307 305 307 312 314 315 316 317 318 319
310 310 311 310 306 308 304 308 310 309 290 292 297 300 303 304 298 306 306 301 297 294 298 298 302 302 301 299 302 298 305 304 304 302 298 306 296 305 309 310 312 314 317 318 319
310 310 310 308 307 304 306 310 310 305 278 293 296 307 302 298 300 302 308 303 294 295 296 295 298 298 299 300 303 301 305 304 304 301 301 301 298 302 308 307 310 314 316 318 319
310 309 308 309 309 308 311 309 306 288 278 290 296 295 295 297 299 299 301 305 304 297 297 297 303 302 301 303 304 305 303 304 304 301 294 299 298 300 304 308 311 314 316 318 319
310 308 308 310 304 311 310 302 286 281 290 288 289 292 292 292 293 296 294 294 293 290 290 294 296 302 304 300 304 303 300 293 292 292 293 301 299 302 309 312 313 314 315 317 321
308 306 307 310 311 311 306 293 281 287 287 292 291 291 288 291 292 292 292 290 295 295 292 288 286 296 302 300 299 300 300 294 288 291 294 302 297 303 312 312 314 316 317 321 323
306 311 308 310 312 308 297 286 285 288 291 289 291 287 288 290 290 290 290 290 294 294 288 291 289 298 301 303 302 300 298 303 298 301 297 301 304 310 312 312 312 314 315 320 324
308 306 306 311 313 307 296 287 289 293 293 292 285 289 285 288 288 288 288 294 291 295 296 295 289 296 300 303 303 302 305 296 299 291 292 298 301 302 307 309 312 314 315 320 325
307 301 307 312 311 300 290 289 291 295 294 291 288 287 288 287 289 288 288 293 294 294 296 296 293 295 298 298 297 298 299 300 301 300 294 294 299 311 310 311 312 316 319 322 324
305 296 307 313 296 298 291 292 293 293 295 293 293 291 289 290 288 288 288 292 295 296 292 297 294 292 295 302 303 302 301 301 297 297 299 300 299 311 312 314 315 316 321 324 325
300 301 308 306 291 290 293 292 294 292 293 291 290 293 294 290 287 290 291 296 295 294 293 297 294 289 292 299 301 299 302 304 304 304 299 297 299 312 314 315 316 318 321 323 324
301 295 301 304 297 292 289 291 290 294 293 295 292 293 291 290 293 289 290 293 295 295 297 295 294 293 288 294 298 297 300 303 303 299 300 300 302 306 311 313 316 319 322 322 323
303 296 297 292 294 292 291 291 289 288 293 295 292 291 291 288 289 289 291 293 294 296 295 294 291 294 294 296 298 299 300 302 301 303 300 302 302 307 313 314 317 320 321 322 322
297 295 298 294 294 291 292 290 289 291 291 290 290 293 293 289 291 288 290 292 291 294 294 297 292 294 290 295 298 298 300 301 303 303 303 304 303 310 314 314 314 316 319 321 322
304 302 296 293 293 290 291 291 290 292 294 295 293 293 292 293 296 297 297 297 296 293 292 292 294 291 286 294 296 293 299 301 302 305 304 300 305 310 309 310 313 316 317 320 323

GFSSW_sfc_thetae_024.txt.gz
Theta_e
313 313 313 314 314 314 314 313 314 314 315 315 315 315 315 315 315 312 309 315 321 331 331 326 326 328 328 325 320 316 306 305 308 309 312 318 315 320 322 319 320 322 321 324 327
312 312 313 313 313 313 314 313 313 313 314 314 315 315 315 316 310 308 318 330 333 334 315 314 319 321 318 318 318 311 306 307 313 314 314 317 317 318 318 318 318 320 325 326 326
311 312 312 313 313 313 313 313 313 313 313 314 314 314 315 314 307 307 328 335 335 328 314 315 317 320 313 315 316 314 308 311 314 317 318 316 317 321 318 316 319 319 322 324 324
312 313 312 313 313 313 313 313 313 313 313 314 313 314 315 311 297 313 328 325 328 316 312 310 309 309 312 310 314 310 314 314 315 317 317 316 319 317 318 319 323 324 325 325 324
311 312 312 312 313 313 313 313 313 313 313 313 313 313 310 300 302 315 330 326 317 315 311 309 306 306 306 312 313 310 313 316 317 317 318 319 316 316 317 321 323 324 324 324 324
311 311 312 312 312 313 314 313 313 313 313 313 313 313 306 295 310 312 313 314 313 312 312 316 309 310 308 309 310 314 312 313 315 315 316 314 315 316 317 320 321 322 322 323 324
312 313 312 312 313 313 314 313 313 313 313 313 314 311 303 299 310 311 311 310 313 313 310 314 318 311 310 307 313 312 309 312 313 314 313 316 311 313 319 320 318 320 321 322 323
312 313 312 312 312 313 313 313 312 313 313 314 314 310 298 308 311 309 310 308 309 310 310 312 314 310 310 312 309 307 307 303 311 314 315 314 305 314 319 318 317 318 320 322 323
312 312 311 311 311 312 312 312 313 313 314 315 310 306 298 313 306 309 309 304 306 308 309 311 309 306 307 304 302 305 300 302 306 313 312 311 307 314 319 317 317 318 319 320 321
312 312 311 311 311 312 311 311 312 312 313 313 311 302 306 302 306 308 311 309 303 304 303 305 304 300 301 300 295 298 299 302 303 309 310 309 309 314 317 316 316 318 319 318 319
311 311 311 312 312 311 309 309 303 302 307 303 304 302 303 307 307 304 306 304 305 303 297 301 297 295 297 301 302 302 302 301 306 310 308 308 309 311 315 315 315 317 317 318 320
311 311 311 311 312 310 309 304 303 304 295 302 302 301 303 304 298 301 306 298 298 295 300 297 295 301 302 301 300 299 299 300 305 308 308 307 307 312 314 315 316 317 317 318 320
311 311 311 311 310 310 307 305 308 307 296 297 300 300 300 302 297 299 302 299 295 294 296 294 297 301 301 299 298 299 298 300 300 305 307 306 304 308 312 315 316 317 318 319 319
310 310 310 310 306 307 304 308 309 308 289 292 295 299 301 301 297 305 306 300 296 291 294 296 300 298 299 298 299 296 302 301 301 300 297 305 295 306 309 310 313 315 316 318 319
310 310 310 308 307 304 306 310 309 304 278 295 297 307 304 299 301 301 307 302 294 294 294 291 296 296 295 298 301 298 303 301 301 300 300 300 298 302 308 306 309 313 316 318 320
310 310 309 309 309 310 310 309 305 286 278 290 296 294 295 297 297 301 302 304 304 297 295 294 298 297 299 300 302 304 301 301 301 300 294 299 298 298 303 306 309 314 316 318 319
309 309 307 310 304 311 310 302 286 280 292 287 289 292 291 291 293 295 295 294 292 289 290 294 293 297 299 297 301 300 299 291 290 291 290 300 298 300 307 310 312 314 316 318 320
308 307 311 311 311 311 306 294 279 286 286 292 291 292 289 292 292 292 291 290 294 293 289 287 287 293 298 296 297 298 299 292 285 288 292 300 295 300 310 313 315 314 317 319 322
306 312 310 311 312 310 300 286 284 288 291 289 290 288 288 291 291 291 289 289 292 294 288 288 289 299 297 299 300 297 294 301 296 297 293 298 302 307 310 312 313 312 317 321 324
305 308 307 313 313 306 295 287 290 293 292 292 285 287 285 288 287 288 289 293 293 295 296 291 286 294 299 299 299 299 302 294 297 289 289 295 298 300 307 310 312 312 316 323 326
306 302 309 312 312 300 290 290 292 295 294 290 288 287 288 287 289 288 289 293 296 294 296 294 291 289 296 296 293 296 296 298 300 297 291 291 296 313 311 312 313 315 316 323 324
306 297 309 311 298 300 292 293 294 294 296 293 293 291 289 290 288 289 289 292 297 296 291 295 292 287 290 300 299 300 297 299 294 293 297 297 298 314 315 314 316 316 319 324 325
302 301 310 307 292 291 294 293 294 293 294 293 292 293 293 290 286 291 291 296 297 295 292 294 291 285 288 295 300 297 299 301 302 303 297 294 297 313 313 315 316 319 322 323 324
302 294 300 302 300 294 291 290 290 296 294 294 292 294 293 289 292 289 289 295 297 296 298 295 291 288 285 289 295 294 297 300 301 296 297 299 302 308 311 313 316 321 323 323 323
303 296 299 291 293 293 293 291 290 289 294 294 292 292 290 287 289 289 292 293 296 296 296 293 287 291 291 292 294 295 297 298 298 301 297 301 302 306 312 314 319 322 322 321 322
297 295 298 294 296 294 293 291 290 291 292 291 290 291 292 289 290 288 291 292 291 295 294 296 288 291 289 292 292 291 297 299 300 301 302 303 304 313 315 317 318 320 320 320 321
304 304 298 294 294 292 292 292 291 294 295 295 294 293 291 293 296 296 297 296 295 293 292 292 291 288 285 291 290 289 297 299 301 304 304 301 308 314 312 313 317 319 321 321 322

GFSSW_sfc_thetae_027.txt.gz
Theta_e
312 312 312 312 313 313 314 314 314 314 314 315 315 315 315 316 316 308 304 311 317 328 329 325 322 326 325 321 322 315 298 296 301 304 307 314 312 317 320 316 318 320 319 320 322
312 313 312 312 313 313 314 314 314 314 314 314 315 315 315 316 308 304 315 327 328 334 315 309 308 318 318 317 319 314 299 300 306 309 309 311 313 315 315 316 315 317 323 324 324
312 312 312 312 313 313 313 313 313 314 314 314 314 314 315 314 303 302 331 330 326 332 313 312 311 310 311 313 313 312 305 307 308 310 312 312 312 316 314 312 316 316 319 322 321
311 312 312 312 313 313 313 313 313 313 314 314 313 313 314 308 291 307 331 332 334 324 311 308 304 301 299 306 310 306 311 311 310 312 311 310 314 313 315 314 319 318 319 320 319
312 313 312 313 313 312 313 313 314 313 313 313 313 313 307 298 297 307 330 327 314 310 307 304 300 299 296 300 309 306 307 310 314 313 313 314 312 312 313 318 320 319 318 317 317
312 312 312 312 312 313 313 313 313 313 313 313 313 313 303 291 305 307 308 310 312 309 307 305 302 303 300 300 300 306 310 309 310 311 313 311 312 313 314 317 316 316 315 315 316
313 313 312 312 312 313 313 312 312 313 313 313 314 310 300 297 305 307 306 304 305 306 306 308 310 307 303 300 305 305 301 305 308 310 308 311 306 308 313 315 314 315 316 317 317
313 312 312 312 312 313 313 312 312 313 313 314 315 307 295 306 307 305 305 304 306 306 305 306 307 302 301 304 304 300 300 296 303 307 309 308 300 309 313 314 313 315 316 316 315
312 312 311 311 312 313 312 312 313 313 314 314 308 303 294 310 304 306 305 302 303 304 304 307 304 299 300 296 294 298 292 295 299 307 306 306 302 310 314 313 312 313 315 315 316
312 312 312 312 311 312 311 311 312 312 311 311 309 299 302 301 306 307 308 306 303 301 299 298 296 294 294 292 287 292 294 297 296 303 305 303 303 308 311 311 311 313 313 313 315
311 311 311 311 312 311 308 302 298 298 303 297 298 301 304 308 311 303 306 303 302 298 290 294 289 289 292 294 296 297 298 296 300 304 303 302 302 306 309 309 309 310 310 312 313
310 311 311 311 311 311 306 300 299 298 291 299 299 299 302 303 297 300 303 295 295 289 295 292 287 293 297 297 296 295 293 293 299 304 302 301 301 306 308 308 309 310 311 310 311
310 311 311 311 310 307 302 302 306 303 290 294 298 298 299 300 296 296 300 297 292 289 290 289 293 297 296 295 294 293 292 293 293 298 300 299 297 300 305 307 309 310 310 311 312
309 310 310 310 304 304 300 306 306 303 284 290 296 300 301 298 294 302 302 297 293 288 290 289 295 296 294 292 295 290 297 296 296 294 289 298 288 297 301 303 307 309 308 309 309
309 309 310 308 302 301 304 306 304 299 275 294 295 304 300 296 298 300 306 300 292 291 290 287 289 290 291 293 297 293 299 297 296 293 292 294 290 295 300 300 302 305 307 308 310
308 309 309 307 304 305 307 306 301 286 276 288 294 292 292 294 294 298 300 303 301 293 293 292 295 292 291 294 298 298 296 296 295 292 286 292 291 292 296 299 303 306 308 309 310
308 308 306 307 300 306 305 298 283 277 290 286 287 291 291 290 292 294 292 293 289 286 287 292 293 294 295 290 293 294 289 283 282 284 283 293 292 294 299 303 305 305 307 309 311
307 306 307 309 309 306 302 291 274 285 286 291 289 290 287 290 290 291 290 288 293 292 287 284 282 293 298 291 288 289 290 284 278 281 285 294 288 293 303 306 308 308 307 313 321
305 306 304 307 308 305 294 280 282 287 290 287 288 285 285 289 289 289 288 288 289 292 285 284 285 296 296 296 293 289 286 293 288 290 285 289 294 299 302 303 306 306 309 317 320
300 301 304 308 308 301 290 285 288 293 293 290 283 287 283 286 286 287 287 291 291 295 294 289 282 291 293 295 295 293 294 286 288 281 280 288 290 292 298 302 304 306 309 317 319
300 298 305 307 307 296 283 287 290 295 294 289 286 285 286 286 286 286 287 291 294 292 293 290 285 286 291 288 288 290 288 288 289 288 284 283 288 300 302 303 303 306 316 317 318
300 293 305 307 291 291 286 291 294 292 295 293 291 290 287 287 287 286 287 290 296 294 288 292 288 284 287 293 295 293 291 290 285 285 289 288 289 304 308 306 306 314 317 318 320
295 298 306 303 286 286 292 291 292 292 292 291 289 291 291 288 284 288 289 294 295 294 290 291 285 280 284 290 293 290 294 293 291 291 288 287 290 302 306 307 309 315 317 318 319
297 291 296 298 295 290 288 289 289 295 293 292 291 292 290 287 290 287 288 293 296 295 298 295 287 284 280 285 291 289 292 294 292 287 288 291 294 298 303 305 313 316 317 318 319
299 292 295 286 289 290 292 291 288 288 293 294 290 290 288 285 286 286 290 291 294 297 295 292 286 287 288 291 292 289 290 291 290 293 290 293 295 300 305 313 315 316 317 317 318
296 293 295 292 292 290 292 290 288 290 291 289 288 291 291 286 288 286 288 288 287 293 292 294 287 289 287 291 291 288 290 291 292 294 295 295 296 304 309 317 315 316 317 317 318
300 301 296 292 290 288 289 291 291 292 293 294 292 291 290 292 294 294 294 293 292 290 288 290 287 286 282 291 289 284 289 290 293 296 297 292 298 308 309 313 312 314 316 317 318

GFSSW_sfc_thetae_030.txt.gz
Theta_e
312 312 312 312 313 313 313 314 314 314 314 315 315 315 315 315 315 307 300 309 312 325 330 314 324 320 315 316 318 311 297 294 298 301 304 311 309 315 318 315 316 318 316 318 324
312 312 312 312 313 313 313 314 314 314 314 314 314 314 315 315 307 303 311 322 326 332 317 310 308 316 315 315 315 310 300 298 303 306 305 308 309 311 313 313 314 316 321 323 323
312 312 312 313 313 313 313 313 313 314 314 314 314 314 314 313 299 299 326 325 325 328 315 311 309 307 307 313 312 311 306 307 306 307 308 307 308 312 310 308 312 314 317 320 320
313 313 313 313 313 312 313 313 313 314 314 313 313 313 314 306 284 305 327 329 332 325 314 307 303 300 297 302 312 304 312 314 313 313 310 308 310 309 311 311 316 317 317 317 317
313 313 313 312 312 312 312 312 313 313 313 313 313 313 306 296 297 302 319 313 308 322 309 304 301 298 294 296 299 301 307 310 311 312 312 312 309 309 310 315 317 318 318 315 314
312 312 312 312 312 312 313 313 313 312 312 312 313 312 301 289 302 305 306 305 304 302 307 303 300 300 297 296 296 299 300 304 308 307 308 308 310 311 313 317 316 316 314 313 313
312 312 312 313 313 313 313 313 312 312 312 313 313 309 300 296 306 304 302 300 302 303 300 305 305 302 300 296 300 300 296 300 302 303 306 309 305 306 313 314 312 312 312 313 314
310 312 312 312 313 313 313 313 312 313 314 314 314 307 295 306 306 304 305 303 304 304 303 303 302 298 299 301 300 296 295 293 300 303 304 304 298 308 311 310 310 312 313 314 315
310 312 311 311 311 312 312 312 313 314 315 314 306 302 293 310 304 306 305 300 302 303 302 305 299 296 297 293 290 293 291 292 296 304 303 303 299 306 310 309 308 310 311 313 314
311 311 311 311 311 312 312 312 312 312 311 311 309 299 301 300 306 308 306 304 301 300 298 296 292 291 289 289 286 290 291 294 294 300 302 300 300 305 308 308 308 309 311 312 313
310 310 311 311 312 312 308 301 296 293 297 293 295 297 300 303 305 302 307 302 302 297 288 291 286 285 290 292 293 295 294 294 297 301 300 299 300 303 306 307 306 307 309 310 310
309 309 310 311 312 311 304 298 298 297 290 298 298 298 301 302 295 298 303 295 293 287 291 287 285 291 293 294 293 292 290 290 294 298 299 299 298 303 305 306 307 307 308 309 309
309 310 310 310 310 304 300 300 303 300 288 293 299 299 299 299 295 295 299 296 291 288 288 286 290 295 292 291 291 291 289 291 291 295 297 294 293 296 301 303 304 306 308 308 309
309 309 309 309 302 301 299 304 302 299 283 290 295 297 299 298 293 301 301 296 292 287 288 287 291 290 291 289 291 287 294 294 292 291 286 294 285 293 297 299 302 304 304 307 308
309 309 309 308 299 297 303 302 302 297 272 291 294 304 300 296 297 298 306 301 291 289 288 285 288 287 288 290 294 289 295 294 294 290 289 290 286 292 296 296 300 303 305 307 308
309 309 309 303 299 302 305 301 298 281 271 287 293 291 292 294 294 298 298 301 300 294 291 289 293 291 289 291 292 293 293 292 292 288 282 288 287 289 292 296 299 303 304 306 306
309 308 306 305 297 303 301 295 280 274 290 286 287 289 289 289 291 293 291 290 288 285 284 290 292 295 297 289 291 289 283 279 278 279 281 290 287 291 295 298 300 301 304 306 305
307 306 304 305 302 303 297 286 272 284 286 291 290 289 286 289 289 291 289 287 292 291 286 283 282 291 296 292 285 285 284 279 275 277 282 291 285 290 299 302 304 305 305 306 312
306 298 300 303 304 300 290 278 280 286 290 288 288 284 284 288 289 288 288 287 290 291 283 283 284 294 294 294 291 287 282 287 282 286 282 286 290 295 300 300 302 302 305 314 316
297 295 298 305 303 297 286 283 286 292 292 291 282 286 282 285 285 285 287 292 290 293 292 287 281 290 292 293 292 290 292 281 281 277 276 284 286 289 294 297 300 300 311 314 316
295 294 301 304 302 291 279 284 290 294 295 290 287 285 285 285 286 285 287 291 293 292 292 288 284 285 290 287 285 285 285 285 284 283 280 279 284 294 296 298 299 300 314 315 317
293 289 301 302 287 281 281 290 294 292 295 292 291 288 287 287 286 286 286 289 295 295 289 291 285 281 284 290 294 290 287 286 280 279 284 284 286 299 300 300 304 307 316 316 318
290 291 302 299 281 281 287 290 293 291 292 291 289 290 290 287 283 288 289 294 295 292 290 290 283 277 280 286 291 289 291 292 288 286 283 282 285 298 300 300 310 314 315 317 318
291 287 290 291 289 284 285 288 289 294 293 293 290 291 288 286 287 286 287 292 295 294 298 295 285 282 275 282 288 287 290 291 288 282 285 286 289 295 298 298 311 312 315 317 319
292 287 289 282 286 287 288 288 289 289 292 292 289 289 287 285 285 285 289 290 293 296 295 290 284 286 286 288 289 289 289 290 288 288 285 289 291 295 298 300 308 314 316 317 318
288 289 291 289 289 286 287 287 288 290 290 289 287 290 290 287 288 286 288 288 287 289 290 291 284 288 284 289 289 288 290 291 290 290 290 291 293 300 300 308 312 314 315 316 318
293 294 294 291 287 285 284 288 290 292 292 293 291 290 289 291 295 294 293 292 291 287 286 288 287 285 280 288 288 283 289 290 293 293 293 289 295 301 309 312 313 315 316 317 318

GFSSW_sfc_thetae_033.txt.gz
Theta_e
312 312 312 313 313 313 313 313 314 314 314 314 314 314 314 314 314 306 298 304 310 322 328 311 322 319 313 313 316 306 295 293 297 299 302 309 308 314 316 313 314 315 315 318 322
312 312 312 313 313 313 313 313 313 314 314 314 314 314 314 314 306 301 308 317 323 327 313 305 302 315 308 310 313 304 295 296 302 304 303 305 305 308 310 310 310 312 318 320 321
312 312 313 313 313 312 312 313 313 313 313 313 313 313 313 311 295 292 326 324 326 326 318 313 309 308 307 311 310 309 303 304 305 306 307 306 305 309 308 306 310 311 314 317 317
312 312 313 313 313 313 313 313 313 313 313 313 312 313 312 304 282 298 327 320 321 313 315 309 304 300 296 301 309 305 310 312 310 310 309 308 310 308 308 308 313 315 316 315 315
311 312 312 312 312 312 312 312 313 313 313 312 312 312 305 294 293 301 314 310 305 305 315 306 300 299 294 295 300 301 307 309 312 311 313 314 310 309 310 313 315 315 315 315 315
311 311 311 312 312 312 312 313 312 312 311 312 311 310 301 291 302 303 303 302 301 300 300 305 299 300 297 295 297 298 300 302 305 306 306 306 307 308 310 315 315 315 314 313 312
311 312 312 312 312 313 313 312 312 312 313 312 312 308 300 296 305 305 304 301 300 301 298 300 304 300 297 294 298 297 294 298 299 299 299 305 302 303 310 312 311 313 312 312 311
311 311 311 311 311 312 313 313 313 313 314 313 313 306 296 306 305 303 303 302 303 303 301 302 301 296 297 298 297 294 292 290 298 300 301 302 296 305 310 310 309 310 310 311 312
310 311 310 310 310 311 313 312 314 315 314 314 306 301 294 309 304 307 304 301 301 301 301 304 297 294 295 291 289 291 289 291 294 301 301 300 297 305 308 308 307 308 309 310 311
309 310 310 310 310 311 312 312 313 311 311 311 308 295 297 296 302 304 305 303 299 298 296 295 291 289 287 288 284 287 289 291 292 297 299 298 298 303 305 305 305 306 307 308 309
309 309 310 310 310 311 307 300 295 293 294 292 294 294 297 302 304 301 303 300 298 296 287 290 284 284 289 291 292 290 290 290 294 298 297 296 297 300 303 304 304 306 307 308 309
309 309 309 310 311 310 301 296 297 296 289 297 297 297 300 301 295 299 302 294 292 286 289 286 284 290 291 291 290 290 287 287 293 296 294 295 295 298 301 303 304 305 305 306 307
308 309 309 310 310 302 298 299 302 298 287 292 296 297 298 299 295 295 298 294 290 286 286 283 287 293 290 288 288 288 287 288 289 294 295 292 291 294 298 299 302 303 305 305 305
309 309 309 309 301 298 298 303 301 297 281 289 294 297 297 298 293 301 301 295 290 286 287 285 289 288 287 287 288 283 291 292 291 288 284 291 283 291 295 296 299 300 301 303 305
309 309 309 308 298 297 301 301 302 294 270 290 292 300 297 294 294 297 304 299 291 290 287 284 286 285 285 287 290 287 291 290 291 288 285 286 283 289 292 292 295 298 300 302 304
309 309 308 301 297 301 302 300 296 280 271 287 292 291 290 292 293 297 298 301 299 293 292 288 291 289 287 290 290 291 288 288 288 285 278 286 284 286 289 293 295 299 301 302 303
309 308 306 304 295 300 299 292 279 273 289 286 287 290 288 288 290 292 290 290 287 283 284 289 287 291 291 286 290 287 281 276 275 276 278 288 285 288 292 295 296 297 299 301 302
307 306 303 304 301 300 294 285 271 283 285 291 290 289 285 288 288 289 288 286 292 290 285 282 280 289 295 290 286 284 282 276 274 276 279 288 283 288 295 299 300 301 300 300 301
305 296 296 301 303 298 288 277 280 285 289 288 288 284 283 287 287 286 285 287 290 291 284 283 283 293 294 294 290 285 280 286 279 281 278 284 288 293 297 298 298 298 298 298 304
294 294 297 302 301 295 285 283 285 291 292 290 283 286 281 283 284 283 285 291 290 293 292 287 280 290 292 292 292 287 290 279 278 275 275 281 283 286 291 295 296 297 298 301 313
294 292 300 302 300 289 279 283 288 294 293 289 286 284 284 284 285 284 286 290 293 291 293 286 283 285 288 286 282 284 283 284 282 280 276 277 281 291 293 295 296 297 301 307 313
290 287 300 299 287 278 280 288 293 292 294 292 291 288 285 286 284 285 285 289 294 293 288 289 284 280 283 288 291 288 286 285 279 279 281 280 282 295 293 294 297 300 306 313 315
291 288 299 296 278 279 285 289 291 291 291 290 289 290 289 285 282 286 288 294 293 292 288 288 281 277 278 284 289 286 289 287 286 283 281 278 282 295 295 296 305 310 312 314 318
292 285 288 289 287 283 283 285 288 293 292 292 290 290 287 285 288 285 286 291 293 293 297 293 286 281 277 280 286 283 287 290 287 280 283 284 286 291 293 296 298 306 312 313 318
290 285 287 281 284 286 284 286 286 287 293 293 288 289 288 284 286 285 287 289 292 294 292 289 282 284 285 287 288 287 286 287 287 287 283 286 287 292 295 298 300 303 313 315 316
286 286 288 286 288 288 286 285 287 288 290 288 288 289 289 286 287 285 288 288 287 289 287 288 281 286 284 288 287 285 288 289 289 290 289 289 288 297 299 302 309 309 314 315 317
290 291 289 286 285 285 284 288 288 290 291 293 291 290 287 289 292 292 292 292 291 289 284 285 284 281 278 285 286 282 287 289 290 291 290 287 293 300 303 307 310 310 315 316 318

GFSSW_sfc_thetae_036.txt.gz
Theta_e
312 312 313 313 313 313 313 313 313 313 314 314 314 314 314 314 314 306 297 301 310 322 325 311 319 319 313 312 314 304 293 291 295 299 300 306 302 310 313 311 311 314 314 317 320
312 312 312 313 313 313 313 313 313 313 313 313 313 313 313 313 304 299 306 314 318 324 313 304 301 314 302 306 312 302 293 295 300 303 303 305 303 305 308 307 308 311 316 317 319
311 311 312 312 313 313 313 313 313 313 313 313 313 312 313 310 292 290 324 319 321 321 317 312 309 306 307 309 307 307 299 300 301 304 306 305 305 307 305 303 307 307 311 313 315
310 312 312 312 312 312 313 313 313 313 313 312 312 311 312 302 281 296 318 314 315 307 313 308 304 297 297 303 310 303 309 309 307 309 307 305 308 306 307 306 311 311 312 312 313
311 311 312 312 312 312 312 312 313 313 312 312 312 311 302 293 292 302 313 309 302 301 303 306 300 298 292 296 302 306 307 310 313 313 311 313 311 310 311 315 315 315 315 314 312
310 310 311 311 311 311 312 312 313 312 312 312 312 311 298 288 302 304 303 305 301 296 297 304 299 300 297 294 298 297 300 305 307 307 307 306 307 306 309 314 313 314 313 314 313
311 310 310 310 311 312 312 313 313 313 313 313 312 308 298 293 305 305 304 301 300 301 295 298 306 301 296 293 296 296 293 295 297 299 302 306 302 303 309 311 309 310 311 312 314
310 310 310 310 311 311 312 313 313 315 315 314 312 303 292 305 305 304 303 301 303 302 300 300 299 294 295 297 296 292 291 289 297 297 299 302 296 305 308 309 308 309 310 311 312
310 310 310 310 311 311 312 312 313 315 315 314 303 299 292 307 303 306 304 300 300 301 300 303 296 292 293 290 287 289 288 288 292 299 299 298 296 303 306 306 305 306 306 308 309
309 310 310 310 311 311 311 312 312 312 312 311 307 294 296 295 301 302 304 302 299 297 295 293 290 287 286 287 283 285 286 290 290 295 297 295 296 301 303 304 304 305 306 306 307
309 309 310 310 310 311 306 298 294 292 294 291 293 294 295 300 303 300 302 299 297 294 286 289 284 282 287 290 291 289 287 287 292 296 295 295 296 299 301 301 302 303 305 306 307
309 309 309 310 310 310 299 295 296 296 289 297 295 295 299 299 294 298 301 292 291 286 287 284 281 288 290 290 289 288 285 285 290 294 292 291 291 294 297 298 300 302 303 304 304
309 308 308 309 309 301 296 298 300 296 286 291 295 295 297 297 294 294 297 293 289 285 285 282 285 290 289 287 286 286 285 286 287 292 293 291 289 293 297 297 299 300 301 303 305
309 308 308 308 300 297 296 301 300 297 280 286 292 294 296 296 291 299 299 294 289 285 286 283 288 287 285 285 287 282 289 290 290 287 282 289 281 290 294 295 297 297 298 301 301
308 308 307 307 296 296 299 300 298 293 269 289 291 299 297 290 293 295 303 297 288 288 287 285 284 284 284 285 288 285 290 288 289 285 283 285 281 288 289 290 292 296 298 299 301
308 308 307 301 297 299 301 298 295 280 270 286 291 290 290 292 292 294 295 300 298 292 292 290 292 288 286 289 289 291 288 286 285 283 277 284 283 285 287 290 293 295 297 298 298
308 308 304 303 294 298 298 291 279 273 287 285 286 289 288 287 288 290 289 287 286 283 284 289 287 291 290 284 287 285 280 275 274 274 276 285 283 286 289 293 294 296 297 298 299
307 304 303 303 298 299 292 283 271 283 284 290 289 288 284 286 286 288 286 284 291 289 285 283 279 286 292 286 282 282 281 275 274 274 276 285 281 286 293 296 297 297 297 298 298
304 296 296 299 302 296 288 276 279 284 289 287 287 283 282 285 286 285 284 285 290 291 283 283 282 292 293 292 289 284 279 285 278 279 276 280 285 290 294 295 296 296 297 297 298
293 293 296 301 299 293 285 283 283 290 291 289 282 285 280 282 282 282 283 289 289 292 292 287 280 289 292 294 292 286 287 278 276 273 273 278 281 283 289 291 295 296 296 297 299
292 292 298 300 298 289 278 281 287 293 293 289 286 284 283 283 283 282 284 289 292 291 292 288 282 285 288 285 283 284 281 282 279 278 275 276 279 289 290 292 293 295 303 304 304
289 287 299 297 285 276 278 286 292 291 293 291 290 287 285 285 283 283 284 288 293 292 287 289 284 280 283 288 290 286 284 284 279 278 279 278 279 291 291 293 295 298 305 312 311
291 290 298 294 277 276 284 287 290 290 290 290 289 289 288 285 282 285 287 292 291 291 287 288 282 277 279 284 288 284 286 285 283 282 278 276 279 292 294 295 297 297 304 313 316
293 284 288 287 285 282 283 285 286 292 291 291 289 290 288 285 287 285 286 291 292 292 296 292 285 281 275 279 284 282 285 287 286 279 280 282 284 290 292 293 296 298 303 312 316
288 284 288 280 281 282 287 287 285 286 292 291 288 289 288 285 285 285 288 289 292 294 290 287 282 283 284 286 286 285 285 286 285 285 282 285 286 290 293 294 297 300 308 314 316
282 284 287 283 284 283 284 285 286 287 288 287 287 289 289 286 286 284 287 288 287 290 288 291 283 283 282 286 286 284 286 286 286 287 287 288 287 295 296 298 302 306 310 314 316
292 288 288 285 282 280 280 285 286 289 290 292 290 289 287 289 293 292 292 291 290 289 288 287 285 279 277 284 284 279 284 286 287 289 288 284 289 295 298 301 302 306 310 314 317

GFSSW_sfc_thetae_039.txt.gz
Theta_e
312 312 312 312 313 313 313 313 313 314 314 314 314 314 314 314 314 307 298 303 310 322 324 310 308 315 320 318 315 310 300 297 298 299 301 310 309 315 317 316 316 319 319 321 325
311 311 312 312 313 313 313 313 313 313 313 313 313 313 313 313 306 300 307 316 318 323 312 305 300 309 311 312 316 307 301 300 303 304 305 307 309 311 312 313 313 316 319 321 322
311 312 312 312 312 312 312 312 313 313 313 313 313 312 312 312 296 296 323 315 318 313 311 311 309 306 304 308 311 310 303 305 304 305 307 307 308 311 309 309 314 314 316 319 320
311 312 312 312 312 312 312 313 313 313 313 313 313 312 312 304 287 304 316 315 317 309 313 311 306 301 300 301 308 304 309 309 309 307 307 305 308 308 309 310 315 316 319 319 319
310 311 311 311 312 312 312 313 313 312 312 312 312 312 306 298 296 305 314 312 308 305 299 306 302 300 298 302 305 306 306 311 312 312 311 312 311 311 312 316 319 321 321 320 320
310 311 311 311 311 312 312 313 313 313 313 313 312 311 302 292 303 307 308 308 305 303 301 302 305 303 301 300 301 306 307 308 310 313 314 312 312 314 315 319 317 317 317 319 319
310 310 310 310 311 311 313 313 313 313 316 313 313 308 300 298 307 310 308 306 306 304 300 301 302 304 301 298 303 302 299 302 304 308 309 312 307 308 315 316 314 315 316 317 319
311 310 310 310 311 312 313 313 313 315 315 313 313 307 297 307 310 309 308 306 306 305 303 303 302 299 301 303 299 297 298 294 302 302 304 306 299 309 313 312 312 313 315 316 318
310 310 309 310 311 312 312 312 314 315 315 314 308 304 297 310 303 307 309 303 304 304 304 304 301 297 298 295 293 295 291 294 297 304 302 302 300 307 311 311 311 313 314 315 316
310 310 309 309 310 311 311 312 313 315 313 311 309 298 300 297 303 304 307 306 301 300 299 297 297 293 294 293 286 289 290 293 294 300 301 300 300 305 309 308 309 311 312 314 315
309 309 308 309 310 310 308 305 301 298 300 295 296 296 298 302 305 303 305 302 300 297 292 294 289 287 291 293 295 294 292 292 296 300 299 299 300 303 306 307 307 309 310 312 314
309 308 308 309 309 310 306 301 300 301 294 299 299 298 300 301 295 300 304 296 294 290 292 290 287 291 293 293 292 292 291 291 294 298 297 299 298 302 303 304 306 307 308 310 312
308 308 308 308 308 305 303 302 306 302 293 295 298 297 299 300 295 296 300 297 293 290 290 288 291 293 290 290 289 291 290 291 291 295 297 295 294 298 302 304 305 307 308 309 310
308 307 308 307 303 303 301 306 306 303 288 289 293 296 299 299 293 301 301 298 293 290 291 289 293 290 290 288 290 286 292 292 292 291 287 296 287 296 299 300 303 305 306 307 309
308 307 307 306 302 301 303 306 304 300 277 290 293 302 300 294 295 295 304 298 291 291 292 289 290 289 288 288 291 288 293 291 291 290 290 290 287 292 298 297 300 302 304 307 310
308 308 307 304 303 304 305 304 301 286 275 287 293 292 292 294 293 296 296 299 299 293 294 292 297 293 291 292 292 293 291 291 291 289 283 288 287 289 293 297 300 303 305 306 308
308 307 305 304 300 305 303 299 286 280 289 286 287 291 290 289 290 291 290 290 288 285 286 291 291 295 295 289 291 290 288 281 279 280 280 289 287 290 297 299 300 301 305 307 308
307 303 306 306 307 306 299 291 279 284 285 291 290 290 286 289 289 289 288 287 292 290 286 284 281 289 294 291 287 288 287 282 276 278 281 288 284 290 299 301 303 304 306 307 309
304 304 304 306 307 303 297 285 283 286 289 289 289 285 285 288 288 288 287 287 290 292 284 283 283 293 294 294 292 288 284 290 284 286 283 286 289 295 297 298 301 302 306 311 314
300 301 302 305 305 302 293 285 287 291 292 291 284 287 283 286 285 286 286 290 290 293 294 289 282 290 290 294 294 291 292 284 285 278 277 284 286 289 295 296 301 303 306 310 317
300 299 304 304 304 297 288 287 289 294 294 289 287 286 287 286 286 285 286 290 293 292 294 292 287 286 290 288 286 288 287 288 288 286 281 282 286 297 297 299 299 302 304 309 318
297 294 303 303 295 287 288 288 292 292 295 292 292 290 288 288 286 286 285 289 294 293 288 292 288 282 285 291 293 290 288 289 284 282 285 284 285 298 299 300 301 302 303 306 320
293 293 303 300 288 287 289 289 290 290 291 291 289 292 292 288 284 287 288 293 294 293 290 292 286 280 282 288 291 287 289 290 290 289 285 282 285 298 299 299 302 302 304 308 320
294 290 294 294 292 287 286 286 286 293 292 293 291 292 290 288 290 286 288 292 294 293 296 295 288 284 280 283 287 285 287 289 289 284 285 286 288 293 296 297 300 302 305 310 319
291 289 291 286 288 287 287 287 285 286 292 292 289 290 288 285 286 286 289 290 293 295 294 292 285 287 287 288 288 287 286 287 286 288 284 288 289 293 296 299 301 303 306 305 310
289 289 292 289 288 288 287 286 286 288 287 287 287 289 290 285 287 284 288 288 288 292 290 292 285 287 285 288 288 285 287 288 288 289 288 289 289 297 299 301 300 302 304 304 312
294 293 291 289 287 286 287 287 287 288 290 292 290 288 288 290 293 294 294 294 292 289 288 289 286 285 280 286 285 281 286 287 289 291 290 286 292 297 297 299 301 305 308 310 316

GFSSW_sfc_thetae_042.txt.gz
Theta_e
312 313 313 313 313 313 313 313 314 314 314 314 315 314 314 314 314 310 303 307 311 323 323 312 308 319 322 321 319 317 307 304 304 304 304 309 310 315 318 319 322 323 324 326 330
312 312 313 313 313 313 313 313 313 314 314 314 314 314 314 313 310 304 314 316 319 321 310 307 305 312 314 314 317 312 307 307 311 310 305 307 310 313 314 315 320 321 324 325 327
312 312 312 312 313 312 313 313 314 314 314 314 314 314 313 313 303 305 320 315 319 318 310 311 309 306 308 314 313 314 307 312 313 312 309 307 310 314 312 312 320 321 322 324 324
312 312 312 312 312 312 313 313 314 314 314 314 314 313 313 309 293 306 315 317 318 313 311 311 308 303 303 305 312 308 313 313 314 314 309 307 310 311 312 313 320 321 322 322 324
311 312 312 312 312 312 313 313 314 314 314 314 313 313 311 302 300 309 314 315 311 308 304 303 305 304 300 304 307 307 309 313 314 314 314 312 310 311 313 317 319 319 320 322 324
311 311 311 311 312 312 313 313 314 314 314 315 313 313 307 297 308 312 312 312 310 308 305 304 304 307 304 303 304 308 308 309 312 313 314 311 313 315 316 320 320 322 323 324 323
311 311 311 311 311 312 313 313 313 314 316 315 314 312 306 301 310 313 313 311 311 308 305 306 305 304 306 302 306 305 302 306 308 310 311 313 309 311 317 319 319 320 322 322 324
311 311 311 311 311 312 313 313 313 315 316 315 314 312 301 310 313 311 312 309 311 310 308 308 306 303 302 307 304 300 301 297 305 308 309 309 303 313 317 317 317 318 320 320 323
311 311 310 310 310 311 312 312 313 315 316 315 313 308 299 310 305 309 310 306 308 308 308 307 305 300 300 297 296 299 294 297 300 307 307 305 303 311 315 315 315 317 318 319 321
310 310 309 309 310 311 311 312 316 316 314 314 312 303 303 300 306 307 309 308 305 305 303 302 301 297 297 294 288 292 295 297 297 303 305 304 303 308 312 313 313 315 317 318 319
309 309 310 309 310 310 312 311 307 304 305 300 300 299 301 306 308 304 307 304 304 301 295 300 294 292 294 296 296 295 295 296 300 303 302 302 303 306 310 311 312 313 315 316 317
309 308 308 309 309 310 311 305 304 305 298 303 302 302 304 305 299 302 306 299 298 294 297 295 291 296 297 295 294 294 293 294 299 301 301 301 301 306 308 309 311 312 314 315 317
309 308 308 308 309 310 308 306 311 310 299 297 301 300 301 303 298 298 302 299 296 294 294 291 293 297 294 293 291 292 291 292 294 299 301 300 298 302 307 309 311 312 313 314 315
309 308 308 308 306 311 307 310 312 310 294 292 296 299 301 302 296 303 303 300 296 292 293 293 296 293 293 292 293 288 294 293 293 294 290 300 290 299 303 305 307 309 311 313 314
309 308 308 307 308 308 309 312 312 307 283 292 295 304 302 297 297 297 303 301 293 293 294 291 293 293 292 292 294 291 295 293 294 292 293 294 291 297 303 301 305 308 310 312 313
309 309 307 307 310 310 313 312 307 291 280 290 295 295 295 297 296 297 298 301 300 295 297 295 299 297 295 297 296 296 293 293 293 292 286 292 292 293 297 301 304 308 309 311 312
308 307 308 311 307 313 313 306 291 285 292 289 291 295 294 292 293 293 293 293 291 287 288 293 294 297 298 293 296 293 289 283 282 283 283 293 291 294 301 303 304 305 307 310 313
307 304 307 313 315 313 309 296 284 288 288 295 294 294 290 292 292 292 291 290 294 293 290 286 284 292 294 294 291 290 289 283 277 281 284 291 287 293 302 305 306 307 309 311 313
305 314 313 313 315 312 302 289 288 289 292 291 293 289 289 291 291 291 291 289 292 294 286 286 286 294 296 298 296 291 286 293 285 287 285 289 293 298 302 303 305 306 307 312 316
307 311 310 312 314 309 297 287 290 293 294 294 287 289 287 290 289 290 289 292 291 294 296 291 284 292 293 295 296 293 295 286 287 279 279 287 289 290 297 299 302 305 307 310 315
308 303 308 311 311 302 292 289 291 295 295 292 290 289 290 289 290 289 289 292 294 294 296 293 289 288 293 290 288 291 289 290 289 288 281 283 289 300 301 303 304 305 308 310 318
304 297 309 310 298 300 291 291 292 293 297 295 295 293 291 291 288 289 288 291 296 296 291 295 291 285 288 294 295 293 289 288 285 284 288 286 289 303 304 305 305 306 307 310 318
298 299 310 306 292 291 291 291 293 293 294 293 291 294 295 290 286 290 292 296 296 295 292 295 289 283 284 291 294 290 290 292 292 292 286 284 289 304 304 303 305 305 307 309 311
297 294 301 302 299 291 290 290 290 295 294 294 293 294 293 291 293 289 290 293 296 296 297 295 291 285 282 286 290 287 290 291 291 286 287 288 291 297 300 301 304 305 308 308 310
299 294 297 292 295 294 293 291 289 289 294 296 292 292 290 287 290 289 291 293 295 296 296 292 287 289 290 291 291 289 289 290 289 290 287 290 291 296 300 301 304 306 306 306 308
295 294 296 295 295 293 291 290 288 290 291 290 289 292 291 288 289 286 290 291 290 295 293 294 288 290 288 291 291 288 290 291 290 291 291 292 291 299 300 301 301 303 305 306 309
297 300 292 292 292 290 290 290 290 292 293 294 292 291 291 292 296 297 296 295 294 291 289 290 288 287 284 289 289 285 289 291 291 293 292 289 295 300 299 300 301 303 305 307 310

GFSSW_sfc_thetae_045.txt.gz
Theta_e
313 313 314 314 314 314 314 314 314 315 316 316 316 316 316 315 315 314 308 311 313 324 322 311 312 313 319 317 321 321 309 306 307 307 308 313 311 315 319 318 320 324 325 328 334
313 313 313 313 313 313 314 314 315 315 316 316 316 316 315 315 313 308 316 317 319 323 312 308 308 310 313 314 317 315 309 308 312 312 310 312 312 313 314 315 317 323 327 327 332
312 312 313 313 313 313 314 314 315 316 316 316 315 315 315 315 309 309 319 317 320 320 312 310 311 309 306 313 313 313 309 314 314 315 315 312 311 314 313 312 318 320 325 327 327
312 312 312 312 313 313 313 314 315 316 316 316 315 315 315 315 297 310 317 318 320 317 310 311 309 306 303 304 313 309 312 314 315 316 316 312 313 311 313 315 319 322 327 326 326
312 312 312 312 312 312 313 314 315 315 315 315 316 315 315 307 304 313 316 319 316 311 307 306 305 307 303 305 307 307 310 313 314 315 316 317 313 311 313 317 320 320 324 325 326
311 311 312 312 312 312 313 314 314 314 315 316 317 314 313 301 311 313 313 313 313 310 308 307 304 308 306 305 305 308 309 309 311 312 314 313 314 314 316 319 318 319 318 322 324
312 311 311 311 311 312 313 313 314 314 315 317 317 316 311 303 312 314 313 311 312 310 306 309 308 304 306 304 308 307 303 305 308 310 310 314 309 311 317 319 318 319 320 322 324
312 311 310 310 311 312 312 313 313 314 316 318 316 316 305 310 313 310 312 310 311 312 310 311 310 305 303 304 303 301 303 298 305 307 309 308 303 312 317 317 317 319 320 322 324
311 311 310 310 311 311 312 312 314 316 317 316 315 313 303 311 306 309 310 306 308 309 309 310 308 303 303 297 295 297 294 298 300 307 306 305 304 310 315 316 316 319 320 321 323
311 310 310 310 311 311 311 311 316 315 316 317 314 305 306 301 307 308 310 309 305 306 305 304 304 300 300 297 289 293 294 297 297 303 305 303 304 309 312 313 315 317 318 320 321
311 311 310 310 310 311 311 314 309 309 309 303 303 301 302 307 309 306 308 305 306 303 298 302 296 295 298 299 299 297 295 294 299 304 303 302 304 307 310 311 311 315 317 320 321
311 310 310 309 310 311 312 307 306 307 299 306 304 303 305 306 300 303 307 301 300 296 299 297 294 298 299 298 296 295 293 294 298 301 302 302 302 306 309 310 312 313 315 317 319
309 310 309 310 310 311 310 308 313 312 301 301 303 302 303 304 300 301 304 301 297 295 296 293 296 299 297 295 294 294 293 293 293 298 301 300 299 302 307 310 311 313 315 316 318
310 309 310 309 307 313 309 312 314 313 296 296 299 302 303 303 299 304 305 301 298 294 295 294 298 296 294 293 295 291 297 295 294 292 289 299 290 300 304 306 309 311 313 315 317
310 310 309 306 313 310 311 315 314 311 287 296 298 307 304 299 300 300 304 301 295 295 295 292 294 294 293 294 297 293 297 295 295 292 292 293 291 296 303 302 306 310 312 314 315
310 309 308 308 314 313 315 315 310 295 285 293 298 297 298 300 299 301 300 303 301 296 297 296 300 298 296 298 299 298 295 295 294 292 285 291 291 293 298 302 306 309 311 313 315
310 308 309 314 311 315 315 308 295 289 296 292 293 297 296 296 295 296 295 295 293 289 289 294 295 297 299 295 299 296 291 284 282 284 283 292 290 294 301 305 307 307 310 313 314
308 306 310 315 318 316 312 301 286 291 292 297 296 296 293 294 294 294 294 292 295 293 290 287 285 293 297 295 293 293 292 284 277 280 283 292 287 292 303 307 309 309 310 312 313
306 315 314 317 318 314 303 293 292 293 293 293 295 292 292 294 294 294 293 292 294 295 289 288 287 296 297 298 297 293 291 294 285 288 283 287 292 299 301 304 306 307 310 311 314
308 310 312 315 317 310 300 293 294 296 295 296 291 292 290 292 292 293 292 294 292 296 297 292 286 293 296 298 298 296 297 287 288 280 278 286 289 290 296 299 304 306 308 311 314
309 303 311 317 313 304 295 294 294 297 296 294 293 292 293 292 293 292 292 295 296 295 297 295 291 290 294 292 292 292 291 291 291 288 282 281 287 298 300 301 304 307 309 311 316
307 299 313 312 300 303 296 294 294 295 299 296 297 295 292 293 291 291 291 294 299 297 291 296 292 287 289 296 298 296 293 292 284 283 289 287 287 301 300 307 306 308 309 311 314
301 302 312 309 296 297 298 296 295 295 297 295 293 295 296 292 289 293 294 298 298 297 293 296 290 284 286 291 294 291 294 293 293 291 287 283 286 301 304 306 307 307 309 310 312
302 297 303 306 302 295 295 295 292 296 296 297 295 296 294 293 295 292 293 296 298 297 299 298 292 286 284 286 288 286 290 293 292 287 288 287 289 293 295 299 305 307 309 309 311
304 299 299 294 296 296 297 296 292 292 296 297 294 293 292 289 292 290 294 295 297 299 298 294 288 291 291 292 291 291 291 291 289 291 288 290 289 293 297 300 303 306 307 307 309
299 297 299 296 299 296 293 294 293 293 294 293 293 294 292 290 291 289 292 292 292 298 296 296 288 291 289 292 292 290 292 292 292 292 292 291 291 297 300 302 303 304 305 305 308
301 300 295 295 296 295 294 292 292 293 294 296 295 293 293 295 298 299 298 299 297 293 293 290 289 288 284 290 291 286 291 292 292 294 293 290 294 299 299 301 303 305 305 306 308

GFSSW_sfc_thetae_048.txt.gz
Theta_e
313 313 314 314 314 314 314 315 315 316 317 317 317 317 317 317 316 312 308 311 313 326 322 309 309 311 312 312 317 318 307 304 305 306 308 313 311 315 316 313 315 319 321 328 334
313 313 313 314 314 314 314 314 315 316 316 317 317 317 317 316 311 309 314 317 322 324 310 308 305 308 306 309 312 310 306 307 312 312 310 313 313 313 313 312 314 317 323 328 332
313 313 313 313 313 313 314 314 315 316 316 317 317 317 317 315 310 308 320 318 322 320 312 311 309 307 304 307 309 309 306 312 313 314 315 313 313 315 311 309 313 316 320 327 328
312 313 313 313 313 313 313 314 315 316 316 317 317 317 317 313 298 314 323 320 324 316 312 308 307 303 302 302 306 304 309 312 313 316 315 313 316 313 313 313 317 318 323 326 326
312 312 312 312 313 313 313 314 314 315 315 316 317 318 315 311 305 314 325 321 317 314 308 306 304 305 301 303 305 303 306 310 312 313 314 315 313 314 313 317 318 318 320 321 327
311 311 311 312 312 312 313 313 314 314 314 316 317 318 312 305 311 313 314 313 312 310 308 308 305 305 302 302 303 306 305 306 308 309 313 311 311 314 316 320 318 318 318 319 326
312 311 311 311 311 312 313 313 313 314 315 316 318 315 311 305 312 313 313 310 312 310 306 309 309 304 304 300 305 305 301 304 305 306 307 309 306 308 315 318 318 318 319 319 321
312 312 311 311 311 312 313 313 313 314 317 318 319 314 308 310 312 310 311 310 311 310 309 310 309 305 302 303 300 298 299 296 303 305 307 305 299 309 313 315 315 317 319 320 321
313 312 312 311 311 311 312 312 313 316 318 318 315 313 305 312 307 310 310 306 308 309 309 309 307 302 302 297 294 296 290 293 297 305 305 304 300 308 313 312 313 316 318 320 321
312 311 311 311 311 311 311 311 316 316 316 317 314 305 308 303 307 308 311 309 305 305 305 305 302 299 299 296 288 291 293 294 294 299 301 301 302 307 309 309 311 313 316 319 320
311 310 310 310 311 311 311 314 309 309 312 305 303 303 304 307 309 306 308 306 305 303 297 301 296 294 297 299 299 297 295 294 297 301 299 299 301 305 309 309 308 311 314 317 319
311 311 311 311 311 311 310 309 306 308 299 306 305 305 306 307 301 304 308 300 299 295 298 297 293 298 299 299 297 295 293 293 296 299 298 298 297 303 307 308 311 311 311 314 317
311 311 311 311 311 309 312 309 313 312 300 303 304 303 304 305 300 302 304 301 297 295 295 293 295 299 297 295 294 294 292 292 292 296 298 296 294 299 304 308 310 312 314 315 315
310 311 311 310 307 311 310 313 314 313 295 297 298 302 303 303 299 305 306 300 297 294 295 294 297 295 294 293 294 290 296 295 293 292 287 296 286 296 300 303 307 309 311 314 316
310 311 310 308 310 310 310 314 313 310 286 298 299 308 304 300 301 302 306 300 294 294 295 292 294 294 293 294 297 293 297 295 294 292 291 291 288 292 298 298 303 308 310 313 316
310 310 310 311 312 313 314 314 312 295 286 294 299 298 298 300 300 301 301 303 301 296 296 296 300 298 297 298 298 298 295 294 294 292 285 289 289 290 294 298 301 307 311 313 315
309 309 307 313 309 315 314 309 294 289 297 293 294 297 297 296 296 297 295 295 292 289 289 293 294 298 300 294 297 295 291 284 282 283 283 291 288 292 298 300 303 304 309 312 315
307 307 311 312 315 315 309 300 288 294 294 297 296 296 294 296 295 295 294 292 297 294 290 287 285 293 297 294 291 292 291 284 278 280 283 290 285 291 300 303 305 306 310 311 313
306 314 313 315 316 314 302 292 292 293 296 293 295 293 293 295 295 294 294 293 295 295 288 287 286 295 296 296 296 292 288 293 286 287 284 287 290 295 299 301 303 305 307 311 313
307 310 311 318 317 310 298 293 296 298 296 295 290 294 290 292 292 293 292 296 295 297 298 292 285 293 295 296 297 294 297 288 289 278 278 284 285 287 295 299 302 303 308 310 313
309 305 313 317 314 303 295 296 296 298 297 293 293 292 293 292 293 291 292 296 298 297 299 294 291 289 294 291 289 291 291 292 289 287 280 279 284 297 297 299 298 301 307 311 312
307 298 314 312 299 303 296 296 296 296 299 297 297 296 293 293 292 291 291 294 299 298 292 296 292 285 288 295 297 294 292 291 286 284 287 286 286 299 297 298 300 298 307 311 313
303 304 313 310 296 296 298 297 299 296 296 295 295 296 297 293 289 292 294 299 299 298 294 296 289 283 285 290 294 290 292 292 293 292 286 283 285 299 298 297 300 300 303 309 310
304 298 304 305 304 298 296 295 295 299 296 297 296 297 295 293 295 291 293 297 299 298 301 299 291 287 282 286 290 286 290 292 291 287 286 286 288 294 294 296 298 300 304 308 309
305 300 301 295 296 296 298 296 294 293 297 298 295 294 293 290 291 290 293 295 297 300 298 296 288 290 290 291 291 290 290 291 290 290 286 288 288 292 296 296 297 300 303 305 306
298 296 298 296 299 297 296 295 293 295 295 293 292 294 294 291 292 290 293 294 294 297 295 297 288 291 288 291 290 288 291 291 291 291 291 291 290 297 299 300 300 301 303 304 306
304 303 297 295 297 295 294 295 293 295 295 297 295 293 292 295 298 299 299 298 297 295 294 292 290 288 283 290 289 286 290 291 293 294 293 289 294 300 300 299 301 303 304 305 306

GFSSW_sfc_thetae_051.txt.gz
Theta_e
313 314 314 314 314 314 314 314 315 316 317 317 318 318 318 317 317 309 303 311 313 325 325 307 306 306 307 305 308 312 302 299 301 303 305 311 309 314 314 310 312 313 315 326 330
313 313 314 314 314 314 314 314 315 316 316 317 318 318 317 317 309 304 316 322 325 325 307 304 304 303 300 302 302 304 298 301 308 309 308 310 310 312 311 309 309 311 317 326 329
313 313 313 313 314 314 314 314 315 315 316 317 317 317 318 316 304 303 323 327 327 321 309 307 307 303 297 301 301 303 299 305 307 311 312 311 311 314 310 307 308 309 312 321 326
312 313 313 313 313 313 313 314 314 315 316 316 316 317 319 311 295 310 325 329 327 316 309 306 302 296 294 295 300 297 303 306 307 310 310 309 312 311 312 311 314 314 314 315 316
312 312 312 312 312 312 313 313 314 314 315 315 316 317 312 306 305 312 330 329 319 313 308 304 298 296 294 296 298 298 300 303 307 309 309 310 308 309 310 315 317 317 316 314 314
313 312 312 312 312 312 313 313 313 314 314 315 316 318 309 302 307 313 320 313 312 308 305 303 298 301 295 294 293 297 300 301 303 303 304 306 308 309 311 315 316 317 315 314 315
313 313 312 312 312 312 313 313 313 313 314 317 317 315 305 304 307 308 307 302 307 309 304 305 304 300 299 294 297 297 293 297 300 302 301 304 301 303 311 313 312 313 315 316 316
312 312 312 311 312 312 313 313 313 313 315 318 318 310 303 307 305 305 305 305 307 306 304 305 305 299 296 298 296 292 291 285 295 300 302 301 294 303 307 308 310 313 314 316 316
312 311 311 311 311 312 312 312 313 314 316 319 310 306 301 310 305 307 305 304 305 306 305 308 301 297 297 291 287 289 283 287 291 297 298 298 295 302 306 306 307 309 310 314 315
312 312 311 311 311 312 311 312 313 314 315 315 313 302 306 303 306 307 307 307 303 302 302 301 296 292 290 288 281 285 286 289 289 293 294 293 294 300 304 305 305 307 308 312 314
312 311 311 311 312 311 308 305 303 302 305 304 306 305 304 307 308 304 308 305 303 299 291 296 289 286 291 293 294 293 291 290 293 297 294 293 294 296 300 301 303 305 306 308 311
312 312 312 312 312 311 305 301 302 301 295 304 303 303 306 305 299 303 308 299 296 291 294 291 287 294 296 295 293 292 289 288 292 296 294 293 292 296 298 299 301 301 305 307 310
311 311 311 311 311 307 304 307 308 306 293 300 304 302 302 303 299 300 303 299 294 290 291 288 292 297 294 292 290 290 288 289 289 293 294 292 290 292 297 299 301 303 304 307 307
311 311 310 311 306 307 306 308 308 307 288 296 297 300 302 301 297 305 305 299 294 290 292 290 294 294 292 291 292 287 294 293 292 289 283 291 281 289 293 295 298 300 302 303 305
310 311 310 309 302 303 305 307 308 303 282 297 297 305 301 297 299 301 305 299 292 292 291 289 291 291 291 293 295 291 295 292 291 288 286 287 283 288 292 292 294 297 300 302 305
310 310 309 309 305 307 310 308 305 290 282 292 298 296 295 298 299 301 300 301 299 293 292 291 297 295 294 296 296 296 292 291 289 286 280 285 285 285 289 292 295 298 300 302 304
309 309 307 308 305 312 310 303 288 284 298 292 293 295 294 294 296 297 295 291 288 285 284 290 290 296 298 292 294 291 285 278 276 277 278 287 284 286 292 296 297 298 299 302 303
307 306 309 309 310 310 306 294 284 293 292 296 294 293 291 295 294 295 292 289 295 290 284 281 280 290 298 292 288 287 287 281 274 275 278 288 283 286 294 297 301 302 301 302 302
305 307 309 311 312 309 298 286 289 293 294 292 292 290 291 295 294 293 291 291 293 292 284 283 284 294 295 295 293 287 285 290 285 284 282 283 287 292 297 297 299 299 301 301 301
300 305 307 314 313 305 292 290 294 296 295 293 286 291 288 290 289 289 289 295 294 296 295 290 283 292 293 295 294 289 292 283 282 277 275 280 282 284 291 293 296 296 298 300 304
301 301 308 313 309 298 288 292 296 298 297 293 290 289 291 289 290 289 290 293 297 295 295 290 287 287 291 288 286 288 285 289 287 284 278 277 280 293 292 294 294 296 298 300 304
302 295 309 308 293 297 293 296 298 297 298 295 296 294 291 292 289 289 288 293 298 297 291 293 287 282 286 292 294 293 289 286 282 280 285 282 280 296 294 295 296 296 299 301 303
297 300 309 306 290 290 295 296 296 296 295 294 293 294 295 290 286 291 292 297 298 296 293 292 284 280 282 285 291 287 290 290 288 287 282 279 280 296 297 297 298 298 298 301 304
299 294 300 301 299 292 290 292 293 298 297 297 294 294 293 290 291 289 290 295 296 297 302 296 287 283 279 283 287 285 288 289 287 280 283 283 286 291 294 296 297 298 300 301 303
300 295 296 290 291 293 293 294 293 292 296 296 293 293 290 287 288 287 290 292 296 300 295 291 285 288 289 290 290 289 288 288 286 286 283 286 287 291 294 296 297 301 300 301 301
293 291 294 291 294 293 293 292 292 293 292 290 289 292 291 287 288 286 290 290 289 292 294 293 287 289 286 291 290 288 290 289 289 291 291 290 288 296 298 298 298 299 299 299 301
300 300 295 291 291 289 289 290 292 293 295 295 292 290 289 291 294 295 294 294 293 290 289 291 289 285 281 288 287 283 288 290 291 292 291 286 291 295 295 297 298 298 299 301 303

GFSSW_sfc_thetae_054.txt.gz
Theta_e
313 314 314 314 314 314 314 314 315 315 316 317 318 318 318 318 317 308 301 308 312 323 323 309 304 304 303 303 304 309 300 298 301 303 305 310 306 312 314 310 311 311 312 324 327
312 313 313 313 313 313 314 314 314 315 316 317 317 317 317 318 308 303 311 325 325 325 306 302 300 304 297 300 301 299 295 301 307 308 306 309 310 311 311 310 310 311 315 317 322
313 313 313 313 313 313 313 313 314 315 315 316 316 316 317 317 303 306 322 326 327 325 309 304 304 302 295 297 298 297 296 303 306 308 309 308 308 312 310 306 310 309 311 315 314
313 314 314 314 313 313 313 313 314 314 315 315 315 316 317 312 293 308 327 329 329 316 307 304 300 293 292 293 298 293 298 302 304 307 306 305 309 307 309 309 314 315 314 313 313
313 313 313 313 313 313 313 313 313 313 314 314 315 316 311 304 304 313 331 330 323 313 307 303 297 292 289 293 295 293 296 299 302 303 306 308 306 307 307 312 315 316 316 314 313
312 312 312 312 312 312 312 312 312 313 313 315 317 317 308 300 311 312 321 318 314 308 306 303 297 298 293 291 291 295 295 295 297 299 300 300 302 304 306 312 313 314 314 314 314
312 312 312 311 311 311 312 312 312 312 313 315 318 314 304 298 312 305 313 308 308 308 302 302 301 298 295 293 294 295 291 293 294 296 298 301 298 299 305 307 308 311 313 314 314
313 312 313 312 311 311 312 313 312 313 314 315 318 309 298 313 310 303 303 303 305 306 303 302 302 297 293 294 294 290 287 283 292 296 298 299 293 301 304 304 305 307 310 312 313
313 313 313 312 311 311 311 311 312 314 316 316 308 303 301 314 304 305 302 302 303 304 303 306 300 295 294 289 285 286 282 284 288 294 295 295 292 298 302 303 303 305 306 309 311
313 313 312 312 311 311 310 311 312 313 313 314 312 300 304 303 305 306 305 304 302 301 299 298 294 290 287 286 280 284 284 287 286 292 293 292 292 295 298 299 299 301 303 306 310
313 313 312 312 312 311 307 302 297 298 303 301 305 303 307 306 307 303 305 303 302 296 289 293 287 285 288 289 291 290 288 287 290 294 291 290 291 294 296 296 296 297 300 302 305
313 312 312 312 311 311 303 299 301 300 293 303 303 304 307 305 298 302 306 297 295 289 291 288 284 291 294 292 290 289 286 285 290 294 292 290 290 294 295 295 296 296 298 299 302
312 312 312 311 310 305 301 305 306 302 291 298 302 301 301 301 298 299 301 297 292 288 288 285 289 295 293 290 289 288 287 288 288 292 292 290 288 290 294 296 297 297 298 300 301
311 311 311 310 305 301 302 308 304 302 287 295 296 299 300 299 296 303 303 297 292 288 289 288 292 292 290 290 292 286 293 292 291 287 280 289 280 288 291 292 294 296 295 296 299
310 310 309 309 299 297 304 307 304 302 278 298 296 303 299 295 298 300 303 297 290 290 289 287 289 288 288 292 294 289 294 291 290 286 282 285 280 286 291 290 293 295 297 298 298
309 309 308 304 301 302 306 304 304 290 281 292 297 295 293 296 297 299 298 299 297 291 290 289 293 293 292 295 294 296 290 288 287 284 277 283 282 283 286 289 293 296 299 301 301
308 308 306 307 298 304 304 300 287 282 296 290 290 293 292 291 294 295 293 290 286 283 283 288 288 294 297 290 292 289 282 276 275 275 276 285 283 284 290 293 296 297 299 300 301
307 306 305 307 303 304 300 292 282 292 289 294 292 292 289 293 293 295 291 287 293 289 282 279 278 289 297 290 286 284 284 276 272 275 277 286 280 284 295 298 299 299 299 300 300
305 301 304 307 308 304 294 284 286 289 292 291 292 288 290 293 292 291 289 290 293 292 283 282 283 293 294 293 290 285 282 286 280 281 278 281 286 290 295 296 297 297 298 298 299
296 299 302 309 308 300 289 288 292 296 295 293 286 290 286 289 289 289 288 294 294 295 291 288 281 291 293 294 292 287 289 279 279 275 274 279 281 282 290 292 294 294 295 297 299
298 297 305 306 304 295 286 290 294 298 297 293 290 289 290 289 290 288 289 292 296 294 294 289 284 285 290 286 284 285 283 285 284 283 277 277 280 291 292 292 292 293 295 296 298
294 292 305 302 290 290 289 295 296 295 297 295 293 291 290 291 289 289 288 292 296 296 289 291 285 281 285 291 293 290 286 284 275 275 283 282 279 294 294 293 294 294 297 298 300
292 294 304 301 284 284 290 293 295 295 295 293 291 294 292 288 285 291 291 296 295 294 291 290 282 279 280 284 288 286 289 288 286 285 280 278 280 292 296 295 296 294 296 299 301
293 289 293 294 292 287 287 289 291 299 296 295 293 293 290 289 290 288 289 294 294 295 301 297 286 282 279 281 285 284 288 289 286 281 281 282 284 289 291 294 295 295 298 299 300
291 287 289 283 286 287 288 291 290 291 293 292 289 290 287 284 287 286 288 290 294 296 294 290 282 285 287 289 290 289 288 289 286 286 282 284 285 290 291 293 295 297 298 299 300
289 287 289 287 289 288 289 287 289 291 291 289 287 290 288 284 286 284 287 286 287 291 288 289 283 288 285 289 289 287 289 290 289 289 288 289 288 295 295 295 296 297 299 300 301
293 293 290 287 286 284 284 287 288 290 291 293 290 287 287 289 293 292 291 291 290 288 287 285 284 285 281 287 286 282 288 289 289 291 289 284 289 294 293 295 296 297 301 301 303

GFSSW_sfc_thetae_057.txt.gz
Theta_e
313 313 313 313 313 313 313 314 314 314 315 316 316 317 317 317 316 307 299 304 310 320 322 308 303 303 300 300 304 308 300 297 300 301 302 308 306 310 314 310 311 311 310 314 330
314 314 314 314 314 313 313 313 314 314 315 315 316 316 316 316 310 302 310 317 322 324 303 300 297 301 294 296 300 300 295 300 307 307 305 308 307 308 308 308 309 310 315 315 324
313 313 314 313 313 313 313 313 313 314 314 315 315 315 316 315 303 303 321 321 328 323 307 302 301 299 291 294 296 296 295 303 305 306 307 306 306 309 306 304 307 307 311 314 313
313 313 313 313 313 312 312 313 313 313 314 314 315 315 317 311 291 307 327 325 326 318 306 302 298 292 289 290 295 291 297 300 301 304 304 303 306 305 306 306 311 311 313 312 312
311 312 312 312 312 312 312 311 312 313 313 313 315 317 309 302 304 314 331 327 320 311 304 301 295 291 287 290 292 291 294 297 299 299 300 304 303 304 305 309 312 312 313 312 312
313 313 313 313 312 311 311 311 311 312 312 313 315 317 305 294 311 314 318 317 317 308 305 302 297 296 291 290 289 292 293 295 296 296 297 298 299 301 303 307 306 307 307 312 312
312 314 313 312 311 311 311 311 310 312 313 314 316 314 302 294 309 309 315 310 308 308 303 302 299 296 294 291 292 293 289 292 294 295 296 300 296 297 304 305 305 306 307 310 312
312 312 313 312 312 311 311 311 311 312 314 314 317 308 295 308 309 305 304 305 304 308 305 303 300 295 292 292 292 288 286 282 290 295 296 297 291 299 301 301 302 304 305 307 308
312 313 312 312 312 312 311 312 312 313 315 315 307 301 299 314 303 305 302 300 302 302 301 305 298 294 293 287 284 285 280 282 287 293 293 293 289 295 299 298 298 299 301 303 305
312 312 311 311 311 311 311 311 311 312 313 314 311 300 301 302 304 304 302 302 300 299 297 296 291 288 286 284 279 282 282 285 285 291 292 290 290 294 297 297 297 298 299 300 302
312 312 311 311 311 311 306 300 295 294 302 297 302 301 306 309 306 301 303 301 300 295 287 291 286 284 287 288 289 288 286 285 288 292 289 288 290 293 294 294 294 295 297 299 300
310 311 311 311 311 311 302 299 300 298 292 300 300 303 307 306 298 300 303 295 294 287 289 287 283 289 291 290 289 287 284 285 288 293 291 289 289 292 293 293 294 295 296 297 299
310 310 310 310 310 302 298 301 306 299 290 296 300 299 300 301 297 297 300 296 291 286 286 284 288 293 291 289 289 287 286 286 287 291 291 288 287 289 292 294 295 296 296 297 297
309 309 309 309 301 299 300 305 303 300 287 295 295 299 299 297 294 302 302 297 290 287 287 286 290 291 288 289 290 284 292 291 289 286 279 288 278 285 289 291 292 294 294 295 296
309 309 309 308 298 299 303 303 302 301 277 297 295 301 296 294 296 298 301 295 289 289 288 286 287 287 286 289 292 287 293 289 289 284 281 283 278 283 289 288 290 292 295 298 300
308 309 308 304 299 303 304 302 302 287 280 291 295 294 293 294 295 297 296 297 295 289 288 288 291 290 291 293 293 293 288 286 284 282 275 281 280 280 283 286 289 294 298 300 300
308 308 305 305 298 301 302 299 286 280 292 288 289 292 291 291 293 294 292 289 285 281 281 286 286 292 295 289 290 287 281 275 273 273 275 283 281 283 289 293 295 295 297 299 299
307 306 305 306 301 302 298 291 281 289 287 292 291 291 289 292 292 293 290 287 293 287 281 278 278 288 296 289 285 284 282 275 271 273 276 283 277 283 293 297 297 298 298 299 298
305 300 302 306 306 301 293 283 284 288 292 290 290 287 289 292 291 291 290 290 291 290 283 281 282 292 293 292 289 284 281 284 278 278 274 278 283 289 293 294 296 295 296 296 296
296 298 301 307 304 298 289 288 290 295 294 292 284 289 284 288 289 289 289 294 292 294 291 287 281 289 292 292 291 286 288 277 277 273 272 277 279 281 287 290 294 294 294 295 296
297 296 303 303 303 295 285 288 293 297 296 291 288 287 287 287 288 288 289 293 295 294 292 288 284 284 289 286 283 283 281 283 280 278 271 271 278 288 289 292 293 294 295 295 295
293 291 303 301 290 287 286 291 296 294 297 294 292 290 288 289 287 288 288 292 295 294 288 290 284 280 284 290 291 287 284 283 273 273 281 277 279 291 292 292 293 294 296 297 297
292 292 302 299 282 283 287 291 293 294 294 292 290 291 290 286 283 289 291 296 294 292 290 289 282 278 279 282 286 284 287 286 285 281 279 277 279 291 292 293 294 294 296 297 298
292 286 290 292 289 285 285 288 290 296 294 293 291 291 288 286 288 286 289 293 293 293 299 296 284 282 278 281 282 283 286 288 287 281 281 281 283 288 290 291 293 295 296 296 298
289 285 287 281 284 285 286 288 287 288 292 291 288 288 286 282 284 285 288 289 292 294 291 288 281 284 286 288 288 287 287 288 286 287 283 284 284 288 290 291 293 296 297 298 302
288 286 287 285 287 286 285 284 286 289 288 287 285 288 287 283 284 283 286 284 285 288 286 287 280 285 284 287 287 285 287 288 288 288 288 288 286 292 294 294 294 294 296 297 302
291 291 289 285 284 283 282 285 286 288 290 292 288 286 286 288 291 291 292 291 289 286 284 284 281 280 279 286 285 281 286 288 289 291 290 284 289 293 292 292 293 294 295 296 300

GFSSW_sfc_thetae_060.txt.gz
Theta_e
314 314 314 314 313 313 313 313 313 314 314 315 316 316 316 316 315 306 299 303 309 317 321 306 300 300 299 297 301 308 300 296 299 300 302 307 305 308 313 310 309 310 310 312 331
313 313 313 313 313 313 312 312 313 314 314 314 315 315 316 315 309 304 311 315 318 321 301 298 295 299 292 294 298 298 293 298 306 306 304 307 306 307 306 306 306 308 312 314 317
312 312 312 312 313 312 312 312 312 313 314 314 314 315 315 314 301 300 320 320 320 321 305 301 299 298 290 292 294 292 292 301 304 306 305 304 304 307 304 302 306 305 308 311 313
313 314 314 314 313 312 312 312 312 312 313 313 314 314 315 309 288 303 327 324 325 315 303 300 296 291 288 289 293 289 294 299 301 303 301 301 303 302 303 303 308 309 310 310 311
313 313 313 313 313 312 312 312 311 311 311 313 313 314 308 299 302 313 329 324 316 307 302 299 294 291 287 288 290 289 291 294 297 298 298 300 299 299 301 305 308 308 308 308 310
313 313 312 313 312 312 312 311 310 310 311 313 313 316 303 290 306 311 316 317 315 306 303 301 296 295 290 289 288 291 291 292 294 296 297 297 298 299 301 305 305 306 305 305 308
312 313 312 312 312 312 311 311 310 310 312 313 315 314 300 292 306 307 313 308 312 308 302 303 300 294 293 289 291 291 287 290 292 294 295 297 294 296 301 304 303 303 304 305 307
312 311 312 312 311 311 311 312 311 312 313 314 315 307 295 304 307 308 306 304 307 307 305 302 299 293 291 291 291 286 285 281 287 292 294 296 289 297 299 299 299 301 301 302 303
311 310 310 311 311 312 311 311 312 313 314 315 306 298 298 312 306 303 301 299 299 301 302 306 297 292 291 286 283 284 278 281 287 291 291 291 288 295 298 298 298 299 301 301 301
311 310 310 310 310 311 310 311 310 313 314 313 311 297 300 301 305 303 301 301 298 297 296 295 290 287 285 283 278 281 281 283 284 289 291 288 288 293 296 296 296 297 298 300 301
310 310 310 310 311 311 306 298 295 293 302 294 299 298 302 307 306 299 302 299 298 294 286 289 286 283 286 287 287 286 284 284 286 290 289 288 289 291 295 294 293 295 296 298 301
309 309 309 310 310 310 300 299 299 298 291 299 298 302 305 305 298 301 301 294 292 286 288 286 282 288 290 289 288 286 283 283 288 291 289 288 288 291 293 293 294 294 295 296 298
309 308 309 309 310 301 298 301 303 298 289 294 299 298 298 301 296 296 298 294 290 285 284 283 287 292 290 289 288 285 284 285 286 289 289 287 283 286 291 293 294 295 295 296 296
308 307 308 308 300 299 299 303 302 298 286 293 295 298 298 297 294 301 300 296 289 285 286 285 289 289 287 287 289 282 290 290 287 284 278 286 276 282 287 288 291 292 292 294 297
307 308 308 307 297 298 302 302 300 299 276 295 293 299 296 294 295 297 299 294 289 288 286 285 286 285 285 287 291 285 291 288 287 282 280 281 277 281 286 285 288 291 293 297 299
308 308 308 303 298 301 302 301 300 286 278 289 293 292 290 292 293 296 296 297 294 288 287 287 290 288 288 292 291 291 287 284 281 280 274 279 279 277 282 286 289 293 296 297 299
308 308 305 303 296 299 300 298 286 279 291 287 287 290 288 290 292 293 291 289 286 283 282 286 285 291 293 287 288 285 280 274 273 273 273 281 279 280 287 290 291 294 296 297 297
307 305 305 304 301 302 297 290 280 288 286 291 290 289 287 290 290 292 290 286 292 287 282 281 279 288 294 287 284 282 281 274 271 272 273 281 276 280 289 292 295 297 297 298 298
305 300 301 304 305 299 293 283 283 287 292 290 289 285 286 290 290 289 289 289 292 291 284 283 283 291 292 291 289 282 280 282 277 276 272 277 281 287 291 291 293 295 296 295 297
296 298 300 303 301 297 289 287 288 294 293 292 283 287 283 286 286 285 288 293 292 294 292 287 281 290 292 291 289 285 287 277 276 272 272 275 277 279 285 288 290 292 293 295 296
296 296 301 302 301 294 284 287 292 296 295 291 287 286 286 286 286 285 287 292 295 293 293 289 286 285 289 286 283 282 281 282 279 275 270 270 276 285 286 289 289 290 293 295 296
293 290 301 300 290 285 285 290 295 293 296 293 290 288 287 288 286 286 286 291 296 296 288 291 286 282 284 289 290 286 283 282 274 273 281 278 279 290 290 288 291 291 294 297 298
290 291 300 298 282 283 287 290 292 292 293 291 289 290 289 285 283 287 289 294 293 292 291 291 283 279 280 282 285 284 286 284 282 280 279 277 279 290 291 291 293 292 294 296 298
289 285 288 289 287 285 284 286 288 294 292 291 289 289 287 284 286 285 286 292 293 293 297 295 285 283 277 279 281 281 285 286 285 281 280 281 283 288 290 290 291 293 295 295 296
288 283 286 280 282 283 284 286 286 287 290 290 287 286 284 281 283 284 286 288 292 293 290 289 283 284 285 287 287 286 286 286 284 285 281 284 284 288 291 291 292 294 294 295 296
286 284 286 283 285 284 284 283 285 287 287 286 284 286 285 281 284 283 284 285 285 288 287 286 280 283 282 287 287 284 286 286 286 287 286 286 285 293 294 294 293 293 294 295 296
290 289 288 284 282 282 281 284 285 286 288 290 287 285 284 286 288 289 289 290 288 285 284 285 282 281 279 284 284 280 285 286 287 289 288 283 289 291 291 293 293 294 295 295 296

GFSSW_sfc_thetae_066.txt.gz
Theta_e
316 316 315 316 315 315 314 314 313 313 314 314 315 315 316 316 316 317 311 313 314 322 317 311 311 310 310 310 314 316 307 304 306 306 309 314 311 315 317 315 317 318 319 321 323
315 315 315 315 315 315 315 314 313 313 313 313 315 315 315 315 316 313 319 315 320 321 310 305 305 308 307 307 310 309 305 306 311 312 311 314 313 313 311 312 314 317 320 321 321
314 315 315 315 315 314 314 314 314 313 313 313 313 314 314 316 313 307 323 321 319 322 311 309 307 307 304 307 307 308 303 308 310 313 315 313 313 315 311 308 312 313 316 318 319
314 314 314 314 314 314 314 313 313 313 312 312 312 314 315 317 299 314 326 322 322 318 309 307 305 303 302 301 307 302 306 308 309 312 312 311 314 312 312 312 313 313 314 316 317
313 313 312 312 313 313 313 313 313 312 311 311 311 314 315 309 307 320 326 324 319 312 309 305 303 303 300 301 303 302 304 305 308 309 310 312 310 310 311 313 311 312 313 314 316
312 312 311 311 311 312 312 313 311 311 311 311 312 313 312 298 316 318 320 318 314 311 310 309 305 305 302 301 301 303 303 304 305 305 307 304 306 307 309 310 309 314 315 313 313
312 311 311 311 311 311 312 312 311 311 311 312 313 314 307 301 315 319 320 316 315 313 307 309 309 304 304 301 304 303 299 301 302 303 303 306 301 302 309 309 309 310 316 315 313
311 311 310 311 311 311 312 312 311 311 312 313 314 315 303 310 314 314 316 314 315 315 312 311 310 306 303 304 301 298 299 295 302 303 303 303 297 304 307 306 307 308 311 312 312
311 310 310 310 311 311 311 312 313 313 314 314 314 311 302 317 311 312 315 307 309 311 311 309 308 303 302 298 296 298 292 295 297 301 301 300 298 305 305 305 304 305 308 310 310
309 309 309 310 310 311 311 311 316 316 315 316 315 307 308 305 311 311 312 309 306 305 304 304 303 299 299 297 290 293 293 294 295 300 300 299 299 303 304 304 304 304 306 308 310
309 310 309 309 310 311 313 315 310 309 311 305 303 305 305 310 312 308 309 307 306 303 298 301 296 294 297 299 298 296 295 294 296 299 298 298 299 301 304 304 303 305 305 305 309
309 309 310 310 310 311 313 309 307 309 302 307 306 306 308 309 302 306 310 302 301 297 299 297 293 298 298 298 296 296 294 294 296 299 298 298 297 301 303 303 304 305 305 306 307
309 309 310 310 310 312 313 309 314 311 303 303 305 304 305 307 302 303 306 303 300 297 297 294 296 298 296 296 294 295 294 294 294 297 298 296 295 298 300 302 303 305 305 305 305
309 310 310 310 308 316 311 314 315 312 299 298 301 304 305 306 300 307 307 303 300 296 297 296 298 295 295 294 296 292 297 295 294 293 289 296 288 295 298 299 301 304 305 306 308
308 310 310 307 315 312 312 316 315 310 288 299 300 309 305 301 301 302 308 304 298 298 296 294 294 294 294 295 296 294 297 295 294 292 292 292 289 294 297 296 299 301 303 306 308
309 309 309 313 316 313 316 316 313 298 287 295 299 298 298 300 300 302 302 305 303 299 299 297 301 297 296 298 298 298 296 295 295 293 286 291 290 292 294 297 299 301 301 303 307
307 308 310 312 310 317 317 311 297 291 297 293 294 297 297 297 298 299 298 298 295 292 292 296 296 298 298 295 298 297 293 286 286 286 285 292 288 292 296 298 299 299 302 305 308
306 306 311 316 318 318 313 303 290 294 294 297 297 297 295 298 298 298 297 295 299 297 293 290 287 295 299 296 293 294 293 287 281 283 286 292 286 292 298 301 300 302 305 306 306
305 316 317 319 316 316 306 294 293 295 296 295 297 294 294 295 295 295 296 295 297 298 292 291 290 297 298 298 297 293 289 295 289 290 286 289 292 297 299 299 300 302 304 304 306
311 314 314 314 316 312 302 293 296 299 298 297 291 294 291 293 292 294 293 296 296 299 300 294 289 295 297 299 297 294 297 288 289 281 280 287 288 291 294 296 298 300 301 304 306
313 307 313 313 315 306 296 296 298 301 300 296 294 293 294 293 294 293 293 296 298 296 300 297 292 291 295 293 292 292 290 292 292 290 284 282 288 298 297 298 299 300 302 305 306
308 300 313 314 300 303 296 296 295 296 299 297 298 296 294 294 293 293 292 294 299 299 294 298 293 288 290 296 298 296 292 292 287 285 289 288 287 300 300 300 301 302 304 306 307
300 302 312 310 296 294 296 294 294 293 296 296 295 297 297 294 291 293 294 298 298 297 294 297 292 286 287 292 295 292 293 294 294 292 287 285 289 299 301 301 303 303 305 306 307
299 296 301 305 300 293 291 291 291 297 296 297 296 297 295 293 296 292 292 295 297 297 297 297 294 289 284 287 291 289 291 293 291 286 288 289 291 296 299 300 302 303 305 306 307
299 297 297 293 295 293 293 291 289 290 295 296 294 294 292 289 291 291 293 294 295 297 296 295 289 290 291 291 291 290 290 291 289 290 287 290 291 296 299 300 302 304 305 305 305
296 294 298 294 294 292 291 290 290 290 291 289 290 292 293 290 291 289 292 292 291 295 294 297 289 291 288 291 290 289 291 292 292 292 293 293 292 300 302 303 303 303 304 304 305
300 300 297 295 292 291 291 289 289 291 292 293 293 293 291 291 294 296 296 296 295 293 291 291 290 286 284 289 289 285 290 292 293 294 294 290 296 300 300 300 301 303 305 304 305

GFSSW_sfc_thetae_069.txt.gz
Theta_e
316 316 316 316 316 316 316 315 315 314 314 315 315 316 316 316 316 317 315 316 316 322 319 312 314 313 314 314 316 317 307 304 307 307 310 316 314 316 318 314 318 319 320 323 324
315 315 316 316 316 316 315 315 314 314 314 314 314 315 315 315 316 316 321 321 319 321 311 308 307 311 310 311 313 310 305 305 311 313 312 314 315 316 314 313 313 317 322 324 324
314 314 314 314 315 315 315 315 315 314 314 314 314 314 315 316 315 311 324 320 322 321 316 311 309 309 307 311 310 309 304 309 310 313 314 314 314 317 315 312 313 313 318 321 321
314 314 313 313 313 313 313 314 314 314 313 313 313 313 315 317 304 316 325 322 321 320 313 309 307 305 305 305 310 306 309 310 311 312 311 311 315 314 315 316 319 316 320 319 319
314 313 312 312 313 313 313 313 313 312 312 312 312 313 316 311 311 322 325 323 321 316 311 307 305 305 302 305 307 306 307 309 311 310 311 312 312 313 314 318 320 319 316 318 318
311 311 311 312 312 312 312 313 312 312 311 312 313 314 314 303 318 322 319 318 316 313 311 311 308 308 305 304 304 306 306 306 308 309 309 308 309 311 313 318 318 315 315 318 320
312 311 311 311 312 312 312 313 313 312 312 312 314 315 310 306 315 319 318 315 315 313 309 311 311 306 307 303 307 305 302 304 305 307 306 308 304 305 311 313 313 313 314 317 321
311 311 311 311 312 312 312 312 313 313 312 313 314 317 307 312 316 315 316 314 315 315 313 313 312 308 306 308 304 301 302 297 304 305 306 305 298 306 310 310 310 311 313 315 320
311 311 311 311 311 312 312 312 315 314 314 315 316 315 307 314 308 314 315 310 311 312 312 311 309 306 306 300 298 300 295 297 299 305 305 304 300 306 310 310 309 310 312 313 317
310 311 311 310 311 311 312 313 314 314 316 317 317 309 311 306 310 312 314 312 307 308 306 306 305 301 302 298 292 295 297 298 297 302 303 301 301 305 308 308 308 309 310 311 315
310 311 311 311 311 312 313 318 314 314 314 309 308 308 308 312 314 311 312 309 308 306 300 305 299 296 299 301 301 299 297 297 301 302 300 300 301 304 307 308 307 308 309 310 313
310 310 311 311 311 312 314 312 310 312 304 311 309 308 310 311 305 308 312 304 303 299 302 300 296 300 301 301 299 298 296 296 300 302 300 300 299 303 305 306 307 308 309 309 311
309 310 312 312 312 313 315 312 317 316 305 307 307 306 307 309 305 305 309 306 301 299 300 297 300 302 300 298 296 297 295 296 296 300 301 299 297 300 303 306 307 308 309 310 310
309 310 311 312 308 318 314 317 317 317 301 302 303 306 306 308 303 310 310 306 302 299 300 300 302 299 297 296 298 294 300 298 296 295 291 300 290 299 301 302 304 306 307 309 310
309 309 311 309 318 313 315 318 317 315 292 302 303 311 308 304 304 305 310 306 299 300 301 297 298 297 296 296 299 296 300 298 298 296 295 295 292 296 301 300 301 304 306 309 311
308 309 310 315 319 316 318 317 315 300 290 299 303 301 301 303 303 305 305 307 306 301 301 300 304 301 299 300 300 300 298 297 297 295 288 293 292 293 297 299 302 304 306 307 308
308 308 309 317 313 320 320 312 299 293 301 297 298 300 300 300 301 302 301 300 297 294 294 298 299 302 302 297 300 298 293 286 286 287 287 296 293 295 299 301 303 304 304 306 308
306 306 312 318 320 320 316 305 293 297 297 301 299 300 297 300 300 301 299 298 301 299 295 291 289 298 302 298 295 296 295 287 281 284 287 294 289 295 302 304 303 304 305 307 308
304 318 319 322 320 318 309 297 297 299 299 297 298 296 297 299 298 299 298 297 300 300 292 293 292 299 301 301 299 295 292 298 290 292 287 291 296 300 301 301 302 302 305 307 308
312 315 317 320 321 314 304 297 299 302 301 299 294 297 294 297 296 297 296 299 298 300 303 297 290 298 298 301 300 298 299 291 292 283 281 287 290 290 297 299 301 302 304 307 308
313 309 317 322 318 307 298 300 300 302 301 298 296 295 297 296 297 296 296 298 299 299 301 299 295 294 297 296 294 294 293 294 294 290 285 284 288 299 298 300 301 303 304 306 307
311 303 317 317 303 306 299 299 297 298 300 298 298 297 297 297 295 295 294 296 300 301 295 298 295 289 291 298 301 298 292 294 287 288 291 289 289 300 301 303 303 303 305 307 309
305 305 315 310 299 299 300 298 298 296 297 298 297 299 300 296 293 295 296 300 301 298 296 300 293 287 289 294 298 295 296 296 295 295 289 286 290 301 302 303 303 304 306 307 309
304 300 306 306 304 298 297 296 294 298 297 298 298 299 297 295 298 294 295 297 299 299 300 298 294 290 285 289 291 287 293 295 293 289 289 290 291 296 298 299 303 304 306 307 308
306 302 302 297 299 299 298 297 294 293 298 299 295 296 295 292 293 293 295 296 298 301 298 297 289 291 292 293 293 291 291 292 291 293 288 291 291 295 298 301 303 305 306 306 306
299 299 302 299 301 298 297 296 294 294 295 293 293 294 295 293 294 291 294 295 294 298 296 298 290 291 289 293 293 291 293 293 293 293 293 292 291 299 301 303 303 304 306 306 306
303 303 300 299 300 297 296 294 293 294 294 295 294 294 294 296 297 298 299 298 297 295 294 295 293 289 286 291 291 288 292 293 294 295 294 289 294 299 299 301 303 304 306 306 307

GFSSW_sfc_thetae_072.txt.gz
Theta_e
316 316 316 316 316 316 316 315 315 315 315 316 316 316 316 317 317 315 313 320 319 322 318 309 313 313 313 310 313 313 304 302 303 305 308 314 313 316 317 313 316 319 319 322 325
315 315 315 314 314 314 314 315 315 315 315 315 315 315 315 316 312 312 323 326 323 319 307 305 304 310 307 308 309 307 303 302 308 309 309 312 313 315 314 313 313 317 321 323 323
314 314 315 314 313 313 313 314 315 315 315 315 315 314 314 315 312 313 326 325 323 317 316 314 310 307 305 308 307 307 303 307 308 310 311 310 311 315 313 311 314 313 318 321 321
312 312 312 312 313 313 313 313 313 314 315 314 314 314 314 314 304 313 327 324 322 317 317 310 307 303 302 303 308 303 307 308 309 310 310 308 311 310 313 315 319 319 319 319 319
312 313 312 312 312 312 313 313 313 313 313 313 313 314 314 311 310 318 328 322 315 317 313 308 305 304 300 304 306 304 306 308 310 310 310 311 308 309 310 316 320 320 319 318 318
311 312 311 312 312 312 312 312 313 313 313 313 313 314 311 303 320 318 317 317 319 313 313 311 308 309 304 303 303 305 305 306 308 308 308 307 307 308 311 315 316 318 319 317 318
312 311 311 311 311 312 312 312 312 313 314 314 314 314 308 307 314 320 317 315 316 313 310 312 311 307 307 303 306 305 301 303 304 306 305 307 303 304 310 313 313 314 317 317 318
312 311 311 311 312 312 312 313 313 314 314 314 315 314 306 316 316 315 318 315 316 315 313 313 312 308 305 307 304 301 301 296 302 304 305 304 298 305 310 309 309 310 312 314 317
312 312 311 311 311 312 313 313 314 317 315 315 312 312 307 315 308 312 314 311 312 313 313 312 309 304 304 300 297 298 293 296 298 304 303 303 299 305 308 308 309 310 311 312 314
311 311 311 312 312 312 313 312 316 314 314 315 314 309 312 308 311 310 314 313 309 308 306 306 304 300 300 297 290 294 295 297 296 302 303 301 300 304 307 307 308 309 310 311 312
310 311 312 312 312 312 312 317 313 312 316 309 311 308 310 313 314 311 312 310 308 305 299 304 298 296 299 300 300 299 297 296 299 303 301 300 300 302 306 307 306 308 310 311 313
310 310 311 312 313 313 311 313 311 312 304 311 312 310 311 312 305 308 312 304 303 298 302 299 295 301 302 301 298 298 296 296 299 302 301 300 299 302 304 305 307 308 309 310 312
310 310 311 312 312 311 315 313 317 316 305 307 311 307 308 309 304 306 309 306 301 299 299 297 299 303 301 298 297 297 295 295 295 299 301 299 296 299 303 305 307 309 311 312 312
309 310 310 311 309 317 314 318 317 318 299 304 304 306 307 308 303 310 311 306 303 298 299 299 303 300 299 297 298 293 299 298 296 294 290 299 289 298 302 303 305 307 308 309 310
309 309 310 309 314 313 315 317 317 315 291 304 304 312 308 304 305 306 311 307 299 299 300 297 299 298 297 297 299 295 300 297 297 294 294 294 290 294 300 299 302 305 306 309 310
308 308 309 314 316 319 319 318 314 300 291 300 304 301 301 303 303 306 305 308 306 300 301 299 304 301 300 301 300 301 297 297 296 293 286 292 291 292 296 299 302 306 306 307 309
308 307 307 315 312 319 319 313 299 293 304 299 298 301 300 299 301 303 301 300 297 293 294 298 299 303 303 297 300 298 294 286 285 285 284 294 290 295 300 303 304 304 305 308 309
306 305 309 315 319 320 316 304 292 298 300 304 301 300 297 300 300 301 300 297 301 299 294 291 289 299 301 298 296 296 294 287 280 282 285 294 288 294 302 304 304 306 307 307 307
304 318 315 320 321 318 307 296 296 300 302 299 299 295 296 300 300 299 298 297 300 301 294 291 291 301 300 301 300 295 290 297 290 292 287 290 293 299 303 303 303 303 304 305 307
305 315 316 323 321 314 302 296 300 304 303 301 294 296 293 296 296 297 297 300 299 301 302 297 290 297 298 301 300 296 298 288 290 281 280 287 289 290 297 299 302 302 302 305 309
308 310 318 320 318 306 297 300 303 305 302 296 295 294 295 294 295 295 296 299 301 300 301 299 295 293 296 293 293 293 292 294 294 292 283 282 287 298 298 301 301 302 304 306 308
307 304 318 315 301 305 301 302 300 300 302 298 298 296 295 296 295 295 295 297 301 301 295 298 294 289 290 297 299 298 294 294 285 286 290 288 287 301 301 302 304 303 304 306 307
300 306 317 313 298 299 301 300 301 299 298 297 297 299 299 295 292 295 296 300 301 299 297 298 292 285 287 294 296 290 292 292 291 292 284 283 288 301 301 302 303 303 305 306 308
303 299 307 308 306 300 298 297 297 302 299 298 297 299 297 295 297 294 295 298 300 300 301 298 292 288 284 287 292 288 290 292 289 287 288 289 291 295 299 299 301 303 305 306 307
306 302 304 297 299 300 300 299 296 295 299 300 296 296 294 291 292 292 295 296 299 302 299 297 289 291 291 292 292 291 291 291 291 292 288 290 291 295 299 299 302 304 304 303 304
301 298 301 299 302 300 298 297 296 296 296 293 292 294 295 291 293 291 294 294 293 297 296 299 290 292 289 292 292 290 292 293 292 292 292 292 292 299 302 302 301 303 304 303 306
305 304 300 298 299 296 297 297 296 296 296 296 295 293 293 294 297 298 298 298 297 295 294 294 291 289 285 291 290 286 292 293 294 295 293 289 294 300 299 300 301 303 305 305 307

GFSSW_sfc_thetae_075.txt.gz
Theta_e
315 315 315 314 314 314 314 314 314 314 316 315 316 316 316 316 316 310 306 317 317 327 322 307 305 306 307 303 307 306 295 294 298 301 303 309 307 311 311 309 313 316 316 319 321
314 313 313 314 313 313 313 313 314 315 315 316 316 316 315 315 309 306 318 329 327 325 307 303 299 302 300 301 302 300 296 297 303 305 303 306 307 308 309 308 309 313 319 322 319
312 312 313 313 313 313 312 313 313 314 315 315 315 315 314 313 306 310 331 327 326 320 305 308 305 301 296 300 299 300 296 301 304 306 308 306 306 309 307 305 308 309 314 318 316
313 313 312 313 313 312 312 313 314 314 314 314 314 314 315 309 298 308 330 328 326 313 310 311 304 295 292 292 299 296 301 303 304 307 306 305 307 306 306 310 314 314 315 315 314
312 312 312 312 312 312 312 312 313 313 314 313 314 314 310 304 306 320 330 325 312 311 311 309 299 296 292 295 297 296 299 303 305 306 306 307 305 305 306 309 314 316 316 314 313
311 311 311 312 312 312 311 312 312 312 313 314 314 314 307 296 313 319 316 313 313 310 311 308 302 302 297 296 294 298 299 299 301 302 303 302 303 304 307 309 309 313 314 314 313
311 312 312 312 311 312 312 311 312 312 313 314 314 312 304 301 314 315 313 310 313 314 307 307 307 302 301 296 300 299 295 298 299 299 298 301 298 299 305 308 306 307 312 315 314
312 311 312 312 312 312 313 314 313 314 314 315 314 309 301 312 311 308 312 312 313 312 309 309 308 302 298 300 299 294 293 288 295 299 301 297 292 301 304 304 304 306 307 309 312
312 312 311 312 313 313 313 313 314 317 317 315 308 305 302 314 307 309 309 309 311 311 309 311 304 298 298 292 289 290 286 289 293 300 299 297 294 301 304 304 302 304 305 306 306
312 311 311 312 313 313 313 313 314 314 313 313 310 302 309 308 311 310 308 310 307 307 304 302 297 293 291 288 283 287 288 291 291 296 298 296 296 300 302 303 302 302 303 305 306
311 311 311 312 312 313 310 309 306 305 309 305 307 306 310 314 314 307 310 308 307 302 293 298 291 288 292 295 295 294 293 292 295 299 296 295 296 298 300 300 299 299 302 303 306
310 310 311 312 312 313 308 306 307 306 299 310 311 311 314 312 305 308 311 302 300 294 297 293 289 296 299 299 297 294 291 290 295 298 296 295 294 297 300 299 299 300 301 303 304
310 310 310 311 311 307 306 312 314 311 299 305 309 307 308 306 303 304 307 303 298 294 294 291 295 301 299 297 295 293 291 291 291 296 296 294 291 294 298 300 301 302 302 304 304
309 310 310 309 308 310 308 316 311 313 293 300 304 305 305 304 301 308 309 303 298 294 296 294 298 298 296 295 296 290 296 295 294 291 285 293 283 291 296 297 299 301 302 301 304
309 309 309 308 304 305 310 312 310 308 284 303 303 308 305 301 303 304 309 304 296 296 296 293 295 294 294 295 298 293 297 294 294 289 286 289 285 289 294 294 296 299 302 303 303
309 309 308 308 307 309 314 313 308 293 286 299 302 300 299 301 301 303 304 304 303 297 297 295 300 298 297 301 300 301 297 292 290 286 280 287 286 287 290 293 296 301 302 303 302
308 307 305 307 306 313 313 307 291 287 304 298 298 300 297 297 299 300 298 296 291 288 289 294 296 299 302 296 300 297 292 282 278 278 279 289 287 288 295 299 300 300 303 301 305
306 306 307 306 310 312 309 298 285 296 298 304 300 299 294 296 296 298 296 293 297 295 291 289 286 296 302 297 292 292 291 283 276 275 280 290 285 289 299 302 303 303 301 303 300
305 309 310 313 310 312 301 289 291 297 301 298 298 294 293 297 296 296 295 295 297 298 289 287 289 299 300 300 296 292 289 294 286 287 283 285 290 295 299 300 303 302 301 299 298
300 304 312 318 319 309 296 292 295 302 301 298 291 294 290 292 292 293 293 298 297 299 297 293 286 296 298 300 298 293 295 286 286 278 277 283 285 286 294 297 299 300 300 300 301
301 304 315 317 315 302 291 295 300 303 301 297 293 291 291 290 292 291 294 297 299 297 296 293 290 290 294 291 289 288 287 290 289 286 281 278 282 295 294 296 298 300 301 300 301
298 296 315 314 298 299 296 302 299 299 302 298 297 294 292 294 292 292 292 295 300 298 291 295 290 284 289 295 296 294 289 290 282 283 285 284 283 297 296 296 299 300 302 303 300
295 299 313 309 293 294 298 299 300 298 298 297 295 296 296 293 288 293 294 300 299 297 295 295 286 279 282 286 292 289 291 290 289 288 283 281 281 298 299 300 299 298 301 303 304
296 296 302 304 302 297 295 296 296 301 299 299 296 297 294 291 293 291 291 296 298 298 305 297 287 283 278 283 287 287 290 291 288 281 282 285 286 291 297 296 298 299 301 303 303
301 297 300 293 294 295 297 297 295 295 297 297 294 293 290 286 289 288 292 294 297 301 296 291 284 287 289 291 290 289 289 289 288 288 284 287 288 291 294 296 297 300 301 301 302
298 295 296 293 297 295 296 294 294 295 295 292 290 293 292 288 289 287 290 290 289 293 291 291 284 288 286 290 290 288 290 291 291 291 290 290 289 296 298 298 297 299 302 301 301
301 302 297 294 294 293 293 293 294 295 295 295 292 290 289 292 294 292 292 292 291 289 287 287 285 283 280 288 288 282 287 291 290 292 291 285 289 296 295 297 297 297 302 302 302

GFSSW_sfc_thetae_078.txt.gz
Theta_e
313 313 313 313 314 313 313 313 313 314 314 315 315 316 316 316 314 308 302 311 315 325 323 310 304 303 303 300 303 302 291 290 294 297 300 307 303 309 311 307 314 316 314 317 317
313 313 313 313 313 313 313 313 313 313 314 314 315 315 315 315 307 304 313 326 331 330 307 304 299 299 297 299 300 297 290 294 299 301 300 304 305 306 306 306 307 310 317 318 317
312 312 313 312 312 312 312 312 313 314 314 314 314 314 314 313 303 308 328 327 330 324 303 302 301 298 293 296 297 296 294 298 300 303 303 303 305 307 304 301 306 307 312 315 314
312 312 312 312 312 312 312 312 313 313 313 313 313 314 314 308 296 306 333 330 328 310 307 308 304 294 290 291 295 292 298 300 301 303 303 302 306 305 304 305 311 311 313 314 312
312 312 312 312 312 312 312 312 312 312 312 312 313 314 308 300 304 316 332 328 317 309 307 305 299 292 290 292 294 291 295 300 302 302 302 304 303 303 304 307 310 310 313 312 312
312 312 312 312 312 312 312 312 311 311 312 312 313 314 305 290 305 321 316 313 308 306 309 306 304 299 294 292 291 295 295 296 297 298 299 300 302 303 305 308 308 309 309 312 312
312 311 311 312 312 312 313 312 313 314 313 313 314 311 303 295 311 317 311 308 311 313 309 307 304 300 297 295 296 297 292 294 295 296 296 298 295 297 302 304 304 305 308 310 313
312 312 311 312 312 312 313 314 314 314 315 313 314 308 297 309 307 305 310 309 311 311 310 307 305 299 295 295 296 292 289 285 292 297 298 296 291 299 301 301 302 303 305 310 312
312 312 311 312 312 312 314 313 314 316 317 315 305 303 299 317 311 311 307 307 310 310 307 310 302 297 296 289 286 287 284 287 290 296 295 294 292 298 301 300 300 302 302 305 309
312 311 311 311 312 313 313 313 313 313 313 313 310 299 305 307 310 308 306 308 305 304 303 301 294 291 289 286 281 284 285 288 288 293 293 291 292 298 300 299 300 301 302 302 303
311 311 311 311 311 312 308 304 302 303 305 302 304 302 308 315 311 305 306 305 305 300 292 295 289 286 290 291 293 291 290 289 293 295 293 292 292 295 297 297 298 299 298 300 301
311 310 311 311 311 310 304 302 306 304 296 308 308 306 311 313 307 305 309 300 298 292 294 291 287 294 296 295 294 293 290 289 292 295 293 292 291 295 296 297 297 297 298 300 300
311 310 310 311 309 306 303 308 313 308 296 302 306 307 308 310 306 304 306 301 296 292 292 289 293 298 296 294 293 292 289 289 289 293 293 291 289 292 296 297 299 299 300 300 301
310 310 310 309 305 304 303 310 308 307 291 298 303 305 306 304 299 307 307 302 296 293 293 291 297 296 294 292 293 287 296 295 293 289 284 291 282 289 292 294 297 297 296 297 300
310 310 309 308 298 300 307 309 308 306 281 304 301 308 302 299 301 303 307 301 295 295 293 292 293 292 291 293 298 293 298 295 294 288 284 286 281 288 291 291 294 295 297 298 300
309 309 308 306 302 305 308 309 305 292 284 299 300 298 296 298 300 301 302 303 301 295 294 294 298 295 294 299 299 300 295 292 291 285 280 286 283 286 288 291 293 298 301 302 302
309 309 306 305 301 306 306 304 289 285 301 296 296 298 295 295 297 298 296 294 291 285 287 292 293 296 301 295 297 294 288 281 278 280 281 288 284 286 292 295 297 298 299 301 303
307 306 306 305 303 306 305 297 284 293 295 301 298 297 293 296 295 296 294 290 294 292 287 285 284 294 301 295 291 290 287 279 275 275 280 289 284 288 295 298 300 301 299 300 301
306 302 307 307 306 306 299 288 290 295 300 296 295 291 291 295 293 293 291 292 294 294 287 285 287 297 299 299 296 291 287 293 285 285 281 283 288 294 297 297 300 300 301 300 298
299 300 306 313 309 304 294 290 294 301 299 298 290 294 287 289 289 289 290 297 296 297 295 291 284 294 297 298 296 292 294 283 285 272 277 282 285 285 291 293 298 297 297 300 301
297 296 309 316 311 300 289 292 297 303 299 296 292 290 290 289 290 290 292 296 299 296 295 292 288 289 292 289 287 287 287 287 285 281 274 277 280 293 292 295 295 299 300 298 302
293 290 304 309 296 297 294 300 298 299 301 298 296 294 290 292 291 291 291 294 299 297 291 294 287 283 287 293 295 292 289 287 279 280 285 283 283 296 296 297 296 296 301 302 302
294 294 305 305 290 292 296 297 299 298 297 296 295 295 295 291 286 293 293 298 298 296 292 293 284 278 280 284 289 288 291 291 289 284 280 275 279 295 296 295 297 297 300 302 304
293 292 298 299 298 293 292 294 295 302 299 296 294 295 291 289 292 288 290 295 297 298 304 295 285 281 277 281 284 284 288 290 288 278 279 283 285 290 293 294 297 297 297 301 303
298 294 294 289 291 292 294 294 292 293 297 296 292 292 289 285 288 288 291 292 295 301 294 288 282 285 286 289 290 288 288 288 286 287 282 285 285 291 293 293 295 297 299 299 300
297 294 294 292 294 294 294 292 292 293 294 291 289 290 291 286 287 286 288 287 288 291 287 288 282 284 284 289 288 287 288 288 288 289 288 289 288 294 297 297 296 297 300 300 301
299 301 296 293 293 291 292 293 293 294 295 296 293 290 289 290 293 292 290 290 290 287 285 284 282 281 278 287 286 281 287 290 291 292 290 284 291 295 294 297 297 296 299 299 301

GFSSW_sfc_thetae_081.txt.gz
Theta_e
313 313 313 313 313 313 312 313 313 313 313 313 314 314 315 315 314 306 299 306 311 321 324 309 305 303 301 298 300 301 291 288 293 296 299 304 302 307 309 305 308 310 314 317 316
312 313 312 312 312 312 312 312 312 313 313 314 314 314 314 314 304 302 311 319 324 328 310 304 300 298 296 296 298 295 288 292 298 300 299 301 300 303 304 304 304 306 313 316 315
312 313 313 313 313 312 312 312 312 312 313 313 313 313 313 312 301 307 325 323 329 330 304 302 300 296 291 295 296 295 291 295 299 301 300 300 301 304 303 300 302 304 308 313 312
312 312 313 313 312 312 312 312 312 312 312 311 312 313 314 306 294 306 333 326 332 314 301 303 302 295 290 290 294 290 297 298 299 301 300 299 303 302 302 304 307 308 310 311 312
312 312 312 312 312 312 311 311 311 311 311 311 311 313 306 296 298 310 331 328 316 307 304 304 298 292 289 290 291 290 293 296 298 299 299 301 300 301 302 305 307 308 308 310 310
312 312 311 312 312 312 311 311 311 311 312 312 312 313 302 286 298 317 316 314 307 305 307 305 302 298 292 292 290 293 294 295 296 295 296 297 299 299 302 306 306 307 307 307 311
312 311 311 311 312 312 312 312 313 313 313 312 313 311 301 291 306 317 309 304 306 308 307 308 306 298 296 293 294 294 290 293 293 295 293 296 294 295 300 304 303 304 304 305 309
313 312 311 311 312 313 313 313 314 314 314 313 314 306 294 304 305 306 308 308 309 309 310 308 303 297 294 294 293 290 287 284 290 295 296 294 289 297 300 298 299 302 302 304 306
313 312 311 311 312 312 313 313 314 315 317 315 304 300 297 314 310 309 307 306 308 308 306 310 300 295 294 288 285 285 282 284 289 293 294 293 289 296 299 298 298 299 300 302 304
313 312 311 311 311 312 312 313 314 313 314 312 309 298 303 304 311 309 306 306 305 303 301 299 293 290 287 285 280 283 284 286 286 292 291 291 290 294 297 297 297 297 299 299 302
313 312 311 311 311 311 307 305 300 300 303 301 301 300 304 312 314 304 305 303 303 298 291 293 288 285 288 289 291 289 287 287 291 295 290 290 291 293 295 294 295 295 297 298 299
313 312 312 311 311 310 304 299 304 303 297 305 306 304 307 310 305 308 304 296 295 291 293 289 286 292 293 293 291 290 287 287 291 294 290 290 290 293 293 294 295 296 297 297 296
312 312 312 311 310 304 302 305 309 305 295 300 305 304 305 307 303 305 304 300 294 290 290 287 291 296 294 292 290 289 287 287 288 292 291 289 289 290 294 294 296 297 297 297 298
311 311 311 310 303 302 301 308 307 305 290 296 301 304 306 305 300 310 307 301 295 291 291 289 295 293 292 290 291 286 294 295 293 288 282 289 282 289 291 292 294 296 295 296 296
311 311 310 309 298 298 306 305 306 305 281 301 300 308 304 298 299 300 305 300 294 293 292 290 291 290 290 292 295 291 297 294 293 287 282 285 280 288 288 289 292 294 296 297 299
310 310 310 305 301 302 307 306 304 291 283 298 299 297 295 296 298 300 300 302 300 293 293 293 296 294 293 295 297 298 293 291 289 284 279 285 284 286 289 290 292 294 297 300 300
310 309 307 305 297 303 303 304 290 284 298 295 295 297 294 293 295 296 294 292 290 285 286 291 292 294 299 293 295 292 285 278 277 277 280 287 284 285 291 294 294 294 295 297 299
308 306 306 305 303 303 306 297 284 292 294 299 296 296 293 293 293 295 292 289 293 289 285 284 283 293 299 294 290 288 287 279 274 276 280 287 280 286 293 296 298 298 297 298 297
305 301 301 307 306 303 299 288 287 295 297 295 295 291 289 292 291 290 289 289 293 292 285 284 286 296 298 297 294 289 284 288 281 281 277 281 286 292 295 296 298 298 297 297 297
298 296 299 309 306 304 294 289 293 300 298 297 289 293 287 289 288 287 288 295 294 296 293 289 283 293 296 297 295 290 292 281 281 277 275 278 282 284 290 293 295 297 297 297 298
294 293 301 310 308 299 289 292 296 301 299 295 291 289 289 289 290 290 290 295 297 294 293 291 286 287 291 289 286 286 284 284 284 283 278 273 278 291 293 295 294 296 298 298 298
292 290 302 306 297 295 293 297 298 299 300 298 296 292 290 290 290 290 291 294 297 295 289 292 287 283 286 291 293 289 286 285 276 276 283 279 280 294 294 294 297 296 299 302 303
291 290 301 302 290 289 294 296 299 298 298 296 294 294 292 290 286 291 292 297 297 295 292 293 285 281 282 284 287 286 289 287 286 284 280 278 280 293 293 293 295 296 297 298 300
291 288 293 296 294 290 290 292 293 299 298 297 294 294 290 287 290 287 289 294 296 295 303 296 285 283 279 282 283 281 286 288 285 279 280 282 284 289 291 293 294 295 297 298 298
297 294 291 285 290 292 293 293 291 292 297 295 293 292 288 283 286 287 290 291 294 297 292 289 283 284 285 287 287 286 287 287 284 285 281 284 285 287 292 292 294 296 298 300 300
291 295 295 293 294 292 292 292 292 293 292 292 290 292 292 285 287 284 287 288 287 291 286 287 282 284 283 287 287 285 287 287 287 287 286 287 286 292 295 295 296 296 298 298 299
294 299 295 293 292 291 290 293 293 294 294 296 294 292 290 291 292 292 291 291 290 288 285 284 282 280 278 285 285 280 285 288 289 291 291 286 291 295 294 295 296 296 296 298 300

GFSSW_sfc_thetae_084.txt.gz
Theta_e
313 314 313 313 313 313 312 312 312 312 313 313 313 313 313 313 313 304 298 303 310 320 323 308 305 301 298 296 299 301 291 288 292 295 298 303 299 303 307 304 308 308 307 313 316
312 313 313 313 313 313 313 312 312 312 312 313 313 312 312 312 306 300 309 316 323 323 306 304 299 298 296 295 296 296 288 291 296 298 298 299 298 301 301 302 303 304 309 313 313
313 312 312 313 313 313 312 312 312 312 312 312 311 311 313 311 299 305 324 320 323 327 303 303 299 295 291 294 295 292 289 293 298 300 300 299 299 302 299 298 302 302 305 308 312
313 313 312 312 312 312 312 312 311 312 311 311 310 311 313 306 293 304 333 325 326 320 301 298 300 292 289 289 293 291 296 297 295 299 297 298 301 300 300 301 305 305 306 308 308
313 312 312 311 312 312 311 311 311 311 311 310 310 312 303 291 294 311 330 327 312 302 300 302 297 292 288 290 291 289 292 294 296 295 295 298 297 298 298 303 305 305 306 306 307
313 312 312 312 312 312 311 311 311 311 311 311 311 312 299 283 295 316 320 310 305 302 303 303 299 296 292 290 290 292 292 293 294 294 295 295 297 297 299 303 302 303 303 303 307
314 313 312 312 312 312 313 312 311 313 312 312 312 310 299 289 303 313 310 303 304 306 305 306 304 297 294 291 292 292 289 292 292 293 293 294 292 294 299 301 300 301 302 302 304
314 314 312 312 312 312 313 313 313 313 313 313 313 304 291 300 305 309 305 304 306 306 306 308 302 295 292 292 292 288 286 283 290 292 295 293 287 295 298 297 297 299 300 302 302
314 313 313 312 312 312 312 312 313 314 316 314 302 297 297 312 307 309 307 303 306 306 306 310 298 293 293 287 284 284 280 282 288 292 292 290 288 295 298 296 296 297 298 299 301
314 313 313 312 312 312 311 313 314 314 313 312 309 295 300 302 309 309 305 305 303 302 299 297 292 289 286 285 279 281 282 284 285 291 289 289 289 293 295 295 296 296 296 297 299
314 313 313 313 312 311 306 303 299 297 302 299 299 297 303 309 312 302 305 303 301 297 290 291 288 285 287 288 289 288 286 285 289 293 289 289 290 292 293 293 293 294 295 296 297
314 313 313 312 312 310 304 298 302 302 296 304 304 302 306 308 302 306 303 296 294 289 291 288 285 291 291 291 289 288 285 285 289 292 289 289 290 291 292 292 294 294 295 296 296
312 312 312 312 311 304 301 303 307 304 295 298 303 302 303 304 300 302 299 296 292 289 288 286 290 294 292 290 289 287 285 286 287 292 291 289 289 289 292 293 294 295 296 296 297
311 311 311 310 303 301 301 307 305 303 289 294 299 303 305 303 299 308 303 299 293 290 289 288 292 292 289 289 289 284 290 291 292 288 283 289 282 289 291 291 292 294 295 295 296
311 311 311 309 299 296 304 305 305 304 281 298 299 307 304 299 298 300 305 299 293 292 291 289 289 288 288 290 292 288 293 293 292 287 283 285 280 286 290 290 291 295 294 296 297
310 311 310 303 300 302 305 304 305 291 282 297 298 296 296 296 297 298 299 300 298 292 291 291 294 292 292 293 294 296 292 289 287 283 278 284 282 283 286 289 291 295 296 297 298
310 310 307 304 297 302 302 303 289 285 297 294 295 297 293 292 294 295 293 291 288 284 284 289 291 293 295 290 293 290 285 278 276 277 279 285 282 285 290 294 294 296 298 298 296
308 307 304 304 301 301 304 296 283 291 293 298 296 296 293 293 293 293 291 287 291 288 284 282 283 292 297 292 288 286 286 279 273 275 280 285 280 284 292 294 297 298 297 297 297
306 299 298 302 304 302 297 287 286 295 295 294 294 291 290 292 292 291 290 289 291 291 285 283 285 294 298 296 293 288 284 288 281 279 275 280 284 290 293 294 296 296 298 297 298
298 294 298 305 304 300 291 288 293 299 298 296 289 292 287 289 289 288 288 294 293 294 291 287 282 290 295 295 294 291 292 282 279 271 271 277 279 282 287 290 295 295 296 297 298
294 293 301 302 304 296 287 290 297 301 300 295 291 290 290 289 290 289 290 294 296 292 293 290 286 286 290 288 286 287 285 284 282 279 272 274 277 287 289 292 292 294 297 298 299
293 291 302 303 295 290 290 294 298 299 301 299 296 293 291 291 289 290 291 294 296 294 289 291 289 282 285 288 292 289 286 285 277 276 283 280 280 292 290 291 293 294 297 298 301
290 289 300 300 288 286 290 293 297 296 297 296 294 295 293 289 286 290 292 296 296 294 292 292 285 279 281 284 289 286 289 287 284 280 278 278 279 291 292 292 294 294 296 298 301
292 288 292 292 291 288 290 290 292 298 297 298 296 295 292 289 290 287 288 293 295 294 300 297 286 283 280 284 283 281 286 288 284 274 279 281 283 288 290 290 293 294 296 298 300
293 290 290 285 287 288 291 293 290 290 297 297 294 293 290 285 286 285 289 290 293 295 293 289 281 284 286 287 285 284 285 285 283 285 280 284 284 288 290 292 293 295 296 297 298
290 290 292 290 294 292 291 291 290 293 293 291 291 293 292 288 288 285 288 287 286 290 288 286 281 283 282 287 286 284 286 287 286 286 285 285 285 291 294 295 293 294 295 295 295
292 293 295 292 291 289 290 291 292 293 294 295 295 292 290 292 295 293 292 291 289 287 285 283 281 280 278 284 284 280 284 285 287 289 287 283 288 293 292 293 293 293 294 293 295

GFSSW_sfc_thetae_087.txt.gz
Theta_e
313 313 313 314 314 314 313 313 312 312 312 312 313 313 313 312 312 308 300 305 310 318 322 312 307 306 305 304 307 306 301 297 298 299 301 307 305 310 311 309 310 312 313 315 321
313 313 313 313 313 313 312 312 312 312 312 312 312 312 312 313 307 302 310 314 322 322 309 308 303 304 302 301 304 303 299 298 302 304 303 305 305 306 305 306 307 309 313 316 317
314 313 313 313 313 313 312 312 312 312 312 312 311 311 311 311 303 309 324 319 321 323 311 308 303 302 300 302 301 300 298 300 302 304 305 304 304 306 304 302 306 306 309 313 314
314 314 313 312 312 312 312 312 311 311 311 311 311 311 312 307 298 306 331 323 325 320 305 304 303 299 298 298 301 297 300 301 302 304 303 301 304 302 303 305 308 309 311 312 312
314 314 313 312 312 312 312 311 311 311 311 310 310 310 308 298 298 323 329 327 323 310 304 304 302 300 297 297 298 298 299 300 302 301 301 302 300 301 302 306 309 309 310 310 312
315 313 313 313 312 311 312 312 311 311 311 311 310 311 306 291 303 325 323 313 308 305 307 308 305 302 299 299 298 298 298 300 301 301 301 300 302 301 304 308 307 308 309 310 311
315 315 313 313 313 312 312 311 312 311 313 312 311 311 302 295 308 321 316 308 307 308 307 310 309 303 302 298 301 299 297 298 299 301 300 301 297 298 304 305 305 307 308 309 310
315 315 314 313 313 313 312 312 311 312 313 312 312 310 296 303 310 316 312 307 308 310 311 312 310 304 302 301 298 296 295 293 298 298 300 299 294 300 304 303 303 304 306 307 310
315 314 314 313 313 312 312 311 312 312 314 314 309 305 299 315 308 312 311 306 308 309 310 311 306 300 300 297 295 294 290 291 295 299 299 298 295 301 305 303 303 305 306 306 307
315 314 313 314 312 312 311 314 315 315 313 312 310 301 304 304 310 310 311 309 307 306 304 302 301 298 296 295 288 289 290 291 292 297 298 297 297 301 304 303 302 304 305 306 307
314 313 313 313 313 311 309 309 306 304 307 305 303 300 304 311 314 308 308 306 305 303 298 298 296 293 296 297 295 293 292 291 295 299 295 297 297 300 303 303 304 305 306 307 308
313 313 313 313 312 311 308 304 306 307 301 306 307 305 307 309 303 306 308 301 300 296 297 296 293 298 298 296 294 293 292 292 296 298 296 297 297 301 302 303 304 304 305 306 309
312 312 312 312 310 307 304 307 311 310 301 301 305 305 306 308 303 304 305 301 298 295 295 294 295 297 295 295 293 294 292 293 293 296 299 297 295 298 301 302 304 305 306 307 307
311 311 311 311 306 303 303 310 309 310 295 296 301 305 306 306 300 309 305 302 298 295 294 295 299 295 295 293 295 291 296 295 294 293 289 296 287 296 299 300 301 304 306 305 306
311 311 311 309 306 301 307 307 309 309 285 300 301 310 307 302 303 304 307 303 297 296 296 294 294 294 293 295 296 294 296 295 295 294 293 293 290 294 298 297 300 302 304 307 308
310 310 310 306 305 306 308 307 309 294 284 297 301 300 300 302 300 302 304 306 303 298 297 297 299 297 297 297 297 299 297 296 295 293 286 292 291 292 294 297 299 302 304 306 306
310 309 307 308 303 306 306 308 294 287 298 294 295 298 298 297 299 299 298 298 296 291 292 296 296 299 298 295 299 297 294 287 285 285 285 292 289 292 297 300 300 301 303 306 307
308 307 306 307 308 308 309 301 286 292 294 298 297 297 295 296 295 296 294 293 297 295 292 289 287 295 299 296 295 295 294 288 281 283 286 292 286 292 299 301 302 303 305 305 306
306 303 303 307 309 307 304 292 289 295 296 295 295 292 293 293 294 293 292 292 294 296 291 289 288 297 299 299 298 294 291 295 289 289 285 288 292 296 298 298 301 302 302 303 306
300 299 304 307 309 307 299 291 294 300 299 298 290 292 288 291 292 292 292 296 295 298 298 294 288 294 297 299 298 296 298 289 291 281 279 285 286 287 292 295 299 299 301 303 306
301 300 306 308 309 305 296 294 297 302 302 296 293 291 292 291 293 291 291 295 297 296 298 296 293 291 295 293 292 293 292 292 291 289 282 280 284 294 295 296 297 299 301 303 305
299 297 307 307 302 297 296 295 297 299 302 299 298 295 292 292 291 291 291 295 300 297 292 295 293 288 290 296 296 294 294 294 287 284 287 286 284 296 297 298 300 299 301 304 305
297 296 306 305 294 292 295 295 297 297 298 297 296 297 297 292 287 291 292 297 297 295 293 296 290 285 286 290 293 292 293 294 292 291 285 282 285 297 297 298 299 299 301 304 304
299 294 298 299 297 293 291 292 293 298 297 298 297 298 294 291 293 289 291 294 296 295 299 298 291 288 284 287 291 288 291 293 292 286 286 287 288 292 295 296 298 300 302 303 304
299 294 296 290 293 293 293 292 290 290 297 297 294 294 291 288 289 290 292 294 295 297 295 295 286 289 290 291 291 289 289 290 289 290 286 288 289 292 295 296 298 301 302 302 301
297 294 296 293 294 292 292 291 291 292 292 292 291 293 294 288 290 288 290 291 290 293 292 293 287 289 286 288 288 286 288 289 290 290 290 290 289 296 299 301 300 301 301 300 300
297 300 297 292 292 290 291 291 290 292 293 296 293 291 291 292 295 295 296 295 293 291 289 290 288 286 281 286 287 282 287 288 289 291 290 286 293 299 298 299 300 301 300 299 299

GFSSW_sfc_thetae_090.txt.gz
Theta_e
315 314 313 314 314 314 314 313 313 313 313 313 313 314 313 313 313 312 304 309 312 322 320 312 310 310 311 310 312 312 304 301 301 302 305 311 311 315 315 313 314 316 316 320 322
316 315 314 313 314 314 314 313 313 313 313 313 313 312 312 312 311 306 318 312 319 322 315 310 306 308 306 308 309 307 303 303 307 307 306 308 309 309 308 309 310 312 316 318 320
315 315 315 314 313 313 313 312 313 312 313 312 312 311 311 313 309 312 326 318 322 323 315 313 310 308 304 307 307 307 302 307 307 309 309 308 308 310 307 306 310 310 313 316 317
315 316 315 313 313 313 313 312 312 312 312 312 311 310 312 312 301 315 327 322 325 318 314 309 308 304 303 302 307 302 306 307 307 308 308 306 308 306 308 308 312 312 313 314 315
316 316 315 314 313 313 312 313 312 312 311 311 311 310 312 305 304 328 325 325 319 315 311 308 305 305 302 304 304 302 304 305 307 306 307 307 305 305 306 310 312 313 313 313 315
316 316 315 314 313 313 312 312 312 312 312 312 311 311 309 298 310 325 320 322 319 315 308 308 305 307 303 303 303 304 304 304 305 305 306 304 304 306 307 310 310 311 312 313 314
315 316 316 314 313 313 313 313 312 312 312 313 312 313 306 301 312 324 321 314 313 310 310 313 311 307 307 302 306 304 300 303 304 305 304 306 302 303 307 308 308 309 311 312 313
315 315 315 315 314 313 313 313 312 312 313 313 312 312 302 307 313 320 319 311 311 315 315 315 314 309 307 307 303 301 301 298 304 303 304 303 298 304 307 307 307 308 309 310 312
315 314 314 314 314 313 313 312 314 312 314 314 312 309 303 315 308 315 319 310 311 313 314 313 312 307 305 301 299 300 295 296 298 303 302 302 299 304 308 308 307 309 310 310 312
314 314 313 314 314 313 312 312 314 315 315 314 312 306 310 304 309 313 318 313 310 311 309 308 307 303 302 300 293 296 295 296 296 301 302 301 301 305 307 307 308 308 309 310 311
313 313 313 313 313 312 311 316 312 310 312 308 308 306 307 313 315 311 315 311 311 308 302 305 300 297 300 301 300 298 297 296 299 302 301 300 301 304 307 307 307 309 310 311 312
311 312 313 312 312 310 313 307 310 311 305 311 311 310 311 312 306 310 314 306 305 300 303 300 296 302 302 301 299 298 296 297 300 302 301 300 300 304 306 307 308 308 309 310 312
310 311 312 312 311 310 311 311 316 314 304 305 308 308 309 311 307 307 309 307 303 300 301 298 300 301 301 299 297 298 296 297 297 300 302 300 299 302 306 307 308 309 311 311 312
309 310 311 310 308 312 309 315 316 315 301 300 304 307 309 310 304 312 312 307 302 299 300 299 303 300 298 297 299 295 301 299 297 297 293 301 291 300 303 304 306 308 310 310 311
309 310 310 309 310 309 311 314 317 315 291 304 304 313 309 304 306 307 312 306 300 300 300 297 298 298 297 298 301 298 301 299 299 297 297 297 294 299 303 301 305 307 307 309 311
309 310 309 312 312 313 314 314 315 299 288 299 304 303 301 304 302 306 307 308 307 301 302 301 304 301 301 302 301 302 300 300 300 298 291 296 295 296 300 301 304 306 307 307 310
309 309 309 314 310 313 314 313 299 292 301 297 298 301 300 299 300 301 302 301 299 294 295 299 300 303 303 299 302 301 298 291 290 291 290 299 295 297 302 304 304 303 305 308 310
308 307 308 312 315 315 314 305 291 295 297 301 300 300 298 298 297 298 297 297 302 301 296 294 292 300 302 300 299 300 299 292 285 288 291 297 292 297 303 306 306 305 307 308 309
306 315 313 314 317 316 309 296 295 297 299 298 299 296 298 298 298 298 298 297 298 300 294 293 293 300 301 303 302 298 295 301 294 295 291 294 298 302 303 302 302 303 305 306 308
308 311 311 315 318 314 303 295 298 302 302 301 295 297 293 295 296 295 295 299 298 301 303 298 292 300 300 302 302 299 302 294 294 285 284 291 292 293 298 299 300 301 303 306 307
310 308 313 316 316 309 300 300 300 304 304 300 298 297 297 296 297 295 295 298 300 300 301 299 296 296 298 296 295 297 295 296 296 293 286 285 290 299 297 300 300 302 304 305 306
309 305 314 316 307 308 303 300 298 301 304 302 302 300 297 297 296 295 295 297 302 301 295 299 296 291 294 300 300 298 296 296 291 289 292 290 290 302 300 301 301 302 304 305 308
304 305 315 314 302 304 302 300 301 300 301 300 298 300 301 297 292 297 297 302 301 300 297 299 294 289 291 296 298 294 297 297 296 295 290 287 290 301 301 301 303 303 304 305 308
305 301 306 307 306 300 297 298 297 301 299 301 299 299 296 295 297 294 296 299 300 298 299 300 295 291 288 291 294 291 294 295 294 291 291 291 293 296 299 300 302 303 305 306 308
305 298 300 297 300 298 298 297 294 293 299 300 297 295 292 289 291 292 294 296 300 301 300 297 290 293 294 294 294 292 292 293 292 293 290 292 293 296 299 300 301 304 305 306 307
302 299 304 299 296 296 295 294 293 293 294 293 293 295 294 291 291 289 292 293 293 296 294 297 290 292 289 293 292 289 291 292 293 293 293 293 293 300 302 302 303 304 305 305 306
307 306 302 295 293 293 294 293 293 293 296 298 295 293 291 293 298 298 299 297 295 292 292 292 291 289 286 290 289 285 290 292 292 294 293 289 295 300 300 300 302 304 305 304 304

GFSSW_sfc_thetae_093.txt.gz
Theta_e
317 317 317 316 314 314 315 315 315 314 314 314 314 315 315 314 314 314 308 313 317 323 321 316 314 312 312 311 313 314 305 304 305 308 310 316 314 319 320 316 318 320 319 322 324
317 317 316 316 314 314 314 314 314 314 313 313 314 314 313 313 311 309 322 321 320 324 314 312 309 310 308 310 310 307 302 303 308 310 308 311 313 315 314 314 314 316 319 321 322
317 317 317 315 315 314 314 314 313 313 313 313 313 313 312 314 312 314 329 324 323 324 317 316 313 310 306 309 309 308 302 307 308 311 311 309 310 313 310 309 313 313 316 318 319
316 317 317 316 315 314 314 314 314 313 313 313 313 312 312 314 304 323 326 322 325 318 317 313 311 307 305 305 309 305 309 308 309 310 309 308 311 309 310 311 314 315 316 316 317
316 316 316 316 316 314 314 314 314 314 313 312 312 312 312 310 310 328 324 324 318 319 313 310 308 308 305 307 308 306 307 309 310 309 308 309 307 308 309 312 313 314 314 314 315
316 316 316 316 316 315 314 314 313 313 313 313 313 312 312 303 316 321 318 316 314 314 312 311 308 310 307 307 306 308 307 307 308 308 308 305 306 307 309 312 312 313 313 315 315
315 315 315 314 315 316 315 314 314 313 313 314 314 313 310 305 315 323 321 319 319 317 310 312 312 308 309 305 309 308 303 305 306 307 306 308 304 305 310 312 310 311 313 314 315
314 314 315 314 314 315 315 314 313 313 313 315 315 314 307 311 314 322 321 313 315 315 316 316 315 310 309 310 306 303 304 299 306 307 307 305 299 307 310 309 309 310 311 312 314
313 313 314 313 314 314 314 313 314 316 314 315 314 313 308 312 307 320 320 311 312 316 316 315 314 309 308 304 301 303 298 300 302 307 305 304 301 307 309 309 309 310 312 312 313
312 312 313 313 313 313 312 312 313 314 316 317 316 310 313 307 308 315 321 315 311 312 311 310 309 305 305 302 295 298 299 300 300 304 304 302 302 307 309 309 309 311 311 312 312
312 311 311 313 313 312 311 318 313 311 313 311 311 310 309 313 313 312 317 312 311 310 304 307 302 299 302 303 303 302 300 300 302 305 303 303 303 306 309 309 309 310 311 313 313
312 311 311 312 313 312 314 311 313 313 304 313 313 312 313 314 305 310 316 307 306 303 306 304 299 304 305 304 302 301 299 299 302 305 304 303 302 306 308 309 310 310 311 312 313
311 310 311 311 311 311 315 313 319 319 307 307 309 309 310 312 308 307 312 308 305 303 303 301 303 305 303 302 300 301 299 299 299 303 305 302 300 303 307 309 310 311 312 313 313
310 310 310 311 309 317 313 317 318 319 303 303 305 308 309 311 305 314 312 309 306 302 304 303 306 303 301 300 302 297 303 301 300 298 294 304 294 303 306 307 309 311 312 313 313
310 310 310 310 312 313 315 318 319 318 291 306 307 315 311 305 307 308 315 309 303 303 302 300 301 300 300 300 303 299 304 302 301 299 299 299 296 301 306 305 308 310 312 312 314
309 310 309 312 313 318 319 318 317 301 291 302 307 305 304 305 304 308 308 309 308 303 304 302 307 303 303 304 304 304 302 302 302 300 293 298 298 299 302 305 308 311 310 311 311
309 309 310 317 314 317 318 314 301 294 304 300 301 304 303 302 302 304 302 301 297 294 294 299 301 305 305 301 304 303 299 292 292 292 292 302 299 301 306 308 308 308 309 310 311
308 307 313 316 319 318 316 307 295 298 299 304 303 303 300 302 302 302 300 298 302 301 297 294 293 301 305 302 299 301 300 293 287 289 293 301 295 300 308 309 310 310 309 309 311
306 321 319 319 321 320 312 300 299 301 303 301 302 299 300 302 301 301 301 299 301 302 295 294 294 304 304 305 304 300 297 302 296 297 293 296 300 306 308 308 307 305 307 308 309
311 316 315 320 324 317 306 299 301 304 304 303 297 301 296 299 298 299 298 302 301 303 304 299 293 302 304 304 304 301 304 294 296 288 286 292 295 296 301 303 305 304 305 307 308
313 312 317 322 322 311 302 304 304 306 306 302 301 298 298 298 300 298 298 301 304 302 304 301 296 297 302 299 298 298 298 298 297 295 289 287 292 304 301 304 304 305 306 306 308
315 308 319 322 309 311 305 305 299 304 307 304 304 302 298 298 296 296 297 300 303 302 297 301 298 293 295 302 304 302 299 298 293 292 295 294 293 306 307 305 304 304 306 307 309
308 310 319 317 304 305 307 304 304 303 304 302 300 302 303 298 295 298 299 304 304 302 299 302 295 291 293 299 301 298 299 299 298 297 293 290 293 305 304 304 306 305 306 307 308
308 304 310 315 311 305 302 302 300 304 302 303 301 302 301 298 300 298 298 301 303 303 302 302 297 293 290 293 297 294 296 298 297 293 293 293 294 300 303 304 304 305 307 307 307
310 306 305 303 304 303 303 301 298 297 302 302 300 298 297 293 294 295 298 300 302 303 302 299 292 295 295 296 297 296 294 296 294 295 291 294 294 298 301 302 303 305 306 307 307
303 302 309 304 301 301 297 299 297 296 298 296 297 297 297 294 295 292 296 296 296 299 297 299 291 295 292 295 296 293 295 296 295 295 295 295 294 301 303 304 303 305 306 306 306
309 309 304 299 299 299 301 297 296 297 299 299 297 297 295 296 300 301 300 302 299 297 296 294 292 291 289 294 294 289 294 295 295 297 296 292 297 303 302 303 304 305 305 304 305

GFSSW_sfc_thetae_096.txt.gz
Theta_e
318 318 318 317 316 315 315 315 314 314 315 315 314 314 315 315 314 312 305 312 315 326 317 314 312 310 311 308 311 312 303 302 303 306 309 315 315 319 321 317 318 319 320 322 324
318 318 318 318 317 316 314 314 314 314 314 314 314 314 314 314 309 306 316 327 328 325 309 309 309 310 306 306 308 306 301 302 309 310 309 312 313 315 314 316 315 317 320 321 322
317 317 317 317 317 316 315 314 314 314 314 314 314 314 314 313 309 311 328 328 326 322 309 313 312 309 305 307 307 306 301 305 307 309 309 309 309 313 310 310 314 313 316 319 320
316 317 317 316 316 316 315 315 315 315 314 314 314 314 313 311 304 320 331 329 327 310 308 311 311 306 303 302 307 303 307 306 307 310 310 308 310 308 310 310 314 315 316 316 316
315 316 316 316 316 316 316 315 315 314 314 314 313 314 311 309 311 324 327 324 312 311 309 312 308 307 302 305 306 304 306 308 309 309 309 310 307 307 309 313 314 314 314 314 315
314 314 315 316 316 316 316 316 314 314 313 313 314 314 309 304 319 318 316 313 311 312 312 312 309 310 307 306 305 307 307 307 308 308 308 306 306 307 308 312 312 312 312 313 314
314 314 314 315 315 315 315 315 314 314 314 314 315 314 308 307 314 320 318 313 313 314 310 312 312 308 308 305 309 308 304 305 306 307 305 307 303 303 309 310 310 311 312 313 315
313 313 313 313 314 315 315 315 314 314 314 314 315 313 307 316 317 321 320 318 318 317 314 313 313 310 307 309 306 303 303 298 304 306 306 305 297 306 311 309 308 309 310 312 315
313 312 313 312 313 314 314 314 314 315 316 315 313 311 308 314 308 314 321 312 312 313 316 316 313 308 307 302 300 302 296 298 301 307 306 304 300 306 310 309 308 310 311 312 313
313 312 312 312 312 313 313 313 314 314 314 317 315 310 313 310 309 311 320 315 309 311 311 309 307 304 303 300 293 297 297 299 299 305 305 302 302 305 308 308 309 310 311 312 313
314 312 311 311 312 311 312 315 314 312 312 309 311 309 310 313 312 308 318 313 311 308 302 307 300 297 301 303 303 301 300 299 303 305 303 302 302 304 308 308 308 309 311 313 314
314 313 312 311 311 311 310 310 313 314 305 312 312 312 315 314 304 309 315 307 305 300 304 303 298 303 305 304 302 301 298 298 302 305 303 302 301 305 307 308 309 309 311 313 315
313 312 311 311 311 310 310 314 319 317 306 309 311 310 310 311 307 306 311 308 304 301 302 300 303 307 303 302 300 300 299 299 298 302 304 302 300 302 306 309 310 311 313 314 314
312 312 310 310 309 318 315 319 318 318 300 304 305 308 310 310 304 313 312 308 304 301 303 302 306 304 302 300 301 297 303 301 300 298 293 302 292 301 305 306 309 311 311 312 314
312 311 310 309 311 313 316 319 319 317 291 306 307 315 311 305 306 306 313 308 302 303 303 299 302 301 300 301 303 299 303 301 301 298 297 297 294 299 305 303 307 311 312 314 315
312 311 309 314 314 316 320 319 316 300 291 302 307 305 304 306 306 308 307 310 307 302 302 302 306 304 303 304 304 304 301 301 300 298 291 296 296 296 301 305 308 311 312 313 312
311 309 308 315 315 319 318 312 299 295 306 301 302 305 304 302 303 304 302 300 297 292 293 298 299 304 305 300 304 302 298 290 289 290 289 299 296 300 308 309 309 309 311 312 311
309 307 313 318 321 319 316 306 295 301 301 305 304 304 301 303 303 303 301 299 302 299 295 293 292 300 303 300 299 299 298 292 285 288 291 300 294 299 309 311 311 311 311 311 310
306 319 319 321 321 320 311 300 300 301 304 302 303 300 300 303 302 302 301 300 302 303 295 294 294 304 305 306 303 298 294 300 294 296 291 295 299 305 308 308 310 309 309 308 309
306 314 317 320 323 317 307 300 303 306 306 304 298 301 297 300 300 300 299 304 302 305 306 299 293 302 303 305 306 301 303 293 294 286 286 292 294 296 302 304 306 307 306 308 310
309 312 318 321 320 311 302 303 305 308 306 303 301 299 299 299 300 299 299 303 304 303 305 302 298 296 301 299 298 299 296 297 297 295 288 287 292 305 303 305 305 307 308 308 308
312 307 319 321 306 309 304 305 301 305 307 305 304 302 300 300 298 299 298 301 306 304 298 302 298 292 295 302 304 302 299 298 291 291 295 293 292 306 308 306 308 306 306 307 309
306 308 319 317 302 304 308 305 305 303 304 303 301 303 304 300 295 299 300 305 305 303 300 302 295 290 292 298 301 298 300 300 299 298 291 288 291 305 306 305 307 307 308 309 310
307 303 310 311 310 304 304 302 302 307 302 303 303 303 300 298 300 297 298 302 304 303 303 302 297 294 288 293 297 294 297 298 297 292 292 293 294 299 303 304 306 307 307 307 308
308 305 307 301 304 304 304 302 300 299 303 303 301 300 297 293 296 296 298 299 302 304 302 300 292 294 294 295 296 295 295 296 294 295 291 294 294 298 302 303 304 305 306 306 307
303 302 305 302 304 302 300 300 299 300 299 299 297 299 299 294 295 292 296 297 295 300 300 300 292 294 291 295 295 293 295 296 296 296 296 295 295 301 303 304 304 305 305 304 305
309 310 305 301 301 299 300 300 299 300 301 301 299 297 296 297 300 301 300 300 300 297 296 294 293 291 287 294 293 289 295 295 297 298 296 292 297 302 301 302 302 303 304 304 303

GFSSW_sfc_thetae_099.txt.gz
Theta_e
318 318 318 318 318 317 315 315 315 314 315 314 315 315 314 314 314 309 302 307 311 321 322 305 308 306 304 302 305 306 296 295 298 300 304 310 305 316 317 313 315 316 317 318 319
317 317 318 317 317 318 316 315 315 315 315 314 314 314 314 314 307 303 313 322 325 327 310 303 304 303 298 300 301 299 295 297 304 305 304 307 307 306 311 312 313 314 317 318 318
315 316 317 317 317 317 317 316 315 315 315 314 314 313 313 312 302 305 333 323 329 327 310 307 305 304 297 299 298 297 296 301 304 307 308 306 305 307 305 303 309 311 313 315 315
314 315 315 315 316 316 316 316 316 315 315 314 314 313 314 308 299 317 336 326 329 312 305 301 300 297 296 295 300 295 302 303 304 306 305 303 306 306 307 306 311 310 314 312 310
313 313 313 314 315 315 315 316 316 314 314 314 314 313 309 302 301 320 332 330 318 306 301 299 300 300 294 297 299 298 300 304 306 305 304 305 305 304 304 310 311 311 313 311 310
314 314 314 314 314 315 315 315 315 315 314 315 313 314 305 297 315 322 316 312 309 302 303 302 305 305 298 298 297 300 301 302 303 302 304 301 303 304 305 308 308 308 307 309 309
314 314 313 313 314 314 314 314 314 314 314 314 314 313 303 301 314 314 311 306 306 306 307 309 310 303 301 297 302 302 297 300 301 302 300 303 299 301 305 307 305 306 308 309 309
314 313 313 313 313 314 314 314 314 314 314 315 314 310 301 315 312 310 312 309 309 309 311 311 309 303 299 301 301 297 294 289 298 302 303 301 294 302 306 305 304 305 307 309 309
315 314 314 313 313 313 313 312 314 316 315 314 309 305 303 315 306 310 315 313 310 311 312 313 306 302 303 294 291 294 288 291 295 302 301 300 294 302 306 305 304 304 305 307 307
315 314 314 313 313 312 311 312 315 314 314 314 313 303 309 309 309 308 313 316 307 307 308 306 301 297 295 291 285 290 291 293 294 300 301 297 296 301 304 304 304 304 305 306 307
315 314 314 313 313 311 309 306 308 306 309 306 308 307 311 312 307 304 315 312 307 304 297 301 293 290 295 297 298 297 295 294 297 301 298 297 297 299 302 302 302 302 304 305 306
315 315 314 313 312 310 308 302 309 308 301 311 311 311 314 316 304 304 312 305 302 295 299 296 292 298 301 301 299 298 295 293 297 301 297 295 295 299 301 301 301 303 303 305 306
314 314 314 313 311 308 305 307 312 313 300 306 311 309 310 310 306 304 308 306 300 296 296 293 298 304 301 298 297 296 294 294 294 299 298 296 293 296 301 302 303 304 305 306 306
313 313 313 311 306 311 309 314 313 312 294 302 305 307 309 308 303 311 310 306 300 296 297 296 302 301 300 298 298 291 299 299 298 294 286 295 285 293 298 300 303 304 303 304 306
312 313 312 310 303 306 313 315 313 310 287 307 305 312 308 303 305 306 311 306 300 299 298 296 298 298 297 298 300 295 300 297 297 292 289 292 286 290 297 297 300 302 305 305 305
312 313 311 308 306 310 314 314 310 295 289 301 305 302 301 303 304 306 307 308 306 299 300 298 303 300 299 302 301 301 297 295 293 289 283 289 289 289 294 298 302 307 307 307 306
312 312 308 308 307 316 313 306 294 289 306 300 300 302 301 300 301 302 300 298 295 291 291 295 297 300 302 296 299 296 290 282 281 281 282 293 290 292 299 305 306 304 305 304 304
311 308 308 310 313 312 310 300 290 301 300 305 303 302 298 301 300 301 298 294 298 297 292 289 289 300 304 298 294 294 291 283 278 280 285 295 288 293 303 306 307 310 306 304 303
308 308 312 316 315 314 304 294 297 301 303 301 301 298 299 303 302 300 297 297 300 298 290 289 291 302 304 304 301 296 291 295 289 289 284 289 293 299 304 304 305 306 305 301 303
302 305 311 319 318 312 300 297 302 305 304 303 295 300 295 299 299 299 298 303 300 302 303 297 290 299 302 304 303 298 301 290 289 280 279 287 289 291 298 301 303 303 302 301 301
303 305 315 317 316 305 295 300 304 307 305 301 298 297 297 296 297 296 298 303 304 301 300 296 293 294 298 295 294 296 295 294 293 291 281 280 286 299 300 302 301 302 303 300 299
303 301 316 317 300 302 298 304 305 306 307 304 303 300 297 298 296 296 296 300 305 304 296 298 293 287 292 298 300 296 296 296 288 285 287 285 288 303 302 301 302 303 303 303 303
298 303 316 315 296 299 306 306 307 303 303 301 300 302 300 296 290 298 299 304 304 300 297 297 290 283 287 292 299 295 297 297 296 293 288 284 285 301 302 302 303 302 303 305 304
300 299 307 308 305 301 299 301 301 306 302 302 301 301 297 295 297 294 296 302 303 301 306 300 290 288 283 288 294 292 295 296 295 288 287 288 291 294 297 298 299 299 300 301 302
303 301 303 296 299 300 301 300 297 298 303 302 298 299 295 289 291 292 296 298 301 304 299 296 287 290 291 294 294 292 292 294 293 293 288 291 291 295 296 296 297 299 300 300 300
300 298 300 297 301 299 298 297 298 299 298 298 296 298 296 290 291 289 292 292 292 295 294 297 287 290 289 293 292 290 293 293 293 294 294 294 293 298 298 299 299 298 299 299 299
306 306 301 298 297 296 296 297 297 299 300 299 297 295 293 295 297 295 295 295 294 291 294 293 288 286 282 290 290 286 292 293 293 295 295 290 294 297 296 297 296 297 297 297 298

GFSSW_sfc_thetae_102.txt.gz
Theta_e
316 317 317 318 318 318 317 317 315 315 315 315 314 314 314 314 313 308 302 307 309 317 321 308 309 306 302 300 303 305 296 293 295 299 301 307 304 309 311 311 314 316 315 317 317
314 315 315 316 317 317 317 316 316 315 315 315 315 314 314 313 307 302 310 317 319 325 308 304 301 302 295 298 300 298 296 301 304 303 301 305 305 305 306 306 310 312 316 316 316
314 314 314 314 315 316 316 316 315 316 315 315 315 314 313 312 301 303 319 319 324 324 314 306 302 300 293 297 296 295 294 302 303 305 307 306 305 304 305 302 304 304 309 311 312
314 314 314 313 314 314 315 315 316 316 315 314 314 314 312 308 294 312 336 329 326 319 309 302 298 294 292 292 295 292 299 301 303 305 304 305 311 306 308 307 309 308 309 309 308
314 314 314 313 313 314 314 315 315 315 315 314 314 313 308 300 301 311 333 329 320 312 302 297 294 295 292 294 294 293 297 301 304 304 303 305 303 304 305 308 310 309 309 307 306
315 315 315 315 314 314 314 314 314 314 314 314 314 312 304 295 309 320 320 316 315 304 299 297 297 299 297 295 295 297 298 299 302 302 303 300 299 302 305 309 308 307 305 305 307
315 315 315 315 315 314 314 313 313 314 314 313 314 311 304 299 311 316 312 306 306 303 300 301 301 302 299 294 298 297 293 296 299 300 299 302 298 299 306 307 305 305 304 306 307
316 315 315 315 315 315 314 313 312 313 314 313 314 309 299 312 309 307 307 304 305 304 304 307 305 302 298 298 298 294 292 288 295 300 301 300 294 301 305 304 303 304 303 305 307
316 315 315 315 315 315 313 312 312 316 315 314 308 304 300 317 312 311 310 307 306 305 304 310 306 299 300 293 288 290 287 289 294 300 300 298 294 301 304 302 301 302 302 305 305
316 315 315 314 314 314 312 311 312 314 314 314 312 301 307 307 307 306 307 311 305 304 303 303 299 295 293 289 283 287 288 291 291 296 297 295 294 299 302 301 302 302 302 303 304
316 314 313 313 314 313 309 302 306 304 307 303 306 305 309 315 309 304 305 311 305 301 295 299 293 289 293 295 295 294 292 292 295 298 296 295 296 299 300 300 300 301 302 303 304
314 313 313 313 313 313 308 299 307 305 298 309 309 308 312 314 307 301 306 304 299 293 296 293 290 296 298 298 297 295 292 292 295 298 295 293 294 296 298 298 299 300 301 302 303
312 312 312 312 312 307 302 304 308 308 297 303 310 308 309 310 306 300 305 304 298 294 293 290 295 300 299 296 295 294 292 292 293 297 295 293 291 293 298 300 301 301 302 303 304
312 312 312 311 306 304 304 311 310 308 292 299 304 306 308 308 303 310 308 305 298 294 294 293 298 298 297 296 296 290 297 296 295 292 285 293 283 289 295 297 299 301 300 300 303
313 312 311 311 302 301 310 308 307 305 285 305 304 311 305 301 304 304 310 304 298 297 296 293 295 295 294 296 297 294 298 296 295 290 287 289 284 288 294 294 297 299 302 303 302
312 312 311 305 303 305 310 311 306 294 288 301 303 301 300 301 303 304 305 306 304 297 298 296 301 298 296 299 298 300 295 292 290 287 281 287 287 286 291 294 297 302 302 303 302
311 312 309 308 301 308 307 303 291 287 304 300 298 300 299 298 299 301 299 297 294 289 289 295 295 299 301 295 296 294 287 280 279 279 280 289 287 287 295 300 302 300 300 301 302
310 309 305 307 305 306 305 297 286 299 300 306 301 300 296 299 299 299 296 293 296 294 291 288 286 297 302 297 293 291 288 281 277 278 281 291 286 291 301 303 303 304 302 303 301
308 301 303 309 309 308 301 291 294 300 302 300 299 296 297 300 302 298 295 295 297 296 289 287 290 300 303 302 299 295 290 292 286 286 282 286 291 296 301 302 303 302 300 301 302
301 299 303 314 312 306 297 294 300 305 303 302 293 298 293 297 298 298 297 301 300 299 297 294 288 298 301 303 302 297 300 289 286 279 278 285 287 289 296 298 300 300 300 300 299
297 300 311 314 311 300 291 295 303 307 305 300 297 295 295 294 296 296 298 301 302 301 299 294 290 292 296 294 292 296 292 292 290 286 279 279 284 297 299 300 300 300 303 303 301
296 295 312 310 297 295 293 301 303 306 306 303 300 298 295 295 294 294 295 298 304 302 295 296 291 286 290 296 298 293 292 293 288 285 284 281 283 300 301 300 299 300 301 302 301
294 296 309 309 293 294 299 304 305 305 302 300 298 299 298 294 289 295 297 302 301 299 295 294 289 283 286 291 296 293 297 297 296 294 289 285 287 299 300 298 298 296 297 298 299
294 293 301 303 302 297 296 299 299 306 302 301 299 299 295 292 293 292 294 299 301 300 306 298 289 287 282 287 291 290 293 295 293 287 289 290 289 295 296 294 295 296 297 297 297
296 298 298 294 297 295 297 298 297 297 301 300 297 296 294 287 288 289 292 294 298 303 297 292 286 288 290 293 293 291 290 291 290 292 287 289 291 294 293 293 294 295 296 297 297
297 296 298 296 298 297 297 296 296 297 297 295 295 296 294 289 290 287 290 290 290 294 292 292 284 288 287 292 291 288 291 292 292 291 291 292 291 296 298 294 294 294 295 295 295
304 303 298 294 294 292 293 296 296 297 298 298 296 293 291 293 294 291 291 293 292 289 288 288 286 285 281 288 287 282 288 291 292 293 292 287 291 293 292 293 293 293 293 294 295

GFSSW_sfc_thetae_105.txt.gz
Theta_e
315 315 315 315 316 316 316 317 315 316 315 315 315 314 314 314 313 308 300 306 309 317 318 308 308 307 301 296 299 302 292 291 295 298 299 307 302 307 308 307 311 314 317 319 333
314 314 314 315 315 315 315 316 316 315 315 315 315 315 314 313 305 300 310 315 318 319 309 302 302 302 294 294 296 295 294 298 302 303 300 305 304 304 304 306 305 310 314 315 337
315 314 314 314 314 315 314 315 316 316 316 315 315 314 314 310 296 300 317 319 319 319 309 305 301 298 291 292 294 293 297 304 304 306 305 306 306 306 304 302 304 303 307 310 310
315 315 315 315 314 314 314 314 315 315 315 314 314 313 312 306 288 308 324 326 321 315 310 303 297 293 289 289 293 291 297 302 307 311 308 303 308 310 313 307 308 307 308 307 308
315 315 316 316 315 315 314 314 314 314 313 314 314 313 307 297 298 309 329 335 316 313 304 298 293 292 289 291 292 291 297 301 302 305 305 307 307 311 309 313 308 307 308 306 306
316 316 316 316 316 315 315 314 313 313 312 315 314 313 303 292 305 315 320 315 313 305 300 295 295 297 294 292 292 295 298 299 301 301 303 304 302 302 309 313 309 307 305 304 305
316 316 316 316 316 315 315 314 313 312 313 314 314 310 303 299 309 313 312 308 313 305 301 299 298 299 297 292 296 298 294 297 298 299 299 302 298 299 306 307 306 307 304 304 305
315 316 315 315 315 314 314 313 312 312 314 313 315 308 298 310 309 306 307 304 306 306 302 300 299 295 296 297 295 292 291 286 295 298 300 300 293 301 305 304 304 303 303 302 303
316 315 314 314 314 314 313 312 312 313 315 314 308 304 298 315 310 310 307 303 304 302 301 306 299 296 296 291 288 288 285 287 291 298 298 298 294 300 304 302 301 301 301 302 302
316 314 314 313 313 313 313 312 311 314 313 313 311 300 305 306 309 308 308 307 302 301 298 298 296 292 289 288 283 285 287 289 290 295 296 293 294 298 300 300 300 300 300 301 301
314 313 313 312 313 313 311 302 305 301 305 300 302 304 307 314 311 302 306 306 305 298 293 297 292 288 290 292 294 292 290 290 294 297 295 293 293 297 300 297 297 299 300 301 301
313 313 312 313 312 312 309 298 304 302 297 306 307 306 310 312 306 305 307 302 297 291 294 292 289 295 296 296 295 293 290 290 294 297 294 292 293 296 296 297 299 300 300 301 302
313 313 312 312 312 306 301 302 307 305 295 301 307 307 308 309 305 305 303 302 296 292 291 289 293 298 296 294 293 292 290 291 291 295 295 292 290 292 297 298 299 299 300 301 302
312 311 311 312 305 301 301 309 308 305 291 297 303 306 307 307 302 306 305 304 296 293 293 291 296 296 294 294 294 289 295 295 294 290 285 292 283 289 293 295 298 299 299 300 301
311 311 311 311 303 300 308 306 305 303 283 303 302 308 305 301 302 303 307 304 296 295 293 291 293 293 292 294 296 292 297 295 294 289 286 287 284 288 292 293 295 298 299 301 301
311 311 311 306 305 304 308 306 304 293 285 300 301 299 298 300 301 303 304 304 303 296 295 294 299 296 295 298 297 297 293 290 288 286 280 285 285 285 289 292 294 298 301 301 301
310 310 309 308 299 305 304 302 290 286 303 298 296 298 296 296 298 299 298 296 293 288 288 293 293 296 299 294 296 292 285 280 279 279 279 287 285 287 294 299 300 299 299 299 299
309 309 305 307 306 307 304 295 285 297 300 306 299 297 294 297 297 298 296 292 295 294 290 287 285 295 300 296 292 290 286 280 277 277 280 289 283 290 299 300 300 299 298 299 300
308 300 300 304 307 305 301 289 291 297 301 299 299 293 292 299 298 296 294 293 295 294 289 287 290 299 302 301 298 291 287 290 284 284 281 284 289 294 299 299 300 300 300 298 299
303 298 301 309 308 304 296 293 297 305 302 301 293 297 294 294 295 295 294 300 297 297 295 292 286 297 301 302 300 296 297 286 284 279 277 282 285 286 294 295 298 299 299 299 299
296 296 307 311 308 300 291 294 300 306 304 300 296 294 293 293 295 294 297 301 302 299 297 293 290 290 294 293 293 292 288 289 288 284 278 278 283 295 298 297 297 296 297 297 297
296 291 309 310 297 297 293 298 302 305 308 303 301 298 294 294 292 292 294 299 303 302 295 295 290 285 289 294 296 293 290 290 283 283 281 279 282 298 296 295 296 295 296 297 297
296 294 306 310 293 294 298 301 304 303 304 300 299 300 298 294 289 294 296 300 300 297 296 295 288 283 284 289 293 291 293 293 292 291 288 285 287 298 297 295 295 294 295 297 297
295 293 300 304 303 296 295 297 299 306 302 302 299 299 295 292 292 291 293 297 300 300 304 298 289 286 282 285 288 287 291 293 289 288 289 290 290 295 296 294 294 294 294 295 295
295 297 297 292 296 296 297 297 296 297 301 301 297 297 294 288 288 289 291 293 296 298 296 291 285 287 289 291 292 290 289 289 288 289 286 288 289 293 293 291 292 293 294 294 294
296 296 297 295 298 296 297 296 296 297 296 295 295 296 293 289 289 287 289 289 289 292 290 290 284 286 285 290 288 286 288 289 289 289 291 291 289 292 294 293 292 292 293 293 293
301 303 298 294 293 292 292 293 296 297 297 298 296 293 292 292 294 292 293 292 292 289 287 286 284 281 279 286 286 281 285 287 289 291 290 285 288 291 290 292 291 291 292 292 293

GFSSW_sfc_thetae_108.txt.gz
Theta_e
315 315 315 315 315 315 315 315 316 316 316 316 315 315 315 314 313 306 299 305 308 316 317 308 305 306 302 295 296 299 290 289 293 298 299 305 304 308 307 305 311 312 316 321 342
316 315 315 316 315 314 314 314 315 316 316 316 315 315 315 314 304 300 309 315 318 318 309 302 298 301 295 293 294 293 288 291 298 302 300 304 307 305 305 305 303 308 312 335 341
316 316 316 317 317 316 316 315 315 315 315 315 315 315 314 310 294 295 315 318 318 318 306 303 300 299 290 290 292 290 289 298 302 305 306 307 308 310 308 301 306 303 306 319 327
317 317 317 317 317 316 316 316 315 315 314 314 315 314 313 305 285 301 326 322 320 315 308 300 295 293 289 289 290 287 294 301 303 307 309 307 307 308 308 309 311 306 305 307 320
317 316 316 316 316 315 315 315 315 314 313 313 314 314 307 296 295 305 320 329 316 311 305 297 292 291 289 289 291 289 293 297 302 306 307 310 308 307 309 312 312 306 306 304 306
316 316 317 316 316 315 315 314 315 314 313 313 315 314 302 292 305 313 320 318 312 307 302 296 294 295 291 290 291 293 294 295 298 299 304 303 305 308 309 312 311 310 306 303 304
315 315 314 315 315 316 315 314 314 313 313 314 315 309 301 297 309 314 312 308 311 304 300 296 296 297 294 291 294 294 288 293 297 301 301 305 300 301 306 310 307 306 306 304 303
315 315 315 315 314 314 315 315 313 313 313 315 316 307 296 309 309 305 309 306 311 305 302 301 298 295 293 296 293 290 289 283 291 300 300 301 292 301 306 307 306 310 309 304 304
315 313 313 314 314 313 314 314 314 315 315 315 308 303 295 313 309 310 308 303 305 303 301 304 298 293 296 290 286 285 282 284 289 296 298 297 294 301 304 306 305 307 308 307 301
314 313 312 312 313 313 313 313 312 314 312 311 309 299 303 304 310 307 306 304 301 298 297 295 292 290 288 286 281 283 284 286 289 292 297 295 295 300 302 302 302 304 305 304 302
314 314 312 312 312 312 310 304 303 302 305 298 300 301 307 312 313 303 307 302 301 295 288 291 288 286 289 290 291 289 288 288 291 296 294 293 294 296 299 297 297 299 300 301 301
314 313 312 312 311 312 309 298 302 301 296 304 305 304 308 311 305 304 307 299 297 292 292 290 287 293 294 293 292 291 288 288 292 296 294 293 293 296 298 297 297 299 300 300 300
312 311 312 312 311 307 301 301 306 304 294 300 305 305 305 307 304 305 303 300 295 291 290 288 292 297 295 292 291 290 288 288 290 293 294 292 290 293 298 298 299 298 299 300 300
311 311 311 312 304 301 299 307 307 305 289 295 300 304 306 306 302 310 303 302 295 291 291 290 294 294 292 292 292 287 293 293 292 289 285 292 283 289 293 295 298 298 298 300 301
311 311 311 311 304 300 305 305 304 301 282 300 301 308 304 300 301 301 305 303 296 293 292 290 291 291 290 292 294 291 295 293 292 287 286 287 284 288 292 293 296 297 300 301 303
310 310 311 307 304 304 306 305 303 291 284 298 300 298 298 298 299 302 301 303 302 295 293 292 296 295 294 296 295 296 290 288 286 284 280 285 285 285 289 293 297 299 301 301 301
310 310 308 309 298 303 304 300 289 285 300 296 294 296 296 295 296 298 296 294 292 288 288 291 291 295 297 292 295 290 285 279 278 278 279 286 285 286 294 299 299 299 299 300 300
309 308 307 306 307 306 303 294 283 294 296 303 298 295 292 295 295 296 294 291 295 293 289 286 284 293 299 294 291 288 285 280 277 276 279 288 283 289 299 299 298 298 298 299 298
308 301 298 301 306 305 299 287 288 294 301 299 297 292 291 295 294 295 293 292 294 294 289 288 289 299 301 299 296 290 286 288 282 282 280 283 287 295 298 298 299 299 299 297 297
303 298 299 306 308 303 296 292 296 303 303 302 293 295 289 294 294 291 292 299 296 296 295 291 287 297 300 301 298 293 294 286 283 278 277 281 284 285 293 294 296 296 296 296 297
297 292 302 309 307 300 292 294 299 304 303 300 297 295 295 295 295 294 295 299 301 298 296 292 289 290 293 292 291 291 288 288 287 283 278 278 282 292 293 294 293 294 295 295 296
299 288 303 309 297 296 293 297 300 302 306 304 302 298 295 294 293 292 293 297 303 301 295 296 290 285 287 293 295 292 290 289 283 282 281 279 281 294 292 293 293 294 296 296 297
295 293 302 307 293 294 298 299 302 301 302 300 299 300 299 294 291 294 295 298 299 299 296 296 288 284 284 289 292 290 292 291 289 287 283 281 283 295 295 293 293 293 294 296 296
296 289 295 300 301 296 294 296 297 304 301 301 298 299 296 292 292 292 292 296 300 300 302 298 289 286 282 283 287 287 290 291 288 284 284 285 287 293 293 292 293 293 294 294 294
296 292 297 289 295 296 296 296 295 295 300 301 298 297 294 290 288 288 292 293 296 298 294 290 284 287 288 290 290 288 289 289 287 286 284 286 289 293 293 292 292 293 294 294 293
295 296 298 291 293 295 294 293 293 296 295 295 296 296 295 290 290 287 289 289 289 293 290 288 283 284 284 288 287 285 288 288 288 288 289 289 288 293 292 292 292 292 294 292 292
300 302 298 293 290 289 292 293 294 297 296 296 296 294 293 293 293 291 291 291 292 290 287 286 284 281 279 284 284 280 284 286 288 289 288 284 289 291 290 291 291 292 293 292 292

GFSSW_sfc_thetae_111.txt.gz
Theta_e
316 316 316 317 317 317 316 316 315 316 317 316 316 315 315 315 314 309 303 308 311 317 318 311 308 309 310 306 304 306 300 298 300 301 304 309 312 312 313 314 316 317 319 329 349
317 317 317 317 317 317 317 317 317 316 316 315 316 316 315 314 308 303 313 315 318 318 310 305 301 304 305 305 304 302 298 300 305 306 306 309 313 312 312 313 314 318 321 344 347
317 317 316 316 316 316 316 316 316 316 315 315 315 315 314 312 301 300 312 318 319 318 310 308 305 303 302 300 302 301 297 303 304 307 310 309 312 316 312 311 314 315 316 333 344
317 316 316 316 316 316 316 316 316 316 316 314 314 315 314 307 294 306 322 323 321 316 309 304 303 298 300 299 301 297 300 302 304 309 311 309 312 314 315 314 318 318 314 314 327
316 315 315 315 316 316 316 315 315 315 315 314 314 315 308 300 301 310 318 325 318 313 305 300 300 298 296 300 300 298 301 301 305 307 310 312 311 312 316 320 321 318 317 316 316
315 314 314 314 315 314 315 315 315 315 314 314 314 315 303 295 308 314 323 319 316 310 307 302 301 302 299 298 298 301 301 302 303 307 311 309 311 312 315 319 319 317 316 317 317
315 316 315 314 315 314 313 314 314 314 314 314 314 312 301 300 314 315 317 316 316 311 304 304 303 302 302 299 301 301 297 299 302 303 305 311 307 308 314 317 317 315 315 316 318
315 314 314 314 314 313 314 315 313 314 316 314 315 307 298 310 313 310 313 312 315 310 305 305 304 303 302 303 299 297 297 293 299 302 305 308 300 311 315 313 313 311 311 314 317
314 313 313 313 313 313 314 314 314 316 314 315 310 303 297 314 309 313 312 309 309 310 306 306 303 300 300 297 295 294 290 292 295 302 302 305 300 307 310 309 310 313 312 315 318
314 313 312 312 313 313 313 313 313 313 312 312 309 299 303 305 311 311 312 309 303 304 302 300 299 295 296 295 289 291 291 292 293 298 301 299 298 304 307 307 306 312 314 313 313
314 312 311 313 313 312 310 307 304 302 305 301 301 302 306 312 312 308 308 304 303 300 294 297 293 290 294 296 297 297 294 294 296 299 298 298 299 302 305 308 307 308 308 310 311
312 311 312 312 312 312 309 301 305 305 300 306 305 305 309 310 305 305 307 300 298 292 295 293 290 296 297 298 296 296 294 295 297 299 298 298 298 302 304 304 305 306 307 311 311
310 311 312 312 312 308 304 304 309 309 300 303 305 305 307 309 305 302 304 303 299 294 294 293 295 298 297 297 294 295 294 295 295 298 300 298 296 298 302 304 304 304 307 308 309
310 311 311 312 306 305 302 309 310 309 296 297 301 305 308 309 303 310 307 304 298 296 297 297 300 297 297 296 297 293 298 297 296 295 291 297 290 298 301 300 302 304 304 305 307
309 310 311 310 304 301 306 309 309 306 284 300 302 312 308 304 305 303 308 304 298 296 297 294 296 296 295 297 299 296 300 298 297 296 294 294 292 297 298 298 301 304 307 308 309
310 310 310 307 306 307 309 308 307 294 283 299 303 301 301 303 302 302 301 307 306 298 297 297 301 300 299 300 300 300 297 296 295 295 289 294 293 294 296 298 302 305 306 306 308
309 309 308 308 301 308 308 304 293 286 298 299 297 301 301 299 299 300 297 297 296 292 292 295 296 300 301 298 301 298 295 289 287 287 287 292 292 295 298 302 303 304 305 306 306
309 308 308 307 309 309 306 298 286 293 293 301 299 299 297 299 299 299 296 293 300 298 294 291 287 296 302 300 297 298 296 290 283 285 288 293 290 295 302 303 303 305 306 306 305
307 307 304 305 309 308 299 291 291 294 298 299 298 294 294 297 298 297 296 295 298 299 293 291 291 301 302 303 302 297 294 296 291 290 290 292 295 301 302 302 304 304 304 304 306
304 301 300 308 309 303 296 293 296 300 303 301 294 296 292 294 294 296 295 299 297 300 303 297 291 299 301 303 302 300 300 293 294 286 284 289 291 294 299 300 302 302 303 304 305
303 295 306 309 308 301 293 295 299 303 303 299 297 295 296 295 297 295 296 300 302 299 301 298 296 294 298 296 296 297 296 296 296 293 287 285 290 300 301 302 301 302 303 303 304
299 290 306 310 300 301 296 299 300 300 303 302 302 298 297 297 296 297 296 299 303 302 297 298 296 292 293 298 299 298 296 298 294 290 292 292 291 300 302 302 303 302 302 303 303
294 294 306 309 293 296 298 298 300 300 301 300 299 300 300 296 292 296 297 300 303 303 300 302 293 287 290 295 298 295 297 297 296 296 292 289 292 300 301 301 302 302 302 302 303
297 289 301 304 302 296 294 295 296 301 300 302 299 300 297 294 296 294 295 298 302 302 306 305 295 290 289 291 295 293 296 297 296 292 291 292 294 297 299 300 300 301 302 302 302
297 292 299 292 294 296 296 293 294 292 299 301 298 298 296 291 293 292 295 297 298 300 298 299 293 294 293 294 294 293 294 294 293 293 290 292 294 298 301 301 300 301 301 301 301
295 295 298 294 296 293 295 293 292 295 296 294 296 296 297 292 292 290 293 295 296 297 296 297 291 292 289 291 291 290 292 293 293 293 294 294 293 301 300 300 299 300 300 299 299
302 303 298 294 293 291 293 293 293 294 297 297 296 295 293 294 296 295 297 298 298 297 294 294 292 290 285 288 288 285 290 291 292 293 294 290 295 299 297 298 299 299 299 298 298

GFSSW_sfc_thetae_114.txt.gz
Theta_e
318 318 317 317 317 317 317 317 317 317 316 316 316 317 316 316 316 315 309 316 316 320 319 312 309 309 314 310 310 311 303 301 304 306 309 315 313 320 319 318 323 326 325 340 353
317 317 318 318 317 317 317 316 316 317 317 316 316 316 316 315 312 310 320 320 318 320 311 307 304 307 307 307 308 305 300 302 308 310 310 314 314 319 316 317 320 325 323 346 351
317 317 317 317 317 318 317 317 317 316 317 317 315 315 316 315 308 308 318 323 319 320 312 309 307 305 303 307 305 304 300 305 306 311 312 311 313 318 317 315 318 317 318 324 344
316 316 315 316 316 316 316 316 316 316 316 315 315 315 315 313 299 313 323 323 322 319 311 307 305 301 302 302 306 301 304 305 306 310 310 309 314 314 319 319 322 322 322 321 323
315 315 315 315 315 316 316 316 315 315 315 315 315 314 313 307 307 315 318 324 322 318 309 306 303 302 300 303 305 302 303 305 306 307 309 312 311 313 316 322 321 323 322 321 322
316 316 316 315 315 315 315 315 315 315 314 314 315 315 310 301 315 315 321 322 320 316 310 308 305 305 301 302 303 305 304 305 306 306 307 309 312 313 315 322 321 322 321 325 325
315 316 315 315 314 314 315 314 314 314 314 315 315 313 306 307 315 321 322 321 320 316 310 308 308 304 303 300 305 304 300 303 304 305 305 307 306 310 317 319 320 322 322 322 325
314 315 314 314 314 314 314 314 314 314 315 317 316 312 303 316 318 315 315 316 319 318 312 309 308 305 304 306 303 299 300 296 302 303 305 306 301 310 316 317 318 321 319 322 323
314 314 314 313 313 314 314 313 313 315 315 315 312 308 304 315 309 313 315 313 315 313 309 308 307 303 304 300 298 299 294 295 298 304 303 303 300 307 314 316 316 319 319 321 322
313 313 312 312 313 313 313 313 313 314 314 314 310 301 307 306 312 314 316 314 307 306 302 302 302 300 299 298 291 294 294 296 296 301 302 301 302 305 310 312 314 317 319 319 320
313 312 311 312 313 312 311 309 306 304 306 306 306 306 308 314 316 312 314 309 305 303 297 301 297 295 298 299 300 299 298 296 299 302 301 300 301 304 308 310 312 316 318 319 323
312 312 311 311 312 312 310 304 310 311 303 310 310 308 311 313 308 310 312 302 300 296 300 298 294 300 301 300 299 299 297 297 300 302 302 300 300 304 307 308 311 314 317 318 322
311 311 311 312 311 310 307 309 316 315 305 307 311 309 309 311 307 307 307 305 299 296 297 296 298 301 299 298 297 298 297 297 297 301 302 300 299 302 306 309 312 314 315 320 320
310 310 311 311 308 310 305 310 316 315 299 300 303 308 310 311 305 313 310 306 302 296 297 297 301 299 297 297 299 296 301 300 298 297 293 302 293 301 305 306 309 311 312 315 319
310 310 310 310 306 303 308 315 316 313 285 303 305 315 311 307 308 309 312 307 301 300 298 295 299 299 296 299 302 299 302 300 299 298 297 298 295 300 305 303 306 309 310 312 316
310 310 310 307 308 309 312 312 312 296 285 298 307 304 304 305 307 310 307 309 308 302 302 301 304 302 302 303 303 304 301 301 300 298 291 296 296 296 301 303 306 310 311 311 312
309 309 308 309 304 312 312 307 295 288 299 296 300 304 303 301 303 304 302 300 298 294 295 298 298 303 304 300 303 302 299 291 289 290 289 298 295 296 305 308 309 310 311 313 313
308 306 311 311 313 312 310 299 287 293 295 302 301 301 298 302 301 302 300 297 301 300 296 293 290 298 303 301 299 300 300 293 285 287 290 298 292 300 308 309 311 312 311 313 312
305 310 309 313 313 312 303 290 290 294 298 298 301 298 297 298 298 301 300 298 300 301 295 294 293 301 302 304 303 300 297 302 295 296 291 295 299 304 307 308 309 310 311 311 312
305 306 306 315 313 307 297 291 295 299 300 302 295 298 293 294 294 298 299 302 301 303 305 300 293 299 300 304 305 302 304 295 296 287 286 292 295 296 303 305 308 309 310 311 311
305 299 311 313 310 302 293 294 297 300 303 300 298 296 294 293 295 296 298 302 303 302 305 302 299 297 302 299 297 299 299 300 299 296 289 287 293 306 306 307 308 309 310 310 310
300 294 312 313 298 301 297 299 299 302 304 302 301 299 296 292 292 296 296 302 305 304 299 303 300 295 296 303 303 301 300 300 296 293 296 296 294 308 309 309 309 309 310 310 311
294 298 311 309 295 296 300 299 300 297 299 301 299 301 301 295 289 295 301 303 305 304 302 304 299 291 294 299 302 299 300 301 301 301 295 291 292 306 308 308 309 308 309 309 309
297 292 301 308 306 297 295 296 296 300 299 303 300 301 299 294 296 291 298 301 304 306 310 307 299 295 292 294 300 297 299 301 299 294 293 294 293 301 304 305 307 308 309 309 308
300 295 300 294 296 297 298 296 294 295 301 302 300 298 297 292 292 288 297 298 303 303 307 306 298 300 298 297 298 298 298 299 297 297 293 295 296 302 305 306 307 308 308 307 307
295 294 299 296 298 296 296 295 294 295 294 296 296 298 300 295 292 289 295 298 299 303 301 303 298 299 295 297 297 295 297 298 297 297 297 297 296 304 306 308 306 306 306 306 306
304 303 296 294 293 294 293 294 294 297 294 298 298 294 295 295 300 301 298 301 303 303 302 301 299 296 291 294 293 289 294 296 297 298 298 294 299 304 302 302 304 304 305 304 304

GFSSW_sfc_thetae_117.txt.gz
Theta_e
318 318 318 319 319 319 318 318 318 318 318 318 318 316 317 317 317 316 312 319 320 325 317 314 312 312 311 311 312 312 302 300 303 305 308 316 317 320 322 321 324 329 327 340 354
317 317 317 317 318 318 318 318 318 318 318 318 318 316 316 317 314 313 323 330 322 320 313 309 307 308 306 309 309 306 302 302 307 309 310 313 315 317 319 317 321 326 325 345 351
316 316 316 316 316 317 317 317 317 317 318 317 317 316 316 317 312 316 331 328 323 321 313 312 310 308 305 308 307 306 301 306 307 310 312 312 313 317 315 317 321 323 323 335 344
316 317 317 317 317 317 317 316 316 317 316 316 316 316 316 316 303 319 325 325 323 319 314 311 307 304 303 303 308 303 306 306 307 309 309 309 314 314 316 320 324 326 324 326 334
315 315 316 316 316 315 315 315 315 315 315 315 315 316 314 310 310 322 327 325 321 318 314 310 306 305 301 304 306 304 305 307 308 308 309 311 311 312 314 319 325 327 324 324 325
316 315 315 315 315 315 315 315 315 315 315 315 315 315 310 303 320 323 320 323 320 318 315 313 310 309 305 304 304 307 306 306 307 307 307 307 309 311 313 318 323 324 325 325 325
315 315 315 315 315 315 315 315 314 315 315 315 316 314 308 309 320 320 320 321 320 319 314 315 313 309 307 303 306 306 303 305 306 306 305 307 303 305 314 318 318 321 324 324 328
314 314 314 314 313 314 315 314 314 314 315 317 318 313 305 320 322 319 321 320 321 321 318 316 312 309 307 308 304 301 302 297 304 305 306 306 299 306 311 315 315 318 320 324 325
314 314 314 312 312 313 314 313 313 315 316 315 314 310 307 320 314 319 319 313 317 318 318 314 310 306 306 300 299 301 295 297 299 305 304 303 300 306 311 311 314 317 320 322 325
313 313 313 312 312 313 312 312 314 314 315 315 312 305 310 310 315 315 318 315 313 314 307 306 304 301 302 299 293 296 296 298 298 303 303 301 301 305 308 310 312 316 317 320 324
312 312 312 312 312 312 311 311 309 305 308 307 308 308 312 315 317 314 315 313 312 307 299 303 298 296 299 301 301 301 300 299 301 304 302 301 301 304 307 308 309 313 317 319 322
310 310 311 311 312 311 310 306 309 314 304 311 311 312 315 316 309 311 315 308 304 299 301 299 296 302 303 302 300 300 299 299 302 304 303 301 300 304 306 307 309 312 314 316 320
310 310 311 311 311 311 311 311 317 315 305 307 311 311 312 314 309 309 311 308 302 299 299 297 300 303 302 300 299 299 298 299 299 302 304 302 299 302 305 307 309 312 313 314 317
309 310 310 311 308 313 306 313 316 317 299 299 306 309 312 313 306 315 312 308 303 299 300 299 303 301 300 299 300 296 302 301 300 299 293 302 292 299 303 305 307 309 311 314 319
309 310 310 310 307 305 310 315 317 316 284 301 306 316 313 309 309 309 314 307 301 300 300 297 299 299 298 299 301 298 303 302 301 298 298 298 294 299 304 302 305 310 313 316 316
309 309 309 308 311 311 314 314 311 296 285 297 307 306 306 308 308 310 310 310 308 303 302 300 304 302 302 302 302 304 302 302 301 299 291 296 294 295 299 303 307 310 313 313 315
308 308 307 309 306 315 314 308 293 287 298 296 298 305 305 303 305 305 304 302 298 295 296 298 300 304 305 300 303 303 299 292 289 290 289 299 296 298 304 305 308 311 314 315 315
307 305 308 313 316 314 312 299 286 292 294 300 299 303 298 303 303 302 302 299 302 301 297 294 292 300 304 301 300 301 300 292 286 287 291 298 293 300 307 308 313 314 315 316 317
305 310 310 313 316 314 304 292 291 294 298 296 299 296 297 302 299 298 299 300 301 302 296 295 295 303 303 304 304 300 297 303 295 297 293 295 300 306 309 310 312 313 314 315 316
305 306 307 315 318 309 298 291 295 299 300 298 292 298 295 297 295 292 296 303 301 304 305 301 294 300 302 304 304 302 304 295 298 288 287 293 293 297 304 307 310 311 313 314 316
305 301 313 319 313 300 293 294 297 302 302 298 296 296 296 296 297 293 293 301 306 304 305 303 299 297 300 298 297 299 298 301 301 298 291 288 292 305 306 309 310 312 313 314 314
302 294 314 314 297 298 296 298 299 302 304 302 301 300 299 297 294 292 294 298 302 306 300 304 300 295 296 301 303 303 301 300 297 293 297 297 297 307 305 311 313 312 313 314 314
296 299 309 309 292 295 297 298 299 300 300 299 299 302 300 297 293 296 296 301 306 306 303 306 299 293 293 298 304 300 302 303 303 302 293 292 296 309 311 311 312 311 312 312 313
298 292 298 308 305 296 294 294 295 301 301 302 299 304 300 296 297 295 295 299 306 307 311 309 301 298 293 296 301 298 300 301 300 291 294 294 294 302 306 306 309 311 312 312 312
297 295 298 293 294 295 297 297 295 295 300 299 300 301 298 293 294 292 293 296 304 306 307 306 298 301 298 300 300 300 299 300 298 298 294 296 299 302 306 305 308 310 311 311 311
293 292 295 295 296 295 296 296 294 295 297 296 295 298 299 292 297 291 292 294 302 307 304 307 298 301 296 299 299 295 300 301 301 300 300 299 300 308 307 310 309 309 309 308 308
303 302 296 292 293 291 293 295 295 298 298 297 297 298 294 295 299 302 300 300 302 303 303 303 301 298 293 298 297 293 298 299 300 300 299 296 301 307 306 306 307 307 307 307 308

GFSSW_sfc_thetae_120.txt.gz
Theta_e
317 317 318 318 318 318 318 318 319 319 319 319 319 319 318 317 317 315 310 317 321 328 321 312 313 311 309 306 310 310 300 298 300 302 305 312 311 320 323 320 322 324 326 342 348
316 317 317 317 317 317 317 317 317 317 318 319 319 318 318 317 312 310 321 331 331 329 315 310 305 309 305 304 306 305 300 300 305 306 305 310 311 314 318 316 317 322 328 338 338
315 315 317 318 318 318 317 316 316 316 317 317 317 318 318 316 309 312 336 332 333 326 316 312 309 307 303 305 305 305 300 304 305 307 308 308 309 313 312 313 319 319 325 329 332
315 315 315 315 315 316 316 314 315 315 315 316 316 316 317 313 299 316 330 332 329 319 314 309 307 304 301 300 305 301 305 305 306 308 308 306 309 310 312 315 320 323 326 327 338
315 314 314 315 315 316 316 316 315 316 316 316 316 316 313 307 306 318 329 327 321 315 311 307 305 304 300 302 304 303 304 306 308 307 307 308 306 308 310 316 320 324 325 325 329
315 315 315 314 314 315 315 315 315 315 316 315 315 315 308 300 316 319 321 320 315 315 313 312 308 308 304 303 302 304 305 306 307 306 307 304 305 307 310 316 317 321 324 325 326
315 315 315 315 313 314 314 314 314 314 314 315 315 312 305 305 319 321 321 320 319 316 312 316 314 309 308 303 306 304 301 304 305 306 305 306 302 303 310 314 314 314 324 324 326
315 314 314 314 314 313 313 314 314 314 314 315 317 312 302 317 320 316 319 317 320 320 317 316 316 310 307 308 304 301 301 296 303 305 306 305 297 304 309 311 311 314 316 323 324
313 313 312 313 313 313 312 312 313 314 315 317 312 310 304 321 312 318 318 316 317 317 317 317 314 307 305 300 297 298 293 295 298 305 304 303 299 305 309 308 308 310 316 320 324
312 311 311 312 312 312 311 311 313 314 314 315 313 304 308 307 315 316 318 318 314 313 311 310 307 301 300 298 290 293 295 297 297 301 303 301 300 304 307 307 308 309 312 316 321
311 310 311 311 312 311 310 309 306 304 308 306 307 306 309 316 319 315 317 315 312 309 302 306 297 294 297 299 300 299 298 298 301 303 301 300 300 303 306 306 306 308 311 313 318
311 311 310 311 311 311 309 304 306 310 301 309 310 310 313 315 309 312 316 308 305 300 304 299 294 299 301 301 299 298 297 297 301 305 303 301 300 303 305 306 307 308 309 312 317
310 310 310 310 310 308 310 311 315 312 300 302 306 308 309 311 308 309 311 308 303 301 300 296 298 301 300 299 298 298 296 297 298 303 304 302 299 301 305 307 308 309 311 312 313
310 309 310 309 305 309 304 311 314 316 296 297 301 305 308 310 305 314 312 307 305 300 300 299 302 300 298 298 299 295 300 300 299 298 293 302 291 300 303 304 307 308 309 311 313
309 309 309 308 304 302 308 314 314 312 283 300 305 314 311 306 307 308 314 308 302 300 300 297 298 298 297 298 301 298 302 300 300 297 297 297 294 298 304 302 305 308 309 311 314
309 308 308 305 307 308 312 314 309 293 283 296 304 305 305 306 306 309 308 311 309 302 302 300 304 302 301 302 302 303 300 300 300 297 290 295 294 295 299 302 307 311 311 312 314
308 308 307 307 301 309 313 307 291 284 296 294 296 301 301 302 301 305 302 301 299 294 295 299 299 302 303 299 302 300 297 290 289 289 288 297 294 297 306 308 309 310 310 313 314
307 305 306 309 312 312 310 298 284 291 292 298 297 298 296 301 299 299 302 297 303 299 295 294 290 298 302 299 297 297 297 291 285 287 290 298 292 298 308 310 311 311 313 315 316
305 307 306 310 313 313 301 289 289 293 296 296 297 293 294 299 298 298 297 299 301 303 295 294 294 300 302 303 302 297 295 301 295 296 292 296 299 306 308 307 307 308 313 314 317
302 304 305 315 316 312 297 289 293 298 298 297 291 295 291 295 296 298 297 299 300 304 305 299 293 300 302 303 303 301 303 294 296 287 285 292 295 296 302 304 308 310 313 314 316
303 297 306 318 317 304 289 291 295 299 299 297 295 294 295 295 294 295 296 298 302 303 306 301 297 297 302 298 296 298 297 299 299 297 289 288 292 306 304 307 302 311 313 313 313
299 291 305 309 299 299 292 295 297 299 302 299 299 300 296 295 294 295 295 298 304 303 299 302 299 294 297 301 303 301 299 299 294 293 295 292 289 309 308 307 306 310 312 313 313
294 296 307 303 290 290 294 294 296 295 297 300 297 300 302 298 293 297 298 302 304 300 301 303 299 290 293 299 302 298 299 302 302 301 295 292 294 307 307 306 307 310 311 311 313
295 290 297 302 294 288 290 291 293 300 299 301 300 302 300 294 299 297 297 300 303 303 306 306 299 295 291 295 299 296 297 300 300 296 294 296 296 301 304 304 307 309 311 311 312
296 292 295 288 290 293 293 293 287 293 300 301 298 294 295 294 296 295 297 298 300 303 304 305 298 297 300 299 299 299 298 299 299 299 294 297 297 302 305 307 308 310 310 309 310
293 291 293 290 293 292 292 288 290 292 296 295 292 293 297 295 296 294 296 297 296 303 304 308 299 300 295 298 300 298 300 300 300 300 299 299 300 308 309 310 309 309 309 308 307
301 301 294 291 292 290 290 289 291 295 298 297 294 295 294 295 298 302 301 301 300 300 304 305 300 297 291 297 298 291 296 300 301 302 300 294 303 308 307 306 306 308 308 306 307